<?xml version="1.0" encoding="UTF-8" standalone="no" ?>
<gpx xmlns="http://www.topografix.com/GPX/1/1" xmlns:xsi="http://www.w3.org/2001/XMLSchema-instance" xsi:schemaLocation="http://www.topografix.com/GPX/1/1 http://www.topografix.com/GPX/1/1/gpx.xsd" version="1.1" creator="VisuGPX - https://www.visugpx.com">
  <metadata>
    <name>Vendredi 3 avril 2026</name>
  </metadata>
  <trk>
    <name><![CDATA[Vendredi 3 avril 2026]]></name>
    <extensions>
      <line xmlns="http://www.topografix.com/GPX/gpx_style/0/2">
        <width>7</width>
      </line>
    </extensions>
    <trkseg>
      <trkpt lat="43.38309" lon="-1.65903">
        <ele>5</ele>
        <time>2026-03-09T16:26:58.000Z</time>
      </trkpt>
      <trkpt lat="43.38298" lon="-1.65877">
        <ele>4</ele>
        <time>2026-03-09T16:27:02.000Z</time>
      </trkpt>
      <trkpt lat="43.38234" lon="-1.65703">
        <ele>4</ele>
        <time>2026-03-09T16:27:27.000Z</time>
      </trkpt>
      <trkpt lat="43.38233" lon="-1.65687">
        <ele>4</ele>
        <time>2026-03-09T16:27:29.000Z</time>
      </trkpt>
      <trkpt lat="43.38236" lon="-1.65679">
        <ele>4</ele>
        <time>2026-03-09T16:27:30.000Z</time>
      </trkpt>
      <trkpt lat="43.38252" lon="-1.65655">
        <ele>4</ele>
        <time>2026-03-09T16:27:35.000Z</time>
      </trkpt>
      <trkpt lat="43.38351" lon="-1.65522">
        <ele>4</ele>
        <time>2026-03-09T16:27:59.000Z</time>
      </trkpt>
      <trkpt lat="43.38357" lon="-1.65509">
        <ele>4</ele>
        <time>2026-03-09T16:28:01.000Z</time>
      </trkpt>
      <trkpt lat="43.38352" lon="-1.65508">
        <ele>4</ele>
        <time>2026-03-09T16:28:02.000Z</time>
      </trkpt>
      <trkpt lat="43.38328" lon="-1.65473">
        <ele>4</ele>
        <time>2026-03-09T16:28:08.000Z</time>
      </trkpt>
      <trkpt lat="43.38325" lon="-1.65465">
        <ele>4</ele>
        <time>2026-03-09T16:28:09.000Z</time>
      </trkpt>
      <trkpt lat="43.38326" lon="-1.65462">
        <ele>4</ele>
        <time>2026-03-09T16:28:10.000Z</time>
      </trkpt>
      <trkpt lat="43.38327" lon="-1.65457">
        <ele>4</ele>
        <time>2026-03-09T16:28:11.000Z</time>
      </trkpt>
      <trkpt lat="43.38331" lon="-1.65453">
        <ele>5</ele>
        <time>2026-03-09T16:28:11.000Z</time>
      </trkpt>
      <trkpt lat="43.3837" lon="-1.65376">
        <ele>5</ele>
        <time>2026-03-09T16:28:24.000Z</time>
      </trkpt>
      <trkpt lat="43.3839" lon="-1.65332">
        <ele>6</ele>
        <time>2026-03-09T16:28:30.000Z</time>
      </trkpt>
      <trkpt lat="43.38394" lon="-1.65317">
        <ele>8</ele>
        <time>2026-03-09T16:28:32.000Z</time>
      </trkpt>
      <trkpt lat="43.38392" lon="-1.65295">
        <ele>10</ele>
        <time>2026-03-09T16:28:35.000Z</time>
      </trkpt>
      <trkpt lat="43.38384" lon="-1.65266">
        <ele>13</ele>
        <time>2026-03-09T16:28:39.000Z</time>
      </trkpt>
      <trkpt lat="43.38365" lon="-1.65248">
        <ele>13</ele>
        <time>2026-03-09T16:28:43.000Z</time>
      </trkpt>
      <trkpt lat="43.3836" lon="-1.65239">
        <ele>13</ele>
        <time>2026-03-09T16:28:45.000Z</time>
      </trkpt>
      <trkpt lat="43.38356" lon="-1.65227">
        <ele>13</ele>
        <time>2026-03-09T16:28:47.000Z</time>
      </trkpt>
      <trkpt lat="43.38343" lon="-1.652">
        <ele>12</ele>
        <time>2026-03-09T16:28:51.000Z</time>
      </trkpt>
      <trkpt lat="43.38276" lon="-1.65016">
        <ele>9</ele>
        <time>2026-03-09T16:29:17.000Z</time>
      </trkpt>
      <trkpt lat="43.3826" lon="-1.64971">
        <ele>8</ele>
        <time>2026-03-09T16:29:24.000Z</time>
      </trkpt>
      <trkpt lat="43.38254" lon="-1.64945">
        <ele>8</ele>
        <time>2026-03-09T16:29:27.000Z</time>
      </trkpt>
      <trkpt lat="43.38252" lon="-1.64928">
        <ele>8</ele>
        <time>2026-03-09T16:29:30.000Z</time>
      </trkpt>
      <trkpt lat="43.38255" lon="-1.6488">
        <ele>9</ele>
        <time>2026-03-09T16:29:36.000Z</time>
      </trkpt>
      <trkpt lat="43.38279" lon="-1.64626">
        <ele>7</ele>
        <time>2026-03-09T16:30:09.000Z</time>
      </trkpt>
      <trkpt lat="43.3828" lon="-1.64595">
        <ele>8</ele>
        <time>2026-03-09T16:30:13.000Z</time>
      </trkpt>
      <trkpt lat="43.38277" lon="-1.64488">
        <ele>10</ele>
        <time>2026-03-09T16:30:27.000Z</time>
      </trkpt>
      <trkpt lat="43.38272" lon="-1.64424">
        <ele>8</ele>
        <time>2026-03-09T16:30:35.000Z</time>
      </trkpt>
      <trkpt lat="43.38264" lon="-1.64383">
        <ele>7</ele>
        <time>2026-03-09T16:30:41.000Z</time>
      </trkpt>
      <trkpt lat="43.3825" lon="-1.64341">
        <ele>5</ele>
        <time>2026-03-09T16:30:47.000Z</time>
      </trkpt>
      <trkpt lat="43.38232" lon="-1.64309">
        <ele>5</ele>
        <time>2026-03-09T16:30:52.000Z</time>
      </trkpt>
      <trkpt lat="43.38212" lon="-1.64283">
        <ele>5</ele>
        <time>2026-03-09T16:30:57.000Z</time>
      </trkpt>
      <trkpt lat="43.38155" lon="-1.6423">
        <ele>6</ele>
        <time>2026-03-09T16:31:09.000Z</time>
      </trkpt>
      <trkpt lat="43.3812" lon="-1.64193">
        <ele>6</ele>
        <time>2026-03-09T16:31:17.000Z</time>
      </trkpt>
      <trkpt lat="43.38056" lon="-1.64058">
        <ele>9</ele>
        <time>2026-03-09T16:31:38.000Z</time>
      </trkpt>
      <trkpt lat="43.37906" lon="-1.63917">
        <ele>6</ele>
        <time>2026-03-09T16:32:10.000Z</time>
      </trkpt>
      <trkpt lat="43.37776" lon="-1.63786">
        <ele>8</ele>
        <time>2026-03-09T16:32:39.000Z</time>
      </trkpt>
      <trkpt lat="43.37759" lon="-1.63774">
        <ele>8</ele>
        <time>2026-03-09T16:32:42.000Z</time>
      </trkpt>
      <trkpt lat="43.37738" lon="-1.63772">
        <ele>8</ele>
        <time>2026-03-09T16:32:46.000Z</time>
      </trkpt>
      <trkpt lat="43.37642" lon="-1.63776">
        <ele>6</ele>
        <time>2026-03-09T16:33:03.000Z</time>
      </trkpt>
      <trkpt lat="43.37604" lon="-1.63785">
        <ele>6</ele>
        <time>2026-03-09T16:33:10.000Z</time>
      </trkpt>
      <trkpt lat="43.37541" lon="-1.63786">
        <ele>5</ele>
        <time>2026-03-09T16:33:21.000Z</time>
      </trkpt>
      <trkpt lat="43.37526" lon="-1.63781">
        <ele>5</ele>
        <time>2026-03-09T16:33:24.000Z</time>
      </trkpt>
      <trkpt lat="43.37517" lon="-1.6379">
        <ele>4</ele>
        <time>2026-03-09T16:33:26.000Z</time>
      </trkpt>
      <trkpt lat="43.3751" lon="-1.63791">
        <ele>4</ele>
        <time>2026-03-09T16:33:27.000Z</time>
      </trkpt>
      <trkpt lat="43.37445" lon="-1.63794">
        <ele>4</ele>
        <time>2026-03-09T16:33:38.000Z</time>
      </trkpt>
      <trkpt lat="43.37409" lon="-1.63788">
        <ele>4</ele>
        <time>2026-03-09T16:33:45.000Z</time>
      </trkpt>
      <trkpt lat="43.37111" lon="-1.63806">
        <ele>5</ele>
        <time>2026-03-09T16:34:38.000Z</time>
      </trkpt>
      <trkpt lat="43.37085" lon="-1.63801">
        <ele>6</ele>
        <time>2026-03-09T16:34:43.000Z</time>
      </trkpt>
      <trkpt lat="43.37067" lon="-1.63794">
        <ele>6</ele>
        <time>2026-03-09T16:34:46.000Z</time>
      </trkpt>
      <trkpt lat="43.36753" lon="-1.63597">
        <ele>7</ele>
        <time>2026-03-09T16:35:47.000Z</time>
      </trkpt>
      <trkpt lat="43.36709" lon="-1.63582">
        <ele>8</ele>
        <time>2026-03-09T16:35:55.000Z</time>
      </trkpt>
      <trkpt lat="43.36675" lon="-1.63576">
        <ele>8</ele>
        <time>2026-03-09T16:36:02.000Z</time>
      </trkpt>
      <trkpt lat="43.36638" lon="-1.63578">
        <ele>7</ele>
        <time>2026-03-09T16:36:08.000Z</time>
      </trkpt>
      <trkpt lat="43.36595" lon="-1.63589">
        <ele>5</ele>
        <time>2026-03-09T16:36:16.000Z</time>
      </trkpt>
      <trkpt lat="43.36349" lon="-1.63669">
        <ele>7</ele>
        <time>2026-03-09T16:37:01.000Z</time>
      </trkpt>
      <trkpt lat="43.36308" lon="-1.63673">
        <ele>7</ele>
        <time>2026-03-09T16:37:08.000Z</time>
      </trkpt>
      <trkpt lat="43.36277" lon="-1.63671">
        <ele>6</ele>
        <time>2026-03-09T16:37:14.000Z</time>
      </trkpt>
      <trkpt lat="43.36255" lon="-1.63666">
        <ele>6</ele>
        <time>2026-03-09T16:37:18.000Z</time>
      </trkpt>
      <trkpt lat="43.36233" lon="-1.63658">
        <ele>6</ele>
        <time>2026-03-09T16:37:22.000Z</time>
      </trkpt>
      <trkpt lat="43.36097" lon="-1.63603">
        <ele>5</ele>
        <time>2026-03-09T16:37:47.000Z</time>
      </trkpt>
      <trkpt lat="43.36075" lon="-1.63589">
        <ele>5</ele>
        <time>2026-03-09T16:37:51.000Z</time>
      </trkpt>
      <trkpt lat="43.36061" lon="-1.63577">
        <ele>5</ele>
        <time>2026-03-09T16:37:54.000Z</time>
      </trkpt>
      <trkpt lat="43.36039" lon="-1.63549">
        <ele>6</ele>
        <time>2026-03-09T16:38:00.000Z</time>
      </trkpt>
      <trkpt lat="43.36029" lon="-1.63531">
        <ele>6</ele>
        <time>2026-03-09T16:38:02.000Z</time>
      </trkpt>
      <trkpt lat="43.36014" lon="-1.63501">
        <ele>6</ele>
        <time>2026-03-09T16:38:07.000Z</time>
      </trkpt>
      <trkpt lat="43.35995" lon="-1.63453">
        <ele>8</ele>
        <time>2026-03-09T16:38:14.000Z</time>
      </trkpt>
      <trkpt lat="43.35984" lon="-1.63434">
        <ele>8</ele>
        <time>2026-03-09T16:38:17.000Z</time>
      </trkpt>
      <trkpt lat="43.35935" lon="-1.63358">
        <ele>9</ele>
        <time>2026-03-09T16:38:31.000Z</time>
      </trkpt>
      <trkpt lat="43.35921" lon="-1.63341">
        <ele>8</ele>
        <time>2026-03-09T16:38:34.000Z</time>
      </trkpt>
      <trkpt lat="43.35859" lon="-1.6328">
        <ele>9</ele>
        <time>2026-03-09T16:38:47.000Z</time>
      </trkpt>
      <trkpt lat="43.35789" lon="-1.63219">
        <ele>9</ele>
        <time>2026-03-09T16:39:02.000Z</time>
      </trkpt>
      <trkpt lat="43.3575" lon="-1.63192">
        <ele>7</ele>
        <time>2026-03-09T16:39:10.000Z</time>
      </trkpt>
      <trkpt lat="43.35673" lon="-1.63163">
        <ele>6</ele>
        <time>2026-03-09T16:39:24.000Z</time>
      </trkpt>
      <trkpt lat="43.35667" lon="-1.63163">
        <ele>6</ele>
        <time>2026-03-09T16:39:25.000Z</time>
      </trkpt>
      <trkpt lat="43.35663" lon="-1.63166">
        <ele>6</ele>
        <time>2026-03-09T16:39:26.000Z</time>
      </trkpt>
      <trkpt lat="43.35657" lon="-1.63166">
        <ele>6</ele>
        <time>2026-03-09T16:39:27.000Z</time>
      </trkpt>
      <trkpt lat="43.35638" lon="-1.63154">
        <ele>6</ele>
        <time>2026-03-09T16:39:31.000Z</time>
      </trkpt>
      <trkpt lat="43.35614" lon="-1.63148">
        <ele>5</ele>
        <time>2026-03-09T16:39:35.000Z</time>
      </trkpt>
      <trkpt lat="43.35453" lon="-1.63101">
        <ele>6</ele>
        <time>2026-03-09T16:40:04.000Z</time>
      </trkpt>
      <trkpt lat="43.35403" lon="-1.63082">
        <ele>7</ele>
        <time>2026-03-09T16:40:14.000Z</time>
      </trkpt>
      <trkpt lat="43.35386" lon="-1.63073">
        <ele>7</ele>
        <time>2026-03-09T16:40:17.000Z</time>
      </trkpt>
      <trkpt lat="43.3535" lon="-1.63044">
        <ele>7</ele>
        <time>2026-03-09T16:40:24.000Z</time>
      </trkpt>
      <trkpt lat="43.35306" lon="-1.62998">
        <ele>6</ele>
        <time>2026-03-09T16:40:34.000Z</time>
      </trkpt>
      <trkpt lat="43.35289" lon="-1.62974">
        <ele>6</ele>
        <time>2026-03-09T16:40:39.000Z</time>
      </trkpt>
      <trkpt lat="43.35268" lon="-1.62932">
        <ele>6</ele>
        <time>2026-03-09T16:40:45.000Z</time>
      </trkpt>
      <trkpt lat="43.35255" lon="-1.629">
        <ele>6</ele>
        <time>2026-03-09T16:40:50.000Z</time>
      </trkpt>
      <trkpt lat="43.35207" lon="-1.62759">
        <ele>8</ele>
        <time>2026-03-09T16:41:10.000Z</time>
      </trkpt>
      <trkpt lat="43.3519" lon="-1.62714">
        <ele>8</ele>
        <time>2026-03-09T16:41:17.000Z</time>
      </trkpt>
      <trkpt lat="43.35118" lon="-1.62528">
        <ele>12</ele>
        <time>2026-03-09T16:41:44.000Z</time>
      </trkpt>
      <trkpt lat="43.35108" lon="-1.62493">
        <ele>11</ele>
        <time>2026-03-09T16:41:49.000Z</time>
      </trkpt>
      <trkpt lat="43.35103" lon="-1.62461">
        <ele>10</ele>
        <time>2026-03-09T16:41:53.000Z</time>
      </trkpt>
      <trkpt lat="43.35103" lon="-1.62402">
        <ele>11</ele>
        <time>2026-03-09T16:42:01.000Z</time>
      </trkpt>
      <trkpt lat="43.35109" lon="-1.62334">
        <ele>10</ele>
        <time>2026-03-09T16:42:09.000Z</time>
      </trkpt>
      <trkpt lat="43.35118" lon="-1.62308">
        <ele>11</ele>
        <time>2026-03-09T16:42:13.000Z</time>
      </trkpt>
      <trkpt lat="43.35181" lon="-1.62185">
        <ele>11</ele>
        <time>2026-03-09T16:42:33.000Z</time>
      </trkpt>
      <trkpt lat="43.35201" lon="-1.62157">
        <ele>12</ele>
        <time>2026-03-09T16:42:38.000Z</time>
      </trkpt>
      <trkpt lat="43.35214" lon="-1.62143">
        <ele>12</ele>
        <time>2026-03-09T16:42:41.000Z</time>
      </trkpt>
      <trkpt lat="43.3524" lon="-1.62126">
        <ele>14</ele>
        <time>2026-03-09T16:42:46.000Z</time>
      </trkpt>
      <trkpt lat="43.35407" lon="-1.6206">
        <ele>21</ele>
        <time>2026-03-09T16:43:17.000Z</time>
      </trkpt>
      <trkpt lat="43.35432" lon="-1.62045">
        <ele>21</ele>
        <time>2026-03-09T16:43:22.000Z</time>
      </trkpt>
      <trkpt lat="43.35486" lon="-1.62001">
        <ele>18</ele>
        <time>2026-03-09T16:43:33.000Z</time>
      </trkpt>
      <trkpt lat="43.35515" lon="-1.61963">
        <ele>18</ele>
        <time>2026-03-09T16:43:40.000Z</time>
      </trkpt>
      <trkpt lat="43.35787" lon="-1.61535">
        <ele>14</ele>
        <time>2026-03-09T16:44:53.000Z</time>
      </trkpt>
      <trkpt lat="43.35815" lon="-1.61503">
        <ele>12</ele>
        <time>2026-03-09T16:45:00.000Z</time>
      </trkpt>
      <trkpt lat="43.35913" lon="-1.61419">
        <ele>16</ele>
        <time>2026-03-09T16:45:20.000Z</time>
      </trkpt>
      <trkpt lat="43.35934" lon="-1.61396">
        <ele>16</ele>
        <time>2026-03-09T16:45:25.000Z</time>
      </trkpt>
      <trkpt lat="43.36033" lon="-1.61268">
        <ele>11</ele>
        <time>2026-03-09T16:45:49.000Z</time>
      </trkpt>
      <trkpt lat="43.36051" lon="-1.61238">
        <ele>11</ele>
        <time>2026-03-09T16:45:54.000Z</time>
      </trkpt>
      <trkpt lat="43.36075" lon="-1.61188">
        <ele>12</ele>
        <time>2026-03-09T16:46:02.000Z</time>
      </trkpt>
      <trkpt lat="43.36091" lon="-1.61139">
        <ele>13</ele>
        <time>2026-03-09T16:46:09.000Z</time>
      </trkpt>
      <trkpt lat="43.36101" lon="-1.61078">
        <ele>15</ele>
        <time>2026-03-09T16:46:17.000Z</time>
      </trkpt>
      <trkpt lat="43.36105" lon="-1.61018">
        <ele>17</ele>
        <time>2026-03-09T16:46:25.000Z</time>
      </trkpt>
      <trkpt lat="43.36113" lon="-1.60838">
        <ele>16</ele>
        <time>2026-03-09T16:46:48.000Z</time>
      </trkpt>
      <trkpt lat="43.36119" lon="-1.6075">
        <ele>18</ele>
        <time>2026-03-09T16:47:00.000Z</time>
      </trkpt>
      <trkpt lat="43.36118" lon="-1.60724">
        <ele>18</ele>
        <time>2026-03-09T16:47:03.000Z</time>
      </trkpt>
      <trkpt lat="43.36104" lon="-1.60585">
        <ele>18</ele>
        <time>2026-03-09T16:47:21.000Z</time>
      </trkpt>
      <trkpt lat="43.36102" lon="-1.60551">
        <ele>17</ele>
        <time>2026-03-09T16:47:26.000Z</time>
      </trkpt>
      <trkpt lat="43.36102" lon="-1.60518">
        <ele>17</ele>
        <time>2026-03-09T16:47:30.000Z</time>
      </trkpt>
      <trkpt lat="43.36103" lon="-1.60494">
        <ele>17</ele>
        <time>2026-03-09T16:47:33.000Z</time>
      </trkpt>
      <trkpt lat="43.36109" lon="-1.60462">
        <ele>16</ele>
        <time>2026-03-09T16:47:37.000Z</time>
      </trkpt>
      <trkpt lat="43.36126" lon="-1.60409">
        <ele>15</ele>
        <time>2026-03-09T16:47:45.000Z</time>
      </trkpt>
      <trkpt lat="43.36138" lon="-1.60384">
        <ele>15</ele>
        <time>2026-03-09T16:47:49.000Z</time>
      </trkpt>
      <trkpt lat="43.36153" lon="-1.60362">
        <ele>14</ele>
        <time>2026-03-09T16:47:53.000Z</time>
      </trkpt>
      <trkpt lat="43.36173" lon="-1.60338">
        <ele>13</ele>
        <time>2026-03-09T16:47:57.000Z</time>
      </trkpt>
      <trkpt lat="43.36211" lon="-1.60302">
        <ele>16</ele>
        <time>2026-03-09T16:48:05.000Z</time>
      </trkpt>
      <trkpt lat="43.36264" lon="-1.60257">
        <ele>19</ele>
        <time>2026-03-09T16:48:17.000Z</time>
      </trkpt>
      <trkpt lat="43.36299" lon="-1.60225">
        <ele>21</ele>
        <time>2026-03-09T16:48:24.000Z</time>
      </trkpt>
      <trkpt lat="43.36316" lon="-1.60201">
        <ele>20</ele>
        <time>2026-03-09T16:48:28.000Z</time>
      </trkpt>
      <trkpt lat="43.36336" lon="-1.60166">
        <ele>16</ele>
        <time>2026-03-09T16:48:34.000Z</time>
      </trkpt>
      <trkpt lat="43.36371" lon="-1.60073">
        <ele>15</ele>
        <time>2026-03-09T16:48:48.000Z</time>
      </trkpt>
      <trkpt lat="43.36387" lon="-1.60042">
        <ele>15</ele>
        <time>2026-03-09T16:48:53.000Z</time>
      </trkpt>
      <trkpt lat="43.36404" lon="-1.60015">
        <ele>14</ele>
        <time>2026-03-09T16:48:57.000Z</time>
      </trkpt>
      <trkpt lat="43.36418" lon="-1.59996">
        <ele>13</ele>
        <time>2026-03-09T16:49:01.000Z</time>
      </trkpt>
      <trkpt lat="43.36447" lon="-1.59965">
        <ele>14</ele>
        <time>2026-03-09T16:49:07.000Z</time>
      </trkpt>
      <trkpt lat="43.36476" lon="-1.5994">
        <ele>14</ele>
        <time>2026-03-09T16:49:13.000Z</time>
      </trkpt>
      <trkpt lat="43.36533" lon="-1.59897">
        <ele>16</ele>
        <time>2026-03-09T16:49:25.000Z</time>
      </trkpt>
      <trkpt lat="43.36549" lon="-1.59873">
        <ele>17</ele>
        <time>2026-03-09T16:49:29.000Z</time>
      </trkpt>
      <trkpt lat="43.36562" lon="-1.59843">
        <ele>18</ele>
        <time>2026-03-09T16:49:34.000Z</time>
      </trkpt>
      <trkpt lat="43.36567" lon="-1.59809">
        <ele>18</ele>
        <time>2026-03-09T16:49:38.000Z</time>
      </trkpt>
      <trkpt lat="43.36588" lon="-1.59546">
        <ele>11</ele>
        <time>2026-03-09T16:50:12.000Z</time>
      </trkpt>
      <trkpt lat="43.36592" lon="-1.59482">
        <ele>9</ele>
        <time>2026-03-09T16:50:21.000Z</time>
      </trkpt>
      <trkpt lat="43.36589" lon="-1.5943">
        <ele>9</ele>
        <time>2026-03-09T16:50:27.000Z</time>
      </trkpt>
      <trkpt lat="43.36581" lon="-1.59376">
        <ele>9</ele>
        <time>2026-03-09T16:50:35.000Z</time>
      </trkpt>
      <trkpt lat="43.36482" lon="-1.59044">
        <ele>9</ele>
        <time>2026-03-09T16:51:21.000Z</time>
      </trkpt>
      <trkpt lat="43.3646" lon="-1.58976">
        <ele>11</ele>
        <time>2026-03-09T16:51:31.000Z</time>
      </trkpt>
      <trkpt lat="43.36444" lon="-1.58941">
        <ele>12</ele>
        <time>2026-03-09T16:51:36.000Z</time>
      </trkpt>
      <trkpt lat="43.36427" lon="-1.58913">
        <ele>13</ele>
        <time>2026-03-09T16:51:41.000Z</time>
      </trkpt>
      <trkpt lat="43.36402" lon="-1.58885">
        <ele>17</ele>
        <time>2026-03-09T16:51:46.000Z</time>
      </trkpt>
      <trkpt lat="43.36308" lon="-1.58801">
        <ele>19</ele>
        <time>2026-03-09T16:52:06.000Z</time>
      </trkpt>
      <trkpt lat="43.3628" lon="-1.58766">
        <ele>18</ele>
        <time>2026-03-09T16:52:13.000Z</time>
      </trkpt>
      <trkpt lat="43.36257" lon="-1.58723">
        <ele>14</ele>
        <time>2026-03-09T16:52:20.000Z</time>
      </trkpt>
      <trkpt lat="43.36164" lon="-1.58429">
        <ele>12</ele>
        <time>2026-03-09T16:53:01.000Z</time>
      </trkpt>
      <trkpt lat="43.36139" lon="-1.58363">
        <ele>12</ele>
        <time>2026-03-09T16:53:11.000Z</time>
      </trkpt>
      <trkpt lat="43.36129" lon="-1.58341">
        <ele>12</ele>
        <time>2026-03-09T16:53:14.000Z</time>
      </trkpt>
      <trkpt lat="43.36109" lon="-1.58303">
        <ele>12</ele>
        <time>2026-03-09T16:53:20.000Z</time>
      </trkpt>
      <trkpt lat="43.36003" lon="-1.58148">
        <ele>11</ele>
        <time>2026-03-09T16:53:48.000Z</time>
      </trkpt>
      <trkpt lat="43.35894" lon="-1.57993">
        <ele>11</ele>
        <time>2026-03-09T16:54:16.000Z</time>
      </trkpt>
      <trkpt lat="43.35882" lon="-1.57972">
        <ele>11</ele>
        <time>2026-03-09T16:54:19.000Z</time>
      </trkpt>
      <trkpt lat="43.35852" lon="-1.57913">
        <ele>12</ele>
        <time>2026-03-09T16:54:29.000Z</time>
      </trkpt>
      <trkpt lat="43.35838" lon="-1.57869">
        <ele>11</ele>
        <time>2026-03-09T16:54:35.000Z</time>
      </trkpt>
      <trkpt lat="43.35807" lon="-1.5772">
        <ele>12</ele>
        <time>2026-03-09T16:54:55.000Z</time>
      </trkpt>
      <trkpt lat="43.35782" lon="-1.57586">
        <ele>13</ele>
        <time>2026-03-09T16:55:13.000Z</time>
      </trkpt>
      <trkpt lat="43.35779" lon="-1.57552">
        <ele>13</ele>
        <time>2026-03-09T16:55:17.000Z</time>
      </trkpt>
      <trkpt lat="43.35779" lon="-1.57526">
        <ele>13</ele>
        <time>2026-03-09T16:55:21.000Z</time>
      </trkpt>
      <trkpt lat="43.35774" lon="-1.5748">
        <ele>13</ele>
        <time>2026-03-09T16:55:27.000Z</time>
      </trkpt>
      <trkpt lat="43.3577" lon="-1.57476">
        <ele>13</ele>
        <time>2026-03-09T16:55:28.000Z</time>
      </trkpt>
      <trkpt lat="43.35768" lon="-1.57469">
        <ele>13</ele>
        <time>2026-03-09T16:55:29.000Z</time>
      </trkpt>
      <trkpt lat="43.35771" lon="-1.57459">
        <ele>13</ele>
        <time>2026-03-09T16:55:30.000Z</time>
      </trkpt>
      <trkpt lat="43.35767" lon="-1.57433">
        <ele>13</ele>
        <time>2026-03-09T16:55:33.000Z</time>
      </trkpt>
      <trkpt lat="43.35763" lon="-1.57418">
        <ele>13</ele>
        <time>2026-03-09T16:55:35.000Z</time>
      </trkpt>
      <trkpt lat="43.35745" lon="-1.57225">
        <ele>14</ele>
        <time>2026-03-09T16:56:01.000Z</time>
      </trkpt>
      <trkpt lat="43.3574" lon="-1.57189">
        <ele>15</ele>
        <time>2026-03-09T16:56:05.000Z</time>
      </trkpt>
      <trkpt lat="43.35733" lon="-1.5716">
        <ele>15</ele>
        <time>2026-03-09T16:56:09.000Z</time>
      </trkpt>
      <trkpt lat="43.35723" lon="-1.57132">
        <ele>15</ele>
        <time>2026-03-09T16:56:13.000Z</time>
      </trkpt>
      <trkpt lat="43.35625" lon="-1.56922">
        <ele>17</ele>
        <time>2026-03-09T16:56:46.000Z</time>
      </trkpt>
      <trkpt lat="43.35597" lon="-1.56872">
        <ele>17</ele>
        <time>2026-03-09T16:56:54.000Z</time>
      </trkpt>
      <trkpt lat="43.35588" lon="-1.56851">
        <ele>17</ele>
        <time>2026-03-09T16:56:57.000Z</time>
      </trkpt>
      <trkpt lat="43.35586" lon="-1.56839">
        <ele>17</ele>
        <time>2026-03-09T16:56:59.000Z</time>
      </trkpt>
      <trkpt lat="43.35585" lon="-1.56813">
        <ele>17</ele>
        <time>2026-03-09T16:57:02.000Z</time>
      </trkpt>
      <trkpt lat="43.35589" lon="-1.56787">
        <ele>17</ele>
        <time>2026-03-09T16:57:05.000Z</time>
      </trkpt>
      <trkpt lat="43.35608" lon="-1.56729">
        <ele>18</ele>
        <time>2026-03-09T16:57:14.000Z</time>
      </trkpt>
      <trkpt lat="43.35617" lon="-1.56692">
        <ele>19</ele>
        <time>2026-03-09T16:57:19.000Z</time>
      </trkpt>
      <trkpt lat="43.35625" lon="-1.56642">
        <ele>19</ele>
        <time>2026-03-09T16:57:25.000Z</time>
      </trkpt>
      <trkpt lat="43.35624" lon="-1.56615">
        <ele>19</ele>
        <time>2026-03-09T16:57:29.000Z</time>
      </trkpt>
      <trkpt lat="43.35619" lon="-1.56612">
        <ele>19</ele>
        <time>2026-03-09T16:57:30.000Z</time>
      </trkpt>
      <trkpt lat="43.35615" lon="-1.56601">
        <ele>19</ele>
        <time>2026-03-09T16:57:31.000Z</time>
      </trkpt>
      <trkpt lat="43.35617" lon="-1.56593">
        <ele>19</ele>
        <time>2026-03-09T16:57:32.000Z</time>
      </trkpt>
      <trkpt lat="43.35621" lon="-1.56588">
        <ele>19</ele>
        <time>2026-03-09T16:57:33.000Z</time>
      </trkpt>
      <trkpt lat="43.35624" lon="-1.56587">
        <ele>19</ele>
        <time>2026-03-09T16:57:34.000Z</time>
      </trkpt>
      <trkpt lat="43.35622" lon="-1.56558">
        <ele>19</ele>
        <time>2026-03-09T16:57:38.000Z</time>
      </trkpt>
      <trkpt lat="43.35622" lon="-1.56509">
        <ele>19</ele>
        <time>2026-03-09T16:57:44.000Z</time>
      </trkpt>
      <trkpt lat="43.35616" lon="-1.56498">
        <ele>18</ele>
        <time>2026-03-09T16:57:46.000Z</time>
      </trkpt>
      <trkpt lat="43.3561" lon="-1.56265">
        <ele>18</ele>
        <time>2026-03-09T16:58:16.000Z</time>
      </trkpt>
      <trkpt lat="43.3561" lon="-1.56201">
        <ele>19</ele>
        <time>2026-03-09T16:58:24.000Z</time>
      </trkpt>
      <trkpt lat="43.35614" lon="-1.56149">
        <ele>19</ele>
        <time>2026-03-09T16:58:31.000Z</time>
      </trkpt>
      <trkpt lat="43.35618" lon="-1.56125">
        <ele>18</ele>
        <time>2026-03-09T16:58:34.000Z</time>
      </trkpt>
      <trkpt lat="43.35635" lon="-1.56094">
        <ele>18</ele>
        <time>2026-03-09T16:58:39.000Z</time>
      </trkpt>
      <trkpt lat="43.35642" lon="-1.56085">
        <ele>17</ele>
        <time>2026-03-09T16:58:41.000Z</time>
      </trkpt>
      <trkpt lat="43.35648" lon="-1.5608">
        <ele>17</ele>
        <time>2026-03-09T16:58:42.000Z</time>
      </trkpt>
      <trkpt lat="43.35642" lon="-1.56065">
        <ele>17</ele>
        <time>2026-03-09T16:58:44.000Z</time>
      </trkpt>
      <trkpt lat="43.35629" lon="-1.56039">
        <ele>16</ele>
        <time>2026-03-09T16:58:48.000Z</time>
      </trkpt>
      <trkpt lat="43.35605" lon="-1.56002">
        <ele>15</ele>
        <time>2026-03-09T16:58:55.000Z</time>
      </trkpt>
      <trkpt lat="43.35599" lon="-1.55994">
        <ele>15</ele>
        <time>2026-03-09T16:58:56.000Z</time>
      </trkpt>
      <trkpt lat="43.35597" lon="-1.55988">
        <ele>15</ele>
        <time>2026-03-09T16:58:57.000Z</time>
      </trkpt>
      <trkpt lat="43.3559" lon="-1.55958">
        <ele>15</ele>
        <time>2026-03-09T16:59:01.000Z</time>
      </trkpt>
      <trkpt lat="43.35584" lon="-1.55953">
        <ele>14</ele>
        <time>2026-03-09T16:59:03.000Z</time>
      </trkpt>
      <trkpt lat="43.35547" lon="-1.55943">
        <ele>15</ele>
        <time>2026-03-09T16:59:09.000Z</time>
      </trkpt>
      <trkpt lat="43.35481" lon="-1.55937">
        <ele>15</ele>
        <time>2026-03-09T16:59:21.000Z</time>
      </trkpt>
      <trkpt lat="43.35463" lon="-1.55919">
        <ele>16</ele>
        <time>2026-03-09T16:59:25.000Z</time>
      </trkpt>
      <trkpt lat="43.35475" lon="-1.55904">
        <ele>16</ele>
        <time>2026-03-09T16:59:28.000Z</time>
      </trkpt>
      <trkpt lat="43.35463" lon="-1.55863">
        <ele>16</ele>
        <time>2026-03-09T16:59:34.000Z</time>
      </trkpt>
      <trkpt lat="43.35448" lon="-1.55837">
        <ele>17</ele>
        <time>2026-03-09T16:59:38.000Z</time>
      </trkpt>
      <trkpt lat="43.3541" lon="-1.55801">
        <ele>17</ele>
        <time>2026-03-09T16:59:46.000Z</time>
      </trkpt>
      <trkpt lat="43.35404" lon="-1.55792">
        <ele>17</ele>
        <time>2026-03-09T16:59:48.000Z</time>
      </trkpt>
      <trkpt lat="43.35396" lon="-1.55778">
        <ele>17</ele>
        <time>2026-03-09T16:59:50.000Z</time>
      </trkpt>
      <trkpt lat="43.35363" lon="-1.55679">
        <ele>16</ele>
        <time>2026-03-09T17:00:04.000Z</time>
      </trkpt>
      <trkpt lat="43.35349" lon="-1.55613">
        <ele>18</ele>
        <time>2026-03-09T17:00:13.000Z</time>
      </trkpt>
      <trkpt lat="43.35324" lon="-1.55558">
        <ele>18</ele>
        <time>2026-03-09T17:00:21.000Z</time>
      </trkpt>
      <trkpt lat="43.35291" lon="-1.55501">
        <ele>18</ele>
        <time>2026-03-09T17:00:31.000Z</time>
      </trkpt>
      <trkpt lat="43.35284" lon="-1.55483">
        <ele>18</ele>
        <time>2026-03-09T17:00:33.000Z</time>
      </trkpt>
      <trkpt lat="43.35272" lon="-1.55424">
        <ele>18</ele>
        <time>2026-03-09T17:00:41.000Z</time>
      </trkpt>
      <trkpt lat="43.35265" lon="-1.55375">
        <ele>18</ele>
        <time>2026-03-09T17:00:48.000Z</time>
      </trkpt>
      <trkpt lat="43.35257" lon="-1.55334">
        <ele>18</ele>
        <time>2026-03-09T17:00:53.000Z</time>
      </trkpt>
      <trkpt lat="43.35247" lon="-1.55318">
        <ele>18</ele>
        <time>2026-03-09T17:00:56.000Z</time>
      </trkpt>
      <trkpt lat="43.35239" lon="-1.55309">
        <ele>18</ele>
        <time>2026-03-09T17:00:58.000Z</time>
      </trkpt>
      <trkpt lat="43.35214" lon="-1.55254">
        <ele>17</ele>
        <time>2026-03-09T17:01:06.000Z</time>
      </trkpt>
      <trkpt lat="43.35199" lon="-1.55245">
        <ele>16</ele>
        <time>2026-03-09T17:01:09.000Z</time>
      </trkpt>
      <trkpt lat="43.35104" lon="-1.55262">
        <ele>16</ele>
        <time>2026-03-09T17:01:26.000Z</time>
      </trkpt>
      <trkpt lat="43.34994" lon="-1.55258">
        <ele>17</ele>
        <time>2026-03-09T17:01:46.000Z</time>
      </trkpt>
      <trkpt lat="43.3487" lon="-1.55229">
        <ele>19</ele>
        <time>2026-03-09T17:02:08.000Z</time>
      </trkpt>
      <trkpt lat="43.34857" lon="-1.5523">
        <ele>19</ele>
        <time>2026-03-09T17:02:10.000Z</time>
      </trkpt>
      <trkpt lat="43.34847" lon="-1.55243">
        <ele>18</ele>
        <time>2026-03-09T17:02:13.000Z</time>
      </trkpt>
      <trkpt lat="43.34831" lon="-1.55248">
        <ele>18</ele>
        <time>2026-03-09T17:02:16.000Z</time>
      </trkpt>
      <trkpt lat="43.34821" lon="-1.55247">
        <ele>18</ele>
        <time>2026-03-09T17:02:18.000Z</time>
      </trkpt>
      <trkpt lat="43.34801" lon="-1.55235">
        <ele>19</ele>
        <time>2026-03-09T17:02:21.000Z</time>
      </trkpt>
      <trkpt lat="43.34597" lon="-1.55214">
        <ele>19</ele>
        <time>2026-03-09T17:02:58.000Z</time>
      </trkpt>
      <trkpt lat="43.34571" lon="-1.55205">
        <ele>19</ele>
        <time>2026-03-09T17:03:03.000Z</time>
      </trkpt>
      <trkpt lat="43.34548" lon="-1.55189">
        <ele>20</ele>
        <time>2026-03-09T17:03:07.000Z</time>
      </trkpt>
      <trkpt lat="43.3449" lon="-1.55114">
        <ele>22</ele>
        <time>2026-03-09T17:03:21.000Z</time>
      </trkpt>
      <trkpt lat="43.3434" lon="-1.5491">
        <ele>30</ele>
        <time>2026-03-09T17:03:59.000Z</time>
      </trkpt>
      <trkpt lat="43.34316" lon="-1.54886">
        <ele>30</ele>
        <time>2026-03-09T17:04:04.000Z</time>
      </trkpt>
      <trkpt lat="43.34293" lon="-1.54871">
        <ele>30</ele>
        <time>2026-03-09T17:04:09.000Z</time>
      </trkpt>
      <trkpt lat="43.34268" lon="-1.54861">
        <ele>31</ele>
        <time>2026-03-09T17:04:13.000Z</time>
      </trkpt>
      <trkpt lat="43.34239" lon="-1.54859">
        <ele>32</ele>
        <time>2026-03-09T17:04:19.000Z</time>
      </trkpt>
      <trkpt lat="43.34212" lon="-1.54863">
        <ele>33</ele>
        <time>2026-03-09T17:04:23.000Z</time>
      </trkpt>
      <trkpt lat="43.34189" lon="-1.54871">
        <ele>34</ele>
        <time>2026-03-09T17:04:28.000Z</time>
      </trkpt>
      <trkpt lat="43.33972" lon="-1.55005">
        <ele>42</ele>
        <time>2026-03-09T17:05:10.000Z</time>
      </trkpt>
      <trkpt lat="43.33917" lon="-1.55038">
        <ele>45</ele>
        <time>2026-03-09T17:05:21.000Z</time>
      </trkpt>
      <trkpt lat="43.33903" lon="-1.55043">
        <ele>44</ele>
        <time>2026-03-09T17:05:23.000Z</time>
      </trkpt>
      <trkpt lat="43.33883" lon="-1.55045">
        <ele>42</ele>
        <time>2026-03-09T17:05:27.000Z</time>
      </trkpt>
      <trkpt lat="43.33864" lon="-1.55037">
        <ele>40</ele>
        <time>2026-03-09T17:05:30.000Z</time>
      </trkpt>
      <trkpt lat="43.33759" lon="-1.54975">
        <ele>34</ele>
        <time>2026-03-09T17:05:51.000Z</time>
      </trkpt>
      <trkpt lat="43.33749" lon="-1.54969">
        <ele>33</ele>
        <time>2026-03-09T17:05:53.000Z</time>
      </trkpt>
      <trkpt lat="43.33689" lon="-1.54934">
        <ele>34</ele>
        <time>2026-03-09T17:06:04.000Z</time>
      </trkpt>
      <trkpt lat="43.33606" lon="-1.54902">
        <ele>38</ele>
        <time>2026-03-09T17:06:20.000Z</time>
      </trkpt>
      <trkpt lat="43.33531" lon="-1.54866">
        <ele>36</ele>
        <time>2026-03-09T17:06:34.000Z</time>
      </trkpt>
      <trkpt lat="43.33451" lon="-1.54835">
        <ele>35</ele>
        <time>2026-03-09T17:06:48.000Z</time>
      </trkpt>
      <trkpt lat="43.33342" lon="-1.5481">
        <ele>40</ele>
        <time>2026-03-09T17:07:08.000Z</time>
      </trkpt>
      <trkpt lat="43.33316" lon="-1.54798">
        <ele>42</ele>
        <time>2026-03-09T17:07:13.000Z</time>
      </trkpt>
      <trkpt lat="43.33226" lon="-1.54715">
        <ele>40</ele>
        <time>2026-03-09T17:07:32.000Z</time>
      </trkpt>
      <trkpt lat="43.3321" lon="-1.54694">
        <ele>39</ele>
        <time>2026-03-09T17:07:36.000Z</time>
      </trkpt>
      <trkpt lat="43.332" lon="-1.54673">
        <ele>38</ele>
        <time>2026-03-09T17:07:39.000Z</time>
      </trkpt>
      <trkpt lat="43.3317" lon="-1.54594">
        <ele>35</ele>
        <time>2026-03-09T17:07:51.000Z</time>
      </trkpt>
      <trkpt lat="43.33146" lon="-1.54555">
        <ele>34</ele>
        <time>2026-03-09T17:07:58.000Z</time>
      </trkpt>
      <trkpt lat="43.3308" lon="-1.54478">
        <ele>32</ele>
        <time>2026-03-09T17:08:13.000Z</time>
      </trkpt>
      <trkpt lat="43.33056" lon="-1.54454">
        <ele>32</ele>
        <time>2026-03-09T17:08:18.000Z</time>
      </trkpt>
      <trkpt lat="43.33034" lon="-1.54441">
        <ele>31</ele>
        <time>2026-03-09T17:08:23.000Z</time>
      </trkpt>
      <trkpt lat="43.33014" lon="-1.54435">
        <ele>31</ele>
        <time>2026-03-09T17:08:26.000Z</time>
      </trkpt>
      <trkpt lat="43.32992" lon="-1.54437">
        <ele>31</ele>
        <time>2026-03-09T17:08:30.000Z</time>
      </trkpt>
      <trkpt lat="43.32973" lon="-1.54445">
        <ele>31</ele>
        <time>2026-03-09T17:08:34.000Z</time>
      </trkpt>
      <trkpt lat="43.32897" lon="-1.54492">
        <ele>33</ele>
        <time>2026-03-09T17:08:48.000Z</time>
      </trkpt>
      <trkpt lat="43.32876" lon="-1.54504">
        <ele>34</ele>
        <time>2026-03-09T17:08:53.000Z</time>
      </trkpt>
      <trkpt lat="43.32846" lon="-1.54527">
        <ele>37</ele>
        <time>2026-03-09T17:08:59.000Z</time>
      </trkpt>
      <trkpt lat="43.32564" lon="-1.54806">
        <ele>36</ele>
        <time>2026-03-09T17:10:00.000Z</time>
      </trkpt>
      <trkpt lat="43.32463" lon="-1.54893">
        <ele>34</ele>
        <time>2026-03-09T17:10:22.000Z</time>
      </trkpt>
      <trkpt lat="43.32445" lon="-1.54904">
        <ele>34</ele>
        <time>2026-03-09T17:10:25.000Z</time>
      </trkpt>
      <trkpt lat="43.32245" lon="-1.54992">
        <ele>30</ele>
        <time>2026-03-09T17:11:03.000Z</time>
      </trkpt>
      <trkpt lat="43.32183" lon="-1.55023">
        <ele>30</ele>
        <time>2026-03-09T17:11:14.000Z</time>
      </trkpt>
      <trkpt lat="43.32153" lon="-1.55042">
        <ele>31</ele>
        <time>2026-03-09T17:11:20.000Z</time>
      </trkpt>
      <trkpt lat="43.32152" lon="-1.5505">
        <ele>31</ele>
        <time>2026-03-09T17:11:21.000Z</time>
      </trkpt>
      <trkpt lat="43.32151" lon="-1.55053">
        <ele>31</ele>
        <time>2026-03-09T17:11:22.000Z</time>
      </trkpt>
      <trkpt lat="43.32146" lon="-1.55056">
        <ele>31</ele>
        <time>2026-03-09T17:11:23.000Z</time>
      </trkpt>
      <trkpt lat="43.32143" lon="-1.55056">
        <ele>31</ele>
        <time>2026-03-09T17:11:23.000Z</time>
      </trkpt>
      <trkpt lat="43.32091" lon="-1.55274">
        <ele>33</ele>
        <time>2026-03-09T17:11:53.000Z</time>
      </trkpt>
      <trkpt lat="43.32078" lon="-1.55312">
        <ele>33</ele>
        <time>2026-03-09T17:11:58.000Z</time>
      </trkpt>
      <trkpt lat="43.32064" lon="-1.55338">
        <ele>34</ele>
        <time>2026-03-09T17:12:02.000Z</time>
      </trkpt>
      <trkpt lat="43.32054" lon="-1.5535">
        <ele>34</ele>
        <time>2026-03-09T17:12:05.000Z</time>
      </trkpt>
      <trkpt lat="43.32007" lon="-1.55395">
        <ele>35</ele>
        <time>2026-03-09T17:12:15.000Z</time>
      </trkpt>
      <trkpt lat="43.31996" lon="-1.55417">
        <ele>35</ele>
        <time>2026-03-09T17:12:18.000Z</time>
      </trkpt>
      <trkpt lat="43.3199" lon="-1.55439">
        <ele>35</ele>
        <time>2026-03-09T17:12:21.000Z</time>
      </trkpt>
      <trkpt lat="43.31962" lon="-1.55573">
        <ele>37</ele>
        <time>2026-03-09T17:12:40.000Z</time>
      </trkpt>
      <trkpt lat="43.31948" lon="-1.55631">
        <ele>40</ele>
        <time>2026-03-09T17:12:47.000Z</time>
      </trkpt>
      <trkpt lat="43.31941" lon="-1.55653">
        <ele>41</ele>
        <time>2026-03-09T17:12:51.000Z</time>
      </trkpt>
      <trkpt lat="43.3192" lon="-1.55689">
        <ele>43</ele>
        <time>2026-03-09T17:12:57.000Z</time>
      </trkpt>
      <trkpt lat="43.31864" lon="-1.55764">
        <ele>46</ele>
        <time>2026-03-09T17:13:10.000Z</time>
      </trkpt>
      <trkpt lat="43.31836" lon="-1.5581">
        <ele>46</ele>
        <time>2026-03-09T17:13:18.000Z</time>
      </trkpt>
      <trkpt lat="43.31809" lon="-1.55859">
        <ele>48</ele>
        <time>2026-03-09T17:13:26.000Z</time>
      </trkpt>
      <trkpt lat="43.31774" lon="-1.55909">
        <ele>50</ele>
        <time>2026-03-09T17:13:35.000Z</time>
      </trkpt>
      <trkpt lat="43.31763" lon="-1.55933">
        <ele>51</ele>
        <time>2026-03-09T17:13:39.000Z</time>
      </trkpt>
      <trkpt lat="43.31756" lon="-1.55967">
        <ele>52</ele>
        <time>2026-03-09T17:13:43.000Z</time>
      </trkpt>
      <trkpt lat="43.31748" lon="-1.55985">
        <ele>52</ele>
        <time>2026-03-09T17:13:46.000Z</time>
      </trkpt>
      <trkpt lat="43.31735" lon="-1.56002">
        <ele>53</ele>
        <time>2026-03-09T17:13:49.000Z</time>
      </trkpt>
      <trkpt lat="43.31662" lon="-1.56079">
        <ele>57</ele>
        <time>2026-03-09T17:14:06.000Z</time>
      </trkpt>
      <trkpt lat="43.31606" lon="-1.5614">
        <ele>54</ele>
        <time>2026-03-09T17:14:18.000Z</time>
      </trkpt>
      <trkpt lat="43.3159" lon="-1.56152">
        <ele>53</ele>
        <time>2026-03-09T17:14:22.000Z</time>
      </trkpt>
      <trkpt lat="43.31574" lon="-1.56157">
        <ele>53</ele>
        <time>2026-03-09T17:14:25.000Z</time>
      </trkpt>
      <trkpt lat="43.31559" lon="-1.56155">
        <ele>53</ele>
        <time>2026-03-09T17:14:27.000Z</time>
      </trkpt>
      <trkpt lat="43.31553" lon="-1.56153">
        <ele>52</ele>
        <time>2026-03-09T17:14:28.000Z</time>
      </trkpt>
      <trkpt lat="43.31496" lon="-1.56112">
        <ele>49</ele>
        <time>2026-03-09T17:14:40.000Z</time>
      </trkpt>
      <trkpt lat="43.31485" lon="-1.56107">
        <ele>48</ele>
        <time>2026-03-09T17:14:42.000Z</time>
      </trkpt>
      <trkpt lat="43.31477" lon="-1.56106">
        <ele>47</ele>
        <time>2026-03-09T17:14:43.000Z</time>
      </trkpt>
      <trkpt lat="43.31468" lon="-1.56113">
        <ele>46</ele>
        <time>2026-03-09T17:14:45.000Z</time>
      </trkpt>
      <trkpt lat="43.31461" lon="-1.56126">
        <ele>46</ele>
        <time>2026-03-09T17:14:47.000Z</time>
      </trkpt>
      <trkpt lat="43.31458" lon="-1.56134">
        <ele>46</ele>
        <time>2026-03-09T17:14:48.000Z</time>
      </trkpt>
      <trkpt lat="43.31448" lon="-1.56194">
        <ele>46</ele>
        <time>2026-03-09T17:14:56.000Z</time>
      </trkpt>
      <trkpt lat="43.31439" lon="-1.56228">
        <ele>45</ele>
        <time>2026-03-09T17:15:01.000Z</time>
      </trkpt>
      <trkpt lat="43.31429" lon="-1.56255">
        <ele>44</ele>
        <time>2026-03-09T17:15:05.000Z</time>
      </trkpt>
      <trkpt lat="43.31417" lon="-1.56278">
        <ele>44</ele>
        <time>2026-03-09T17:15:09.000Z</time>
      </trkpt>
      <trkpt lat="43.31401" lon="-1.56299">
        <ele>44</ele>
        <time>2026-03-09T17:15:13.000Z</time>
      </trkpt>
      <trkpt lat="43.31391" lon="-1.56308">
        <ele>44</ele>
        <time>2026-03-09T17:15:15.000Z</time>
      </trkpt>
      <trkpt lat="43.31331" lon="-1.56357">
        <ele>44</ele>
        <time>2026-03-09T17:15:27.000Z</time>
      </trkpt>
      <trkpt lat="43.31316" lon="-1.56371">
        <ele>45</ele>
        <time>2026-03-09T17:15:30.000Z</time>
      </trkpt>
      <trkpt lat="43.31305" lon="-1.56386">
        <ele>46</ele>
        <time>2026-03-09T17:15:33.000Z</time>
      </trkpt>
      <trkpt lat="43.31264" lon="-1.56459">
        <ele>47</ele>
        <time>2026-03-09T17:15:45.000Z</time>
      </trkpt>
      <trkpt lat="43.31245" lon="-1.56484">
        <ele>47</ele>
        <time>2026-03-09T17:15:50.000Z</time>
      </trkpt>
      <trkpt lat="43.31226" lon="-1.56498">
        <ele>47</ele>
        <time>2026-03-09T17:15:54.000Z</time>
      </trkpt>
      <trkpt lat="43.31081" lon="-1.56585">
        <ele>47</ele>
        <time>2026-03-09T17:16:22.000Z</time>
      </trkpt>
      <trkpt lat="43.3107" lon="-1.56555">
        <ele>44</ele>
        <time>2026-03-09T17:16:26.000Z</time>
      </trkpt>
      <trkpt lat="43.31045" lon="-1.56502">
        <ele>42</ele>
        <time>2026-03-09T17:16:34.000Z</time>
      </trkpt>
      <trkpt lat="43.3107" lon="-1.56555">
        <ele>44</ele>
        <time>2026-03-09T17:16:42.000Z</time>
      </trkpt>
      <trkpt lat="43.31081" lon="-1.56585">
        <ele>47</ele>
        <time>2026-03-09T17:16:47.000Z</time>
      </trkpt>
      <trkpt lat="43.31059" lon="-1.56599">
        <ele>47</ele>
        <time>2026-03-09T17:16:51.000Z</time>
      </trkpt>
      <trkpt lat="43.31033" lon="-1.56626">
        <ele>48</ele>
        <time>2026-03-09T17:16:57.000Z</time>
      </trkpt>
      <trkpt lat="43.30981" lon="-1.56719">
        <ele>50</ele>
        <time>2026-03-09T17:17:12.000Z</time>
      </trkpt>
      <trkpt lat="43.30953" lon="-1.56764">
        <ele>49</ele>
        <time>2026-03-09T17:17:20.000Z</time>
      </trkpt>
      <trkpt lat="43.30947" lon="-1.56775">
        <ele>49</ele>
        <time>2026-03-09T17:17:21.000Z</time>
      </trkpt>
      <trkpt lat="43.3094" lon="-1.56798">
        <ele>49</ele>
        <time>2026-03-09T17:17:25.000Z</time>
      </trkpt>
      <trkpt lat="43.30918" lon="-1.56887">
        <ele>50</ele>
        <time>2026-03-09T17:17:37.000Z</time>
      </trkpt>
      <trkpt lat="43.30918" lon="-1.56908">
        <ele>51</ele>
        <time>2026-03-09T17:17:40.000Z</time>
      </trkpt>
      <trkpt lat="43.30921" lon="-1.56933">
        <ele>51</ele>
        <time>2026-03-09T17:17:43.000Z</time>
      </trkpt>
      <trkpt lat="43.30933" lon="-1.56976">
        <ele>50</ele>
        <time>2026-03-09T17:17:49.000Z</time>
      </trkpt>
      <trkpt lat="43.30952" lon="-1.57024">
        <ele>50</ele>
        <time>2026-03-09T17:17:56.000Z</time>
      </trkpt>
      <trkpt lat="43.30978" lon="-1.57064">
        <ele>50</ele>
        <time>2026-03-09T17:18:03.000Z</time>
      </trkpt>
      <trkpt lat="43.30984" lon="-1.57075">
        <ele>50</ele>
        <time>2026-03-09T17:18:05.000Z</time>
      </trkpt>
      <trkpt lat="43.30988" lon="-1.57086">
        <ele>49</ele>
        <time>2026-03-09T17:18:06.000Z</time>
      </trkpt>
      <trkpt lat="43.30989" lon="-1.57111">
        <ele>49</ele>
        <time>2026-03-09T17:18:09.000Z</time>
      </trkpt>
      <trkpt lat="43.30987" lon="-1.57138">
        <ele>48</ele>
        <time>2026-03-09T17:18:13.000Z</time>
      </trkpt>
      <trkpt lat="43.3098" lon="-1.57165">
        <ele>47</ele>
        <time>2026-03-09T17:18:17.000Z</time>
      </trkpt>
      <trkpt lat="43.30968" lon="-1.57201">
        <ele>47</ele>
        <time>2026-03-09T17:18:22.000Z</time>
      </trkpt>
      <trkpt lat="43.30967" lon="-1.57219">
        <ele>47</ele>
        <time>2026-03-09T17:18:24.000Z</time>
      </trkpt>
      <trkpt lat="43.30968" lon="-1.57222">
        <ele>47</ele>
        <time>2026-03-09T17:18:25.000Z</time>
      </trkpt>
      <trkpt lat="43.30966" lon="-1.57231">
        <ele>47</ele>
        <time>2026-03-09T17:18:26.000Z</time>
      </trkpt>
      <trkpt lat="43.30959" lon="-1.57235">
        <ele>47</ele>
        <time>2026-03-09T17:18:27.000Z</time>
      </trkpt>
      <trkpt lat="43.30956" lon="-1.57234">
        <ele>47</ele>
        <time>2026-03-09T17:18:28.000Z</time>
      </trkpt>
      <trkpt lat="43.30882" lon="-1.57267">
        <ele>48</ele>
        <time>2026-03-09T17:18:42.000Z</time>
      </trkpt>
      <trkpt lat="43.30864" lon="-1.57271">
        <ele>48</ele>
        <time>2026-03-09T17:18:45.000Z</time>
      </trkpt>
      <trkpt lat="43.30792" lon="-1.57267">
        <ele>48</ele>
        <time>2026-03-09T17:18:58.000Z</time>
      </trkpt>
      <trkpt lat="43.30782" lon="-1.57268">
        <ele>48</ele>
        <time>2026-03-09T17:18:59.000Z</time>
      </trkpt>
      <trkpt lat="43.30747" lon="-1.57272">
        <ele>48</ele>
        <time>2026-03-09T17:19:06.000Z</time>
      </trkpt>
      <trkpt lat="43.30732" lon="-1.57272">
        <ele>47</ele>
        <time>2026-03-09T17:19:08.000Z</time>
      </trkpt>
      <trkpt lat="43.30718" lon="-1.57268">
        <ele>47</ele>
        <time>2026-03-09T17:19:11.000Z</time>
      </trkpt>
      <trkpt lat="43.30667" lon="-1.57243">
        <ele>45</ele>
        <time>2026-03-09T17:19:20.000Z</time>
      </trkpt>
      <trkpt lat="43.30646" lon="-1.57239">
        <ele>45</ele>
        <time>2026-03-09T17:19:24.000Z</time>
      </trkpt>
      <trkpt lat="43.30596" lon="-1.57239">
        <ele>45</ele>
        <time>2026-03-09T17:19:33.000Z</time>
      </trkpt>
      <trkpt lat="43.30576" lon="-1.57247">
        <ele>45</ele>
        <time>2026-03-09T17:19:37.000Z</time>
      </trkpt>
      <trkpt lat="43.30509" lon="-1.57281">
        <ele>49</ele>
        <time>2026-03-09T17:19:50.000Z</time>
      </trkpt>
      <trkpt lat="43.30479" lon="-1.57306">
        <ele>50</ele>
        <time>2026-03-09T17:19:56.000Z</time>
      </trkpt>
      <trkpt lat="43.30416" lon="-1.57342">
        <ele>48</ele>
        <time>2026-03-09T17:20:08.000Z</time>
      </trkpt>
      <trkpt lat="43.30399" lon="-1.57356">
        <ele>50</ele>
        <time>2026-03-09T17:20:11.000Z</time>
      </trkpt>
      <trkpt lat="43.30367" lon="-1.57388">
        <ele>52</ele>
        <time>2026-03-09T17:20:19.000Z</time>
      </trkpt>
      <trkpt lat="43.30329" lon="-1.57434">
        <ele>53</ele>
        <time>2026-03-09T17:20:28.000Z</time>
      </trkpt>
      <trkpt lat="43.30313" lon="-1.57448">
        <ele>53</ele>
        <time>2026-03-09T17:20:31.000Z</time>
      </trkpt>
      <trkpt lat="43.30303" lon="-1.57455">
        <ele>53</ele>
        <time>2026-03-09T17:20:33.000Z</time>
      </trkpt>
      <trkpt lat="43.30267" lon="-1.57461">
        <ele>51</ele>
        <time>2026-03-09T17:20:39.000Z</time>
      </trkpt>
      <trkpt lat="43.30252" lon="-1.57461">
        <ele>50</ele>
        <time>2026-03-09T17:20:42.000Z</time>
      </trkpt>
      <trkpt lat="43.30223" lon="-1.57458">
        <ele>55</ele>
        <time>2026-03-09T17:20:47.000Z</time>
      </trkpt>
      <trkpt lat="43.30215" lon="-1.57454">
        <ele>56</ele>
        <time>2026-03-09T17:20:49.000Z</time>
      </trkpt>
      <trkpt lat="43.3021" lon="-1.57449">
        <ele>56</ele>
        <time>2026-03-09T17:20:50.000Z</time>
      </trkpt>
      <trkpt lat="43.30176" lon="-1.57403">
        <ele>54</ele>
        <time>2026-03-09T17:20:58.000Z</time>
      </trkpt>
      <trkpt lat="43.30167" lon="-1.57388">
        <ele>53</ele>
        <time>2026-03-09T17:21:01.000Z</time>
      </trkpt>
      <trkpt lat="43.30127" lon="-1.57309">
        <ele>53</ele>
        <time>2026-03-09T17:21:13.000Z</time>
      </trkpt>
      <trkpt lat="43.30114" lon="-1.57292">
        <ele>53</ele>
        <time>2026-03-09T17:21:16.000Z</time>
      </trkpt>
      <trkpt lat="43.30077" lon="-1.57259">
        <ele>51</ele>
        <time>2026-03-09T17:21:24.000Z</time>
      </trkpt>
      <trkpt lat="43.30046" lon="-1.57219">
        <ele>52</ele>
        <time>2026-03-09T17:21:32.000Z</time>
      </trkpt>
      <trkpt lat="43.30018" lon="-1.57189">
        <ele>52</ele>
        <time>2026-03-09T17:21:38.000Z</time>
      </trkpt>
      <trkpt lat="43.29996" lon="-1.57171">
        <ele>50</ele>
        <time>2026-03-09T17:21:43.000Z</time>
      </trkpt>
      <trkpt lat="43.29977" lon="-1.57164">
        <ele>50</ele>
        <time>2026-03-09T17:21:46.000Z</time>
      </trkpt>
      <trkpt lat="43.29956" lon="-1.57166">
        <ele>51</ele>
        <time>2026-03-09T17:21:50.000Z</time>
      </trkpt>
      <trkpt lat="43.29896" lon="-1.57202">
        <ele>56</ele>
        <time>2026-03-09T17:22:02.000Z</time>
      </trkpt>
      <trkpt lat="43.29866" lon="-1.5721">
        <ele>56</ele>
        <time>2026-03-09T17:22:07.000Z</time>
      </trkpt>
      <trkpt lat="43.29853" lon="-1.57218">
        <ele>56</ele>
        <time>2026-03-09T17:22:10.000Z</time>
      </trkpt>
      <trkpt lat="43.29844" lon="-1.57232">
        <ele>56</ele>
        <time>2026-03-09T17:22:12.000Z</time>
      </trkpt>
      <trkpt lat="43.29835" lon="-1.57267">
        <ele>57</ele>
        <time>2026-03-09T17:22:17.000Z</time>
      </trkpt>
      <trkpt lat="43.29828" lon="-1.57283">
        <ele>57</ele>
        <time>2026-03-09T17:22:19.000Z</time>
      </trkpt>
      <trkpt lat="43.29812" lon="-1.57304">
        <ele>57</ele>
        <time>2026-03-09T17:22:23.000Z</time>
      </trkpt>
      <trkpt lat="43.29723" lon="-1.57347">
        <ele>55</ele>
        <time>2026-03-09T17:22:40.000Z</time>
      </trkpt>
      <trkpt lat="43.29634" lon="-1.57366">
        <ele>56</ele>
        <time>2026-03-09T17:22:56.000Z</time>
      </trkpt>
      <trkpt lat="43.29611" lon="-1.57386">
        <ele>56</ele>
        <time>2026-03-09T17:23:01.000Z</time>
      </trkpt>
      <trkpt lat="43.29566" lon="-1.57447">
        <ele>56</ele>
        <time>2026-03-09T17:23:12.000Z</time>
      </trkpt>
      <trkpt lat="43.29543" lon="-1.57489">
        <ele>57</ele>
        <time>2026-03-09T17:23:19.000Z</time>
      </trkpt>
      <trkpt lat="43.29496" lon="-1.57602">
        <ele>58</ele>
        <time>2026-03-09T17:23:36.000Z</time>
      </trkpt>
      <trkpt lat="43.29479" lon="-1.57628">
        <ele>59</ele>
        <time>2026-03-09T17:23:40.000Z</time>
      </trkpt>
      <trkpt lat="43.29395" lon="-1.5772">
        <ele>65</ele>
        <time>2026-03-09T17:23:59.000Z</time>
      </trkpt>
      <trkpt lat="43.29344" lon="-1.5777">
        <ele>67</ele>
        <time>2026-03-09T17:24:11.000Z</time>
      </trkpt>
      <trkpt lat="43.29299" lon="-1.57811">
        <ele>68</ele>
        <time>2026-03-09T17:24:20.000Z</time>
      </trkpt>
      <trkpt lat="43.29245" lon="-1.57844">
        <ele>66</ele>
        <time>2026-03-09T17:24:31.000Z</time>
      </trkpt>
      <trkpt lat="43.29177" lon="-1.57898">
        <ele>65</ele>
        <time>2026-03-09T17:24:45.000Z</time>
      </trkpt>
      <trkpt lat="43.29157" lon="-1.57909">
        <ele>63</ele>
        <time>2026-03-09T17:24:49.000Z</time>
      </trkpt>
      <trkpt lat="43.29048" lon="-1.57926">
        <ele>65</ele>
        <time>2026-03-09T17:25:08.000Z</time>
      </trkpt>
      <trkpt lat="43.29031" lon="-1.57936">
        <ele>65</ele>
        <time>2026-03-09T17:25:11.000Z</time>
      </trkpt>
      <trkpt lat="43.28885" lon="-1.58043">
        <ele>69</ele>
        <time>2026-03-09T17:25:41.000Z</time>
      </trkpt>
      <trkpt lat="43.28851" lon="-1.58062">
        <ele>70</ele>
        <time>2026-03-09T17:25:47.000Z</time>
      </trkpt>
      <trkpt lat="43.28784" lon="-1.58093">
        <ele>72</ele>
        <time>2026-03-09T17:26:00.000Z</time>
      </trkpt>
      <trkpt lat="43.28737" lon="-1.58121">
        <ele>74</ele>
        <time>2026-03-09T17:26:09.000Z</time>
      </trkpt>
      <trkpt lat="43.28706" lon="-1.58158">
        <ele>75</ele>
        <time>2026-03-09T17:26:16.000Z</time>
      </trkpt>
      <trkpt lat="43.28648" lon="-1.58243">
        <ele>77</ele>
        <time>2026-03-09T17:26:31.000Z</time>
      </trkpt>
      <trkpt lat="43.28527" lon="-1.58436">
        <ele>76</ele>
        <time>2026-03-09T17:27:04.000Z</time>
      </trkpt>
      <trkpt lat="43.2841" lon="-1.58664">
        <ele>84</ele>
        <time>2026-03-09T17:27:40.000Z</time>
      </trkpt>
      <trkpt lat="43.28355" lon="-1.58791">
        <ele>84</ele>
        <time>2026-03-09T17:28:00.000Z</time>
      </trkpt>
      <trkpt lat="43.2834" lon="-1.58823">
        <ele>83</ele>
        <time>2026-03-09T17:28:05.000Z</time>
      </trkpt>
      <trkpt lat="43.28283" lon="-1.58918">
        <ele>85</ele>
        <time>2026-03-09T17:28:21.000Z</time>
      </trkpt>
      <trkpt lat="43.28237" lon="-1.59004">
        <ele>89</ele>
        <time>2026-03-09T17:28:34.000Z</time>
      </trkpt>
      <trkpt lat="43.28173" lon="-1.59115">
        <ele>90</ele>
        <time>2026-03-09T17:28:53.000Z</time>
      </trkpt>
      <trkpt lat="43.28163" lon="-1.59143">
        <ele>91</ele>
        <time>2026-03-09T17:28:57.000Z</time>
      </trkpt>
      <trkpt lat="43.2816" lon="-1.59158">
        <ele>92</ele>
        <time>2026-03-09T17:28:59.000Z</time>
      </trkpt>
      <trkpt lat="43.28158" lon="-1.59236">
        <ele>96</ele>
        <time>2026-03-09T17:29:09.000Z</time>
      </trkpt>
      <trkpt lat="43.28154" lon="-1.5926">
        <ele>97</ele>
        <time>2026-03-09T17:29:12.000Z</time>
      </trkpt>
      <trkpt lat="43.28141" lon="-1.59292">
        <ele>99</ele>
        <time>2026-03-09T17:29:17.000Z</time>
      </trkpt>
      <trkpt lat="43.28088" lon="-1.59396">
        <ele>96</ele>
        <time>2026-03-09T17:29:33.000Z</time>
      </trkpt>
      <trkpt lat="43.28029" lon="-1.59479">
        <ele>100</ele>
        <time>2026-03-09T17:29:48.000Z</time>
      </trkpt>
      <trkpt lat="43.27976" lon="-1.5956">
        <ele>108</ele>
        <time>2026-03-09T17:30:02.000Z</time>
      </trkpt>
      <trkpt lat="43.27929" lon="-1.59614">
        <ele>112</ele>
        <time>2026-03-09T17:30:13.000Z</time>
      </trkpt>
      <trkpt lat="43.27925" lon="-1.59631">
        <ele>112</ele>
        <time>2026-03-09T17:30:16.000Z</time>
      </trkpt>
      <trkpt lat="43.27926" lon="-1.59668">
        <ele>111</ele>
        <time>2026-03-09T17:30:20.000Z</time>
      </trkpt>
      <trkpt lat="43.27932" lon="-1.5972">
        <ele>109</ele>
        <time>2026-03-09T17:30:27.000Z</time>
      </trkpt>
      <trkpt lat="43.27936" lon="-1.598">
        <ele>108</ele>
        <time>2026-03-09T17:30:38.000Z</time>
      </trkpt>
      <trkpt lat="43.27933" lon="-1.5989">
        <ele>109</ele>
        <time>2026-03-09T17:30:49.000Z</time>
      </trkpt>
      <trkpt lat="43.27934" lon="-1.59924">
        <ele>111</ele>
        <time>2026-03-09T17:30:54.000Z</time>
      </trkpt>
      <trkpt lat="43.27939" lon="-1.59981">
        <ele>114</ele>
        <time>2026-03-09T17:31:01.000Z</time>
      </trkpt>
      <trkpt lat="43.27952" lon="-1.60018">
        <ele>116</ele>
        <time>2026-03-09T17:31:06.000Z</time>
      </trkpt>
      <trkpt lat="43.27956" lon="-1.60039">
        <ele>117</ele>
        <time>2026-03-09T17:31:09.000Z</time>
      </trkpt>
      <trkpt lat="43.27955" lon="-1.60085">
        <ele>119</ele>
        <time>2026-03-09T17:31:15.000Z</time>
      </trkpt>
      <trkpt lat="43.27948" lon="-1.60145">
        <ele>122</ele>
        <time>2026-03-09T17:31:23.000Z</time>
      </trkpt>
      <trkpt lat="43.27943" lon="-1.60176">
        <ele>123</ele>
        <time>2026-03-09T17:31:27.000Z</time>
      </trkpt>
      <trkpt lat="43.27936" lon="-1.60191">
        <ele>123</ele>
        <time>2026-03-09T17:31:29.000Z</time>
      </trkpt>
      <trkpt lat="43.27925" lon="-1.60201">
        <ele>121</ele>
        <time>2026-03-09T17:31:32.000Z</time>
      </trkpt>
      <trkpt lat="43.27914" lon="-1.60201">
        <ele>120</ele>
        <time>2026-03-09T17:31:34.000Z</time>
      </trkpt>
      <trkpt lat="43.2785" lon="-1.60192">
        <ele>123</ele>
        <time>2026-03-09T17:31:45.000Z</time>
      </trkpt>
      <trkpt lat="43.27835" lon="-1.60192">
        <ele>124</ele>
        <time>2026-03-09T17:31:48.000Z</time>
      </trkpt>
      <trkpt lat="43.27785" lon="-1.60223">
        <ele>132</ele>
        <time>2026-03-09T17:31:58.000Z</time>
      </trkpt>
      <trkpt lat="43.27757" lon="-1.60233">
        <ele>136</ele>
        <time>2026-03-09T17:32:03.000Z</time>
      </trkpt>
      <trkpt lat="43.27708" lon="-1.60237">
        <ele>137</ele>
        <time>2026-03-09T17:32:12.000Z</time>
      </trkpt>
      <trkpt lat="43.27689" lon="-1.60244">
        <ele>137</ele>
        <time>2026-03-09T17:32:15.000Z</time>
      </trkpt>
      <trkpt lat="43.27675" lon="-1.60254">
        <ele>138</ele>
        <time>2026-03-09T17:32:18.000Z</time>
      </trkpt>
      <trkpt lat="43.27652" lon="-1.60278">
        <ele>142</ele>
        <time>2026-03-09T17:32:23.000Z</time>
      </trkpt>
      <trkpt lat="43.27639" lon="-1.60288">
        <ele>142</ele>
        <time>2026-03-09T17:32:26.000Z</time>
      </trkpt>
      <trkpt lat="43.276" lon="-1.60299">
        <ele>140</ele>
        <time>2026-03-09T17:32:33.000Z</time>
      </trkpt>
      <trkpt lat="43.27591" lon="-1.60307">
        <ele>139</ele>
        <time>2026-03-09T17:32:35.000Z</time>
      </trkpt>
      <trkpt lat="43.27583" lon="-1.60325">
        <ele>140</ele>
        <time>2026-03-09T17:32:37.000Z</time>
      </trkpt>
      <trkpt lat="43.27575" lon="-1.60365">
        <ele>144</ele>
        <time>2026-03-09T17:32:43.000Z</time>
      </trkpt>
      <trkpt lat="43.27574" lon="-1.60392">
        <ele>146</ele>
        <time>2026-03-09T17:32:46.000Z</time>
      </trkpt>
      <trkpt lat="43.27579" lon="-1.60423">
        <ele>148</ele>
        <time>2026-03-09T17:32:50.000Z</time>
      </trkpt>
      <trkpt lat="43.2759" lon="-1.60469">
        <ele>150</ele>
        <time>2026-03-09T17:32:57.000Z</time>
      </trkpt>
      <trkpt lat="43.2759" lon="-1.60492">
        <ele>151</ele>
        <time>2026-03-09T17:33:00.000Z</time>
      </trkpt>
      <trkpt lat="43.27588" lon="-1.60563">
        <ele>156</ele>
        <time>2026-03-09T17:33:09.000Z</time>
      </trkpt>
      <trkpt lat="43.2759" lon="-1.60594">
        <ele>161</ele>
        <time>2026-03-09T17:33:13.000Z</time>
      </trkpt>
      <trkpt lat="43.27585" lon="-1.60601">
        <ele>161</ele>
        <time>2026-03-09T17:33:14.000Z</time>
      </trkpt>
      <trkpt lat="43.27552" lon="-1.60606">
        <ele>166</ele>
        <time>2026-03-09T17:33:20.000Z</time>
      </trkpt>
      <trkpt lat="43.2754" lon="-1.60603">
        <ele>168</ele>
        <time>2026-03-09T17:33:22.000Z</time>
      </trkpt>
      <trkpt lat="43.27534" lon="-1.60596">
        <ele>167</ele>
        <time>2026-03-09T17:33:24.000Z</time>
      </trkpt>
      <trkpt lat="43.27529" lon="-1.60582">
        <ele>165</ele>
        <time>2026-03-09T17:33:26.000Z</time>
      </trkpt>
      <trkpt lat="43.27526" lon="-1.60558">
        <ele>164</ele>
        <time>2026-03-09T17:33:29.000Z</time>
      </trkpt>
      <trkpt lat="43.27529" lon="-1.60514">
        <ele>160</ele>
        <time>2026-03-09T17:33:34.000Z</time>
      </trkpt>
      <trkpt lat="43.27523" lon="-1.60479">
        <ele>159</ele>
        <time>2026-03-09T17:33:39.000Z</time>
      </trkpt>
      <trkpt lat="43.27509" lon="-1.60446">
        <ele>161</ele>
        <time>2026-03-09T17:33:44.000Z</time>
      </trkpt>
      <trkpt lat="43.27496" lon="-1.60419">
        <ele>162</ele>
        <time>2026-03-09T17:33:48.000Z</time>
      </trkpt>
      <trkpt lat="43.27458" lon="-1.60373">
        <ele>161</ele>
        <time>2026-03-09T17:33:57.000Z</time>
      </trkpt>
      <trkpt lat="43.27451" lon="-1.60372">
        <ele>162</ele>
        <time>2026-03-09T17:33:59.000Z</time>
      </trkpt>
      <trkpt lat="43.2741" lon="-1.60379">
        <ele>169</ele>
        <time>2026-03-09T17:34:06.000Z</time>
      </trkpt>
      <trkpt lat="43.27373" lon="-1.60365">
        <ele>167</ele>
        <time>2026-03-09T17:34:13.000Z</time>
      </trkpt>
      <trkpt lat="43.27351" lon="-1.60366">
        <ele>168</ele>
        <time>2026-03-09T17:34:17.000Z</time>
      </trkpt>
      <trkpt lat="43.27324" lon="-1.60379">
        <ele>172</ele>
        <time>2026-03-09T17:34:22.000Z</time>
      </trkpt>
      <trkpt lat="43.27304" lon="-1.60381">
        <ele>174</ele>
        <time>2026-03-09T17:34:25.000Z</time>
      </trkpt>
      <trkpt lat="43.27279" lon="-1.6039">
        <ele>178</ele>
        <time>2026-03-09T17:34:30.000Z</time>
      </trkpt>
      <trkpt lat="43.27264" lon="-1.60392">
        <ele>180</ele>
        <time>2026-03-09T17:34:33.000Z</time>
      </trkpt>
      <trkpt lat="43.27236" lon="-1.60385">
        <ele>180</ele>
        <time>2026-03-09T17:34:38.000Z</time>
      </trkpt>
      <trkpt lat="43.27227" lon="-1.60386">
        <ele>181</ele>
        <time>2026-03-09T17:34:39.000Z</time>
      </trkpt>
      <trkpt lat="43.27221" lon="-1.60389">
        <ele>182</ele>
        <time>2026-03-09T17:34:40.000Z</time>
      </trkpt>
      <trkpt lat="43.27198" lon="-1.6041">
        <ele>189</ele>
        <time>2026-03-09T17:34:45.000Z</time>
      </trkpt>
      <trkpt lat="43.2714" lon="-1.60422">
        <ele>195</ele>
        <time>2026-03-09T17:34:56.000Z</time>
      </trkpt>
      <trkpt lat="43.27108" lon="-1.60435">
        <ele>200</ele>
        <time>2026-03-09T17:35:02.000Z</time>
      </trkpt>
      <trkpt lat="43.27096" lon="-1.6043">
        <ele>199</ele>
        <time>2026-03-09T17:35:04.000Z</time>
      </trkpt>
      <trkpt lat="43.27082" lon="-1.60419">
        <ele>197</ele>
        <time>2026-03-09T17:35:07.000Z</time>
      </trkpt>
      <trkpt lat="43.27061" lon="-1.60411">
        <ele>194</ele>
        <time>2026-03-09T17:35:11.000Z</time>
      </trkpt>
      <trkpt lat="43.27049" lon="-1.60409">
        <ele>193</ele>
        <time>2026-03-09T17:35:13.000Z</time>
      </trkpt>
      <trkpt lat="43.27028" lon="-1.60412">
        <ele>193</ele>
        <time>2026-03-09T17:35:17.000Z</time>
      </trkpt>
      <trkpt lat="43.2702" lon="-1.60418">
        <ele>193</ele>
        <time>2026-03-09T17:35:18.000Z</time>
      </trkpt>
      <trkpt lat="43.2701" lon="-1.60428">
        <ele>195</ele>
        <time>2026-03-09T17:35:20.000Z</time>
      </trkpt>
      <trkpt lat="43.26999" lon="-1.60445">
        <ele>199</ele>
        <time>2026-03-09T17:35:23.000Z</time>
      </trkpt>
      <trkpt lat="43.26972" lon="-1.60476">
        <ele>205</ele>
        <time>2026-03-09T17:35:30.000Z</time>
      </trkpt>
      <trkpt lat="43.26897" lon="-1.60549">
        <ele>218</ele>
        <time>2026-03-09T17:35:46.000Z</time>
      </trkpt>
      <trkpt lat="43.26877" lon="-1.60578">
        <ele>224</ele>
        <time>2026-03-09T17:35:51.000Z</time>
      </trkpt>
      <trkpt lat="43.26828" lon="-1.60618">
        <ele>232</ele>
        <time>2026-03-09T17:36:01.000Z</time>
      </trkpt>
      <trkpt lat="43.26823" lon="-1.60617">
        <ele>233</ele>
        <time>2026-03-09T17:36:02.000Z</time>
      </trkpt>
      <trkpt lat="43.26821" lon="-1.60613">
        <ele>232</ele>
        <time>2026-03-09T17:36:03.000Z</time>
      </trkpt>
      <trkpt lat="43.26821" lon="-1.60606">
        <ele>231</ele>
        <time>2026-03-09T17:36:04.000Z</time>
      </trkpt>
      <trkpt lat="43.2686" lon="-1.60521">
        <ele>218</ele>
        <time>2026-03-09T17:36:17.000Z</time>
      </trkpt>
      <trkpt lat="43.26874" lon="-1.60475">
        <ele>210</ele>
        <time>2026-03-09T17:36:23.000Z</time>
      </trkpt>
      <trkpt lat="43.26877" lon="-1.60453">
        <ele>206</ele>
        <time>2026-03-09T17:36:26.000Z</time>
      </trkpt>
      <trkpt lat="43.26877" lon="-1.6044">
        <ele>204</ele>
        <time>2026-03-09T17:36:28.000Z</time>
      </trkpt>
      <trkpt lat="43.26875" lon="-1.60433">
        <ele>204</ele>
        <time>2026-03-09T17:36:29.000Z</time>
      </trkpt>
      <trkpt lat="43.2687" lon="-1.60427">
        <ele>205</ele>
        <time>2026-03-09T17:36:30.000Z</time>
      </trkpt>
      <trkpt lat="43.2686" lon="-1.60423">
        <ele>206</ele>
        <time>2026-03-09T17:36:32.000Z</time>
      </trkpt>
      <trkpt lat="43.26847" lon="-1.60425">
        <ele>210</ele>
        <time>2026-03-09T17:36:34.000Z</time>
      </trkpt>
      <trkpt lat="43.26811" lon="-1.60435">
        <ele>217</ele>
        <time>2026-03-09T17:36:41.000Z</time>
      </trkpt>
      <trkpt lat="43.26771" lon="-1.60448">
        <ele>223</ele>
        <time>2026-03-09T17:36:48.000Z</time>
      </trkpt>
      <trkpt lat="43.26743" lon="-1.60463">
        <ele>229</ele>
        <time>2026-03-09T17:36:53.000Z</time>
      </trkpt>
      <trkpt lat="43.26723" lon="-1.60478">
        <ele>233</ele>
        <time>2026-03-09T17:36:57.000Z</time>
      </trkpt>
      <trkpt lat="43.26712" lon="-1.60489">
        <ele>235</ele>
        <time>2026-03-09T17:37:00.000Z</time>
      </trkpt>
      <trkpt lat="43.267" lon="-1.60492">
        <ele>236</ele>
        <time>2026-03-09T17:37:02.000Z</time>
      </trkpt>
      <trkpt lat="43.26677" lon="-1.60492">
        <ele>236</ele>
        <time>2026-03-09T17:37:06.000Z</time>
      </trkpt>
      <trkpt lat="43.26634" lon="-1.6048">
        <ele>239</ele>
        <time>2026-03-09T17:37:14.000Z</time>
      </trkpt>
      <trkpt lat="43.26614" lon="-1.60478">
        <ele>242</ele>
        <time>2026-03-09T17:37:17.000Z</time>
      </trkpt>
      <trkpt lat="43.26587" lon="-1.6048">
        <ele>246</ele>
        <time>2026-03-09T17:37:22.000Z</time>
      </trkpt>
      <trkpt lat="43.26556" lon="-1.60489">
        <ele>250</ele>
        <time>2026-03-09T17:37:28.000Z</time>
      </trkpt>
      <trkpt lat="43.26515" lon="-1.60481">
        <ele>254</ele>
        <time>2026-03-09T17:37:35.000Z</time>
      </trkpt>
      <trkpt lat="43.265" lon="-1.60483">
        <ele>255</ele>
        <time>2026-03-09T17:37:38.000Z</time>
      </trkpt>
      <trkpt lat="43.2644" lon="-1.60497">
        <ele>256</ele>
        <time>2026-03-09T17:37:49.000Z</time>
      </trkpt>
      <trkpt lat="43.26413" lon="-1.60498">
        <ele>255</ele>
        <time>2026-03-09T17:37:54.000Z</time>
      </trkpt>
      <trkpt lat="43.26401" lon="-1.60507">
        <ele>256</ele>
        <time>2026-03-09T17:37:56.000Z</time>
      </trkpt>
      <trkpt lat="43.26366" lon="-1.60571">
        <ele>267</ele>
        <time>2026-03-09T17:38:06.000Z</time>
      </trkpt>
      <trkpt lat="43.26354" lon="-1.60584">
        <ele>267</ele>
        <time>2026-03-09T17:38:09.000Z</time>
      </trkpt>
      <trkpt lat="43.26331" lon="-1.60588">
        <ele>264</ele>
        <time>2026-03-09T17:38:13.000Z</time>
      </trkpt>
      <trkpt lat="43.2632" lon="-1.60585">
        <ele>263</ele>
        <time>2026-03-09T17:38:15.000Z</time>
      </trkpt>
      <trkpt lat="43.263" lon="-1.60573">
        <ele>262</ele>
        <time>2026-03-09T17:38:19.000Z</time>
      </trkpt>
      <trkpt lat="43.26281" lon="-1.6057">
        <ele>262</ele>
        <time>2026-03-09T17:38:22.000Z</time>
      </trkpt>
      <trkpt lat="43.26259" lon="-1.60586">
        <ele>264</ele>
        <time>2026-03-09T17:38:27.000Z</time>
      </trkpt>
      <trkpt lat="43.26251" lon="-1.60583">
        <ele>263</ele>
        <time>2026-03-09T17:38:28.000Z</time>
      </trkpt>
      <trkpt lat="43.26244" lon="-1.60577">
        <ele>263</ele>
        <time>2026-03-09T17:38:30.000Z</time>
      </trkpt>
      <trkpt lat="43.26232" lon="-1.60556">
        <ele>261</ele>
        <time>2026-03-09T17:38:33.000Z</time>
      </trkpt>
      <trkpt lat="43.26228" lon="-1.60554">
        <ele>261</ele>
        <time>2026-03-09T17:38:34.000Z</time>
      </trkpt>
      <trkpt lat="43.26217" lon="-1.60556">
        <ele>262</ele>
        <time>2026-03-09T17:38:36.000Z</time>
      </trkpt>
      <trkpt lat="43.26211" lon="-1.60571">
        <ele>264</ele>
        <time>2026-03-09T17:38:38.000Z</time>
      </trkpt>
      <trkpt lat="43.26212" lon="-1.60594">
        <ele>267</ele>
        <time>2026-03-09T17:38:41.000Z</time>
      </trkpt>
      <trkpt lat="43.26209" lon="-1.60616">
        <ele>270</ele>
        <time>2026-03-09T17:38:44.000Z</time>
      </trkpt>
      <trkpt lat="43.26195" lon="-1.60669">
        <ele>279</ele>
        <time>2026-03-09T17:38:51.000Z</time>
      </trkpt>
      <trkpt lat="43.26189" lon="-1.60726">
        <ele>285</ele>
        <time>2026-03-09T17:38:59.000Z</time>
      </trkpt>
      <trkpt lat="43.26188" lon="-1.60786">
        <ele>293</ele>
        <time>2026-03-09T17:39:07.000Z</time>
      </trkpt>
      <trkpt lat="43.26193" lon="-1.6083">
        <ele>299</ele>
        <time>2026-03-09T17:39:12.000Z</time>
      </trkpt>
      <trkpt lat="43.26212" lon="-1.60927">
        <ele>306</ele>
        <time>2026-03-09T17:39:25.000Z</time>
      </trkpt>
      <trkpt lat="43.26218" lon="-1.60932">
        <ele>306</ele>
        <time>2026-03-09T17:39:27.000Z</time>
      </trkpt>
      <trkpt lat="43.26224" lon="-1.60931">
        <ele>306</ele>
        <time>2026-03-09T17:39:28.000Z</time>
      </trkpt>
      <trkpt lat="43.26225" lon="-1.60921">
        <ele>304</ele>
        <time>2026-03-09T17:39:29.000Z</time>
      </trkpt>
      <trkpt lat="43.26216" lon="-1.60885">
        <ele>302</ele>
        <time>2026-03-09T17:39:34.000Z</time>
      </trkpt>
      <trkpt lat="43.26212" lon="-1.60822">
        <ele>298</ele>
        <time>2026-03-09T17:39:42.000Z</time>
      </trkpt>
      <trkpt lat="43.26217" lon="-1.60777">
        <ele>293</ele>
        <time>2026-03-09T17:39:48.000Z</time>
      </trkpt>
      <trkpt lat="43.26226" lon="-1.60748">
        <ele>290</ele>
        <time>2026-03-09T17:39:52.000Z</time>
      </trkpt>
      <trkpt lat="43.26233" lon="-1.60735">
        <ele>289</ele>
        <time>2026-03-09T17:39:54.000Z</time>
      </trkpt>
      <trkpt lat="43.26241" lon="-1.60731">
        <ele>289</ele>
        <time>2026-03-09T17:39:56.000Z</time>
      </trkpt>
      <trkpt lat="43.26249" lon="-1.60734">
        <ele>289</ele>
        <time>2026-03-09T17:39:57.000Z</time>
      </trkpt>
      <trkpt lat="43.26254" lon="-1.60738">
        <ele>291</ele>
        <time>2026-03-09T17:39:58.000Z</time>
      </trkpt>
      <trkpt lat="43.26258" lon="-1.60746">
        <ele>293</ele>
        <time>2026-03-09T17:40:00.000Z</time>
      </trkpt>
      <trkpt lat="43.26256" lon="-1.60757">
        <ele>294</ele>
        <time>2026-03-09T17:40:01.000Z</time>
      </trkpt>
      <trkpt lat="43.26238" lon="-1.60788">
        <ele>295</ele>
        <time>2026-03-09T17:40:06.000Z</time>
      </trkpt>
      <trkpt lat="43.26235" lon="-1.60803">
        <ele>297</ele>
        <time>2026-03-09T17:40:08.000Z</time>
      </trkpt>
      <trkpt lat="43.26241" lon="-1.60828">
        <ele>299</ele>
        <time>2026-03-09T17:40:12.000Z</time>
      </trkpt>
      <trkpt lat="43.26248" lon="-1.60866">
        <ele>301</ele>
        <time>2026-03-09T17:40:17.000Z</time>
      </trkpt>
      <trkpt lat="43.26263" lon="-1.60904">
        <ele>306</ele>
        <time>2026-03-09T17:40:22.000Z</time>
      </trkpt>
      <trkpt lat="43.26279" lon="-1.6092">
        <ele>312</ele>
        <time>2026-03-09T17:40:26.000Z</time>
      </trkpt>
      <trkpt lat="43.26284" lon="-1.60933">
        <ele>315</ele>
        <time>2026-03-09T17:40:28.000Z</time>
      </trkpt>
      <trkpt lat="43.2628" lon="-1.60947">
        <ele>316</ele>
        <time>2026-03-09T17:40:30.000Z</time>
      </trkpt>
      <trkpt lat="43.26266" lon="-1.60963">
        <ele>315</ele>
        <time>2026-03-09T17:40:33.000Z</time>
      </trkpt>
      <trkpt lat="43.26258" lon="-1.60981">
        <ele>316</ele>
        <time>2026-03-09T17:40:36.000Z</time>
      </trkpt>
      <trkpt lat="43.26231" lon="-1.6106">
        <ele>326</ele>
        <time>2026-03-09T17:40:47.000Z</time>
      </trkpt>
      <trkpt lat="43.26221" lon="-1.61101">
        <ele>329</ele>
        <time>2026-03-09T17:40:53.000Z</time>
      </trkpt>
      <trkpt lat="43.26205" lon="-1.61136">
        <ele>329</ele>
        <time>2026-03-09T17:40:58.000Z</time>
      </trkpt>
      <trkpt lat="43.26199" lon="-1.61155">
        <ele>329</ele>
        <time>2026-03-09T17:41:01.000Z</time>
      </trkpt>
      <trkpt lat="43.26198" lon="-1.61179">
        <ele>332</ele>
        <time>2026-03-09T17:41:04.000Z</time>
      </trkpt>
      <trkpt lat="43.26207" lon="-1.61253">
        <ele>346</ele>
        <time>2026-03-09T17:41:13.000Z</time>
      </trkpt>
      <trkpt lat="43.26206" lon="-1.6126">
        <ele>347</ele>
        <time>2026-03-09T17:41:14.000Z</time>
      </trkpt>
      <trkpt lat="43.26199" lon="-1.61263">
        <ele>346</ele>
        <time>2026-03-09T17:41:16.000Z</time>
      </trkpt>
      <trkpt lat="43.26185" lon="-1.61263">
        <ele>342</ele>
        <time>2026-03-09T17:41:18.000Z</time>
      </trkpt>
      <trkpt lat="43.26167" lon="-1.61252">
        <ele>335</ele>
        <time>2026-03-09T17:41:22.000Z</time>
      </trkpt>
      <trkpt lat="43.2616" lon="-1.61252">
        <ele>333</ele>
        <time>2026-03-09T17:41:23.000Z</time>
      </trkpt>
      <trkpt lat="43.26153" lon="-1.6126">
        <ele>333</ele>
        <time>2026-03-09T17:41:25.000Z</time>
      </trkpt>
      <trkpt lat="43.26127" lon="-1.61298">
        <ele>336</ele>
        <time>2026-03-09T17:41:31.000Z</time>
      </trkpt>
      <trkpt lat="43.26113" lon="-1.61321">
        <ele>337</ele>
        <time>2026-03-09T17:41:35.000Z</time>
      </trkpt>
      <trkpt lat="43.26107" lon="-1.61337">
        <ele>338</ele>
        <time>2026-03-09T17:41:37.000Z</time>
      </trkpt>
      <trkpt lat="43.26106" lon="-1.61355">
        <ele>341</ele>
        <time>2026-03-09T17:41:40.000Z</time>
      </trkpt>
      <trkpt lat="43.26114" lon="-1.61425">
        <ele>352</ele>
        <time>2026-03-09T17:41:49.000Z</time>
      </trkpt>
      <trkpt lat="43.26118" lon="-1.61441">
        <ele>355</ele>
        <time>2026-03-09T17:41:51.000Z</time>
      </trkpt>
      <trkpt lat="43.26124" lon="-1.61496">
        <ele>362</ele>
        <time>2026-03-09T17:41:58.000Z</time>
      </trkpt>
      <trkpt lat="43.26122" lon="-1.61539">
        <ele>368</ele>
        <time>2026-03-09T17:42:04.000Z</time>
      </trkpt>
      <trkpt lat="43.26126" lon="-1.61554">
        <ele>370</ele>
        <time>2026-03-09T17:42:06.000Z</time>
      </trkpt>
      <trkpt lat="43.26128" lon="-1.61584">
        <ele>374</ele>
        <time>2026-03-09T17:42:10.000Z</time>
      </trkpt>
      <trkpt lat="43.26128" lon="-1.61598">
        <ele>377</ele>
        <time>2026-03-09T17:42:12.000Z</time>
      </trkpt>
      <trkpt lat="43.26125" lon="-1.61606">
        <ele>378</ele>
        <time>2026-03-09T17:42:13.000Z</time>
      </trkpt>
      <trkpt lat="43.26119" lon="-1.61606">
        <ele>378</ele>
        <time>2026-03-09T17:42:14.000Z</time>
      </trkpt>
      <trkpt lat="43.26112" lon="-1.61601">
        <ele>378</ele>
        <time>2026-03-09T17:42:15.000Z</time>
      </trkpt>
      <trkpt lat="43.26104" lon="-1.6158">
        <ele>375</ele>
        <time>2026-03-09T17:42:18.000Z</time>
      </trkpt>
      <trkpt lat="43.26097" lon="-1.61571">
        <ele>373</ele>
        <time>2026-03-09T17:42:20.000Z</time>
      </trkpt>
      <trkpt lat="43.26084" lon="-1.61562">
        <ele>371</ele>
        <time>2026-03-09T17:42:23.000Z</time>
      </trkpt>
      <trkpt lat="43.26079" lon="-1.61553">
        <ele>370</ele>
        <time>2026-03-09T17:42:24.000Z</time>
      </trkpt>
      <trkpt lat="43.26071" lon="-1.61527">
        <ele>367</ele>
        <time>2026-03-09T17:42:28.000Z</time>
      </trkpt>
      <trkpt lat="43.26066" lon="-1.61517">
        <ele>366</ele>
        <time>2026-03-09T17:42:29.000Z</time>
      </trkpt>
      <trkpt lat="43.26047" lon="-1.61488">
        <ele>365</ele>
        <time>2026-03-09T17:42:35.000Z</time>
      </trkpt>
      <trkpt lat="43.26033" lon="-1.6146">
        <ele>364</ele>
        <time>2026-03-09T17:42:39.000Z</time>
      </trkpt>
      <trkpt lat="43.26025" lon="-1.6145">
        <ele>364</ele>
        <time>2026-03-09T17:42:41.000Z</time>
      </trkpt>
      <trkpt lat="43.26021" lon="-1.61448">
        <ele>364</ele>
        <time>2026-03-09T17:42:42.000Z</time>
      </trkpt>
      <trkpt lat="43.26009" lon="-1.61448">
        <ele>368</ele>
        <time>2026-03-09T17:42:44.000Z</time>
      </trkpt>
      <trkpt lat="43.25995" lon="-1.6145">
        <ele>371</ele>
        <time>2026-03-09T17:42:46.000Z</time>
      </trkpt>
      <trkpt lat="43.25972" lon="-1.61443">
        <ele>373</ele>
        <time>2026-03-09T17:42:50.000Z</time>
      </trkpt>
      <trkpt lat="43.2596" lon="-1.61441">
        <ele>375</ele>
        <time>2026-03-09T17:42:53.000Z</time>
      </trkpt>
      <trkpt lat="43.25949" lon="-1.6143">
        <ele>374</ele>
        <time>2026-03-09T17:42:55.000Z</time>
      </trkpt>
      <trkpt lat="43.2595" lon="-1.61381">
        <ele>362</ele>
        <time>2026-03-09T17:43:01.000Z</time>
      </trkpt>
      <trkpt lat="43.25945" lon="-1.61373">
        <ele>361</ele>
        <time>2026-03-09T17:43:03.000Z</time>
      </trkpt>
      <trkpt lat="43.25936" lon="-1.61371">
        <ele>362</ele>
        <time>2026-03-09T17:43:04.000Z</time>
      </trkpt>
      <trkpt lat="43.2593" lon="-1.61377">
        <ele>365</ele>
        <time>2026-03-09T17:43:06.000Z</time>
      </trkpt>
      <trkpt lat="43.25926" lon="-1.61386">
        <ele>367</ele>
        <time>2026-03-09T17:43:07.000Z</time>
      </trkpt>
      <trkpt lat="43.25926" lon="-1.61399">
        <ele>370</ele>
        <time>2026-03-09T17:43:09.000Z</time>
      </trkpt>
      <trkpt lat="43.2593" lon="-1.6142">
        <ele>375</ele>
        <time>2026-03-09T17:43:12.000Z</time>
      </trkpt>
      <trkpt lat="43.25929" lon="-1.61437">
        <ele>379</ele>
        <time>2026-03-09T17:43:14.000Z</time>
      </trkpt>
      <trkpt lat="43.25931" lon="-1.61448">
        <ele>382</ele>
        <time>2026-03-09T17:43:15.000Z</time>
      </trkpt>
      <trkpt lat="43.25937" lon="-1.61456">
        <ele>383</ele>
        <time>2026-03-09T17:43:17.000Z</time>
      </trkpt>
      <trkpt lat="43.25955" lon="-1.61459">
        <ele>381</ele>
        <time>2026-03-09T17:43:20.000Z</time>
      </trkpt>
      <trkpt lat="43.25976" lon="-1.61481">
        <ele>382</ele>
        <time>2026-03-09T17:43:25.000Z</time>
      </trkpt>
      <trkpt lat="43.25983" lon="-1.61485">
        <ele>382</ele>
        <time>2026-03-09T17:43:26.000Z</time>
      </trkpt>
      <trkpt lat="43.25998" lon="-1.61487">
        <ele>380</ele>
        <time>2026-03-09T17:43:29.000Z</time>
      </trkpt>
      <trkpt lat="43.26007" lon="-1.61492">
        <ele>379</ele>
        <time>2026-03-09T17:43:30.000Z</time>
      </trkpt>
      <trkpt lat="43.26011" lon="-1.615">
        <ele>379</ele>
        <time>2026-03-09T17:43:32.000Z</time>
      </trkpt>
      <trkpt lat="43.26012" lon="-1.61516">
        <ele>384</ele>
        <time>2026-03-09T17:43:34.000Z</time>
      </trkpt>
      <trkpt lat="43.26015" lon="-1.61526">
        <ele>385</ele>
        <time>2026-03-09T17:43:35.000Z</time>
      </trkpt>
      <trkpt lat="43.2603" lon="-1.61543">
        <ele>385</ele>
        <time>2026-03-09T17:43:39.000Z</time>
      </trkpt>
      <trkpt lat="43.26035" lon="-1.61554">
        <ele>386</ele>
        <time>2026-03-09T17:43:40.000Z</time>
      </trkpt>
      <trkpt lat="43.26039" lon="-1.61592">
        <ele>394</ele>
        <time>2026-03-09T17:43:45.000Z</time>
      </trkpt>
      <trkpt lat="43.26046" lon="-1.61608">
        <ele>395</ele>
        <time>2026-03-09T17:43:48.000Z</time>
      </trkpt>
      <trkpt lat="43.26065" lon="-1.61638">
        <ele>394</ele>
        <time>2026-03-09T17:43:53.000Z</time>
      </trkpt>
      <trkpt lat="43.2608" lon="-1.61669">
        <ele>395</ele>
        <time>2026-03-09T17:43:58.000Z</time>
      </trkpt>
      <trkpt lat="43.26082" lon="-1.61678">
        <ele>396</ele>
        <time>2026-03-09T17:43:59.000Z</time>
      </trkpt>
      <trkpt lat="43.26081" lon="-1.61705">
        <ele>402</ele>
        <time>2026-03-09T17:44:02.000Z</time>
      </trkpt>
      <trkpt lat="43.26084" lon="-1.61714">
        <ele>403</ele>
        <time>2026-03-09T17:44:04.000Z</time>
      </trkpt>
      <trkpt lat="43.26097" lon="-1.61724">
        <ele>403</ele>
        <time>2026-03-09T17:44:06.000Z</time>
      </trkpt>
      <trkpt lat="43.26102" lon="-1.61743">
        <ele>406</ele>
        <time>2026-03-09T17:44:09.000Z</time>
      </trkpt>
      <trkpt lat="43.26107" lon="-1.61752">
        <ele>407</ele>
        <time>2026-03-09T17:44:10.000Z</time>
      </trkpt>
      <trkpt lat="43.26114" lon="-1.61756">
        <ele>407</ele>
        <time>2026-03-09T17:44:12.000Z</time>
      </trkpt>
      <trkpt lat="43.26132" lon="-1.61758">
        <ele>404</ele>
        <time>2026-03-09T17:44:15.000Z</time>
      </trkpt>
      <trkpt lat="43.26145" lon="-1.61766">
        <ele>403</ele>
        <time>2026-03-09T17:44:17.000Z</time>
      </trkpt>
      <trkpt lat="43.26155" lon="-1.61777">
        <ele>404</ele>
        <time>2026-03-09T17:44:20.000Z</time>
      </trkpt>
      <trkpt lat="43.26167" lon="-1.61794">
        <ele>405</ele>
        <time>2026-03-09T17:44:23.000Z</time>
      </trkpt>
      <trkpt lat="43.26178" lon="-1.61822">
        <ele>411</ele>
        <time>2026-03-09T17:44:27.000Z</time>
      </trkpt>
      <trkpt lat="43.26185" lon="-1.61845">
        <ele>416</ele>
        <time>2026-03-09T17:44:30.000Z</time>
      </trkpt>
      <trkpt lat="43.26187" lon="-1.61862">
        <ele>419</ele>
        <time>2026-03-09T17:44:32.000Z</time>
      </trkpt>
      <trkpt lat="43.26191" lon="-1.6187">
        <ele>420</ele>
        <time>2026-03-09T17:44:34.000Z</time>
      </trkpt>
      <trkpt lat="43.26222" lon="-1.61892">
        <ele>424</ele>
        <time>2026-03-09T17:44:40.000Z</time>
      </trkpt>
      <trkpt lat="43.26231" lon="-1.61892">
        <ele>423</ele>
        <time>2026-03-09T17:44:41.000Z</time>
      </trkpt>
      <trkpt lat="43.26237" lon="-1.61881">
        <ele>421</ele>
        <time>2026-03-09T17:44:43.000Z</time>
      </trkpt>
      <trkpt lat="43.26252" lon="-1.61838">
        <ele>415</ele>
        <time>2026-03-09T17:44:49.000Z</time>
      </trkpt>
      <trkpt lat="43.26266" lon="-1.61812">
        <ele>412</ele>
        <time>2026-03-09T17:44:54.000Z</time>
      </trkpt>
      <trkpt lat="43.26276" lon="-1.61799">
        <ele>411</ele>
        <time>2026-03-09T17:44:56.000Z</time>
      </trkpt>
      <trkpt lat="43.26284" lon="-1.61797">
        <ele>411</ele>
        <time>2026-03-09T17:44:58.000Z</time>
      </trkpt>
      <trkpt lat="43.2629" lon="-1.61799">
        <ele>411</ele>
        <time>2026-03-09T17:44:59.000Z</time>
      </trkpt>
      <trkpt lat="43.26293" lon="-1.61805">
        <ele>412</ele>
        <time>2026-03-09T17:45:00.000Z</time>
      </trkpt>
      <trkpt lat="43.26295" lon="-1.61812">
        <ele>413</ele>
        <time>2026-03-09T17:45:01.000Z</time>
      </trkpt>
      <trkpt lat="43.26292" lon="-1.61819">
        <ele>414</ele>
        <time>2026-03-09T17:45:02.000Z</time>
      </trkpt>
      <trkpt lat="43.26273" lon="-1.61845">
        <ele>417</ele>
        <time>2026-03-09T17:45:06.000Z</time>
      </trkpt>
      <trkpt lat="43.26266" lon="-1.61858">
        <ele>418</ele>
        <time>2026-03-09T17:45:08.000Z</time>
      </trkpt>
      <trkpt lat="43.26262" lon="-1.61882">
        <ele>422</ele>
        <time>2026-03-09T17:45:12.000Z</time>
      </trkpt>
      <trkpt lat="43.26261" lon="-1.61923">
        <ele>428</ele>
        <time>2026-03-09T17:45:17.000Z</time>
      </trkpt>
      <trkpt lat="43.26259" lon="-1.61931">
        <ele>429</ele>
        <time>2026-03-09T17:45:18.000Z</time>
      </trkpt>
      <trkpt lat="43.26255" lon="-1.61935">
        <ele>430</ele>
        <time>2026-03-09T17:45:19.000Z</time>
      </trkpt>
      <trkpt lat="43.26226" lon="-1.61944">
        <ele>431</ele>
        <time>2026-03-09T17:45:24.000Z</time>
      </trkpt>
      <trkpt lat="43.26216" lon="-1.61945">
        <ele>432</ele>
        <time>2026-03-09T17:45:26.000Z</time>
      </trkpt>
      <trkpt lat="43.26193" lon="-1.61934">
        <ele>431</ele>
        <time>2026-03-09T17:45:30.000Z</time>
      </trkpt>
      <trkpt lat="43.26165" lon="-1.61929">
        <ele>432</ele>
        <time>2026-03-09T17:45:35.000Z</time>
      </trkpt>
      <trkpt lat="43.26157" lon="-1.61926">
        <ele>432</ele>
        <time>2026-03-09T17:45:37.000Z</time>
      </trkpt>
      <trkpt lat="43.26144" lon="-1.61915">
        <ele>433</ele>
        <time>2026-03-09T17:45:40.000Z</time>
      </trkpt>
      <trkpt lat="43.26126" lon="-1.61894">
        <ele>431</ele>
        <time>2026-03-09T17:45:44.000Z</time>
      </trkpt>
      <trkpt lat="43.26116" lon="-1.61887">
        <ele>431</ele>
        <time>2026-03-09T17:45:46.000Z</time>
      </trkpt>
      <trkpt lat="43.26097" lon="-1.61883">
        <ele>433</ele>
        <time>2026-03-09T17:45:49.000Z</time>
      </trkpt>
      <trkpt lat="43.26085" lon="-1.61884">
        <ele>435</ele>
        <time>2026-03-09T17:45:51.000Z</time>
      </trkpt>
      <trkpt lat="43.26055" lon="-1.61918">
        <ele>437</ele>
        <time>2026-03-09T17:45:58.000Z</time>
      </trkpt>
      <trkpt lat="43.26042" lon="-1.61925">
        <ele>435</ele>
        <time>2026-03-09T17:46:01.000Z</time>
      </trkpt>
      <trkpt lat="43.26021" lon="-1.61922">
        <ele>435</ele>
        <time>2026-03-09T17:46:04.000Z</time>
      </trkpt>
      <trkpt lat="43.26012" lon="-1.61917">
        <ele>436</ele>
        <time>2026-03-09T17:46:06.000Z</time>
      </trkpt>
      <trkpt lat="43.25979" lon="-1.61884">
        <ele>443</ele>
        <time>2026-03-09T17:46:13.000Z</time>
      </trkpt>
      <trkpt lat="43.25962" lon="-1.61875">
        <ele>446</ele>
        <time>2026-03-09T17:46:17.000Z</time>
      </trkpt>
      <trkpt lat="43.25952" lon="-1.61872">
        <ele>448</ele>
        <time>2026-03-09T17:46:19.000Z</time>
      </trkpt>
      <trkpt lat="43.25948" lon="-1.61875">
        <ele>448</ele>
        <time>2026-03-09T17:46:19.000Z</time>
      </trkpt>
      <trkpt lat="43.25941" lon="-1.61882">
        <ele>448</ele>
        <time>2026-03-09T17:46:21.000Z</time>
      </trkpt>
      <trkpt lat="43.25934" lon="-1.61896">
        <ele>449</ele>
        <time>2026-03-09T17:46:23.000Z</time>
      </trkpt>
      <trkpt lat="43.25925" lon="-1.61943">
        <ele>444</ele>
        <time>2026-03-09T17:46:29.000Z</time>
      </trkpt>
      <trkpt lat="43.2591" lon="-1.62">
        <ele>439</ele>
        <time>2026-03-09T17:46:37.000Z</time>
      </trkpt>
      <trkpt lat="43.25901" lon="-1.62018">
        <ele>438</ele>
        <time>2026-03-09T17:46:40.000Z</time>
      </trkpt>
      <trkpt lat="43.25881" lon="-1.62046">
        <ele>440</ele>
        <time>2026-03-09T17:46:45.000Z</time>
      </trkpt>
      <trkpt lat="43.25865" lon="-1.62077">
        <ele>440</ele>
        <time>2026-03-09T17:46:50.000Z</time>
      </trkpt>
      <trkpt lat="43.25859" lon="-1.62093">
        <ele>441</ele>
        <time>2026-03-09T17:46:52.000Z</time>
      </trkpt>
      <trkpt lat="43.25855" lon="-1.62113">
        <ele>441</ele>
        <time>2026-03-09T17:46:55.000Z</time>
      </trkpt>
      <trkpt lat="43.25852" lon="-1.62159">
        <ele>439</ele>
        <time>2026-03-09T17:47:01.000Z</time>
      </trkpt>
      <trkpt lat="43.25846" lon="-1.62197">
        <ele>435</ele>
        <time>2026-03-09T17:47:06.000Z</time>
      </trkpt>
      <trkpt lat="43.25838" lon="-1.62219">
        <ele>434</ele>
        <time>2026-03-09T17:47:09.000Z</time>
      </trkpt>
      <trkpt lat="43.2583" lon="-1.62233">
        <ele>434</ele>
        <time>2026-03-09T17:47:12.000Z</time>
      </trkpt>
      <trkpt lat="43.25805" lon="-1.62264">
        <ele>431</ele>
        <time>2026-03-09T17:47:18.000Z</time>
      </trkpt>
      <trkpt lat="43.25759" lon="-1.6231">
        <ele>429</ele>
        <time>2026-03-09T17:47:28.000Z</time>
      </trkpt>
      <trkpt lat="43.25741" lon="-1.62322">
        <ele>428</ele>
        <time>2026-03-09T17:47:31.000Z</time>
      </trkpt>
      <trkpt lat="43.25697" lon="-1.62344">
        <ele>422</ele>
        <time>2026-03-09T17:47:40.000Z</time>
      </trkpt>
      <trkpt lat="43.25685" lon="-1.62356">
        <ele>420</ele>
        <time>2026-03-09T17:47:42.000Z</time>
      </trkpt>
      <trkpt lat="43.25661" lon="-1.62397">
        <ele>415</ele>
        <time>2026-03-09T17:47:49.000Z</time>
      </trkpt>
      <trkpt lat="43.25611" lon="-1.62461">
        <ele>410</ele>
        <time>2026-03-09T17:48:01.000Z</time>
      </trkpt>
      <trkpt lat="43.25604" lon="-1.62467">
        <ele>411</ele>
        <time>2026-03-09T17:48:03.000Z</time>
      </trkpt>
      <trkpt lat="43.2556" lon="-1.62493">
        <ele>411</ele>
        <time>2026-03-09T17:48:11.000Z</time>
      </trkpt>
      <trkpt lat="43.25549" lon="-1.62495">
        <ele>410</ele>
        <time>2026-03-09T17:48:13.000Z</time>
      </trkpt>
      <trkpt lat="43.25544" lon="-1.62491">
        <ele>409</ele>
        <time>2026-03-09T17:48:14.000Z</time>
      </trkpt>
      <trkpt lat="43.2554" lon="-1.62484">
        <ele>408</ele>
        <time>2026-03-09T17:48:15.000Z</time>
      </trkpt>
      <trkpt lat="43.25539" lon="-1.62474">
        <ele>407</ele>
        <time>2026-03-09T17:48:17.000Z</time>
      </trkpt>
      <trkpt lat="43.2554" lon="-1.62463">
        <ele>407</ele>
        <time>2026-03-09T17:48:18.000Z</time>
      </trkpt>
      <trkpt lat="43.25552" lon="-1.62438">
        <ele>407</ele>
        <time>2026-03-09T17:48:22.000Z</time>
      </trkpt>
      <trkpt lat="43.2556" lon="-1.62431">
        <ele>408</ele>
        <time>2026-03-09T17:48:24.000Z</time>
      </trkpt>
      <trkpt lat="43.25603" lon="-1.62407">
        <ele>411</ele>
        <time>2026-03-09T17:48:32.000Z</time>
      </trkpt>
      <trkpt lat="43.25622" lon="-1.62388">
        <ele>411</ele>
        <time>2026-03-09T17:48:36.000Z</time>
      </trkpt>
      <trkpt lat="43.25629" lon="-1.62374">
        <ele>412</ele>
        <time>2026-03-09T17:48:38.000Z</time>
      </trkpt>
      <trkpt lat="43.25639" lon="-1.62339">
        <ele>413</ele>
        <time>2026-03-09T17:48:43.000Z</time>
      </trkpt>
      <trkpt lat="43.25642" lon="-1.62327">
        <ele>414</ele>
        <time>2026-03-09T17:48:45.000Z</time>
      </trkpt>
      <trkpt lat="43.25643" lon="-1.62303">
        <ele>415</ele>
        <time>2026-03-09T17:48:48.000Z</time>
      </trkpt>
      <trkpt lat="43.25636" lon="-1.62242">
        <ele>412</ele>
        <time>2026-03-09T17:48:56.000Z</time>
      </trkpt>
      <trkpt lat="43.25628" lon="-1.62193">
        <ele>407</ele>
        <time>2026-03-09T17:49:02.000Z</time>
      </trkpt>
      <trkpt lat="43.25627" lon="-1.62178">
        <ele>407</ele>
        <time>2026-03-09T17:49:04.000Z</time>
      </trkpt>
      <trkpt lat="43.25629" lon="-1.62165">
        <ele>407</ele>
        <time>2026-03-09T17:49:06.000Z</time>
      </trkpt>
      <trkpt lat="43.25637" lon="-1.6213">
        <ele>405</ele>
        <time>2026-03-09T17:49:11.000Z</time>
      </trkpt>
      <trkpt lat="43.25644" lon="-1.6211">
        <ele>404</ele>
        <time>2026-03-09T17:49:14.000Z</time>
      </trkpt>
      <trkpt lat="43.2565" lon="-1.62098">
        <ele>405</ele>
        <time>2026-03-09T17:49:16.000Z</time>
      </trkpt>
      <trkpt lat="43.25686" lon="-1.62053">
        <ele>415</ele>
        <time>2026-03-09T17:49:24.000Z</time>
      </trkpt>
      <trkpt lat="43.25689" lon="-1.62043">
        <ele>416</ele>
        <time>2026-03-09T17:49:26.000Z</time>
      </trkpt>
      <trkpt lat="43.2569" lon="-1.62037">
        <ele>416</ele>
        <time>2026-03-09T17:49:27.000Z</time>
      </trkpt>
      <trkpt lat="43.25689" lon="-1.62026">
        <ele>415</ele>
        <time>2026-03-09T17:49:28.000Z</time>
      </trkpt>
      <trkpt lat="43.25686" lon="-1.62019">
        <ele>413</ele>
        <time>2026-03-09T17:49:29.000Z</time>
      </trkpt>
      <trkpt lat="43.25664" lon="-1.61988">
        <ele>406</ele>
        <time>2026-03-09T17:49:35.000Z</time>
      </trkpt>
      <trkpt lat="43.25653" lon="-1.61976">
        <ele>405</ele>
        <time>2026-03-09T17:49:37.000Z</time>
      </trkpt>
      <trkpt lat="43.25602" lon="-1.61936">
        <ele>393</ele>
        <time>2026-03-09T17:49:48.000Z</time>
      </trkpt>
      <trkpt lat="43.25596" lon="-1.61926">
        <ele>393</ele>
        <time>2026-03-09T17:49:49.000Z</time>
      </trkpt>
      <trkpt lat="43.25592" lon="-1.61916">
        <ele>394</ele>
        <time>2026-03-09T17:49:51.000Z</time>
      </trkpt>
      <trkpt lat="43.2559" lon="-1.61897">
        <ele>396</ele>
        <time>2026-03-09T17:49:53.000Z</time>
      </trkpt>
      <trkpt lat="43.25588" lon="-1.61888">
        <ele>397</ele>
        <time>2026-03-09T17:49:54.000Z</time>
      </trkpt>
      <trkpt lat="43.25558" lon="-1.61803">
        <ele>396</ele>
        <time>2026-03-09T17:50:07.000Z</time>
      </trkpt>
      <trkpt lat="43.25541" lon="-1.61758">
        <ele>395</ele>
        <time>2026-03-09T17:50:13.000Z</time>
      </trkpt>
      <trkpt lat="43.25529" lon="-1.61735">
        <ele>393</ele>
        <time>2026-03-09T17:50:17.000Z</time>
      </trkpt>
      <trkpt lat="43.25522" lon="-1.61729">
        <ele>391</ele>
        <time>2026-03-09T17:50:18.000Z</time>
      </trkpt>
      <trkpt lat="43.25515" lon="-1.61725">
        <ele>388</ele>
        <time>2026-03-09T17:50:20.000Z</time>
      </trkpt>
      <trkpt lat="43.2549" lon="-1.61723">
        <ele>377</ele>
        <time>2026-03-09T17:50:24.000Z</time>
      </trkpt>
      <trkpt lat="43.25484" lon="-1.6172">
        <ele>375</ele>
        <time>2026-03-09T17:50:25.000Z</time>
      </trkpt>
      <trkpt lat="43.2548" lon="-1.61714">
        <ele>374</ele>
        <time>2026-03-09T17:50:26.000Z</time>
      </trkpt>
      <trkpt lat="43.25475" lon="-1.617">
        <ele>376</ele>
        <time>2026-03-09T17:50:28.000Z</time>
      </trkpt>
      <trkpt lat="43.25474" lon="-1.6164">
        <ele>391</ele>
        <time>2026-03-09T17:50:36.000Z</time>
      </trkpt>
      <trkpt lat="43.25471" lon="-1.61633">
        <ele>392</ele>
        <time>2026-03-09T17:50:37.000Z</time>
      </trkpt>
      <trkpt lat="43.25466" lon="-1.61627">
        <ele>392</ele>
        <time>2026-03-09T17:50:38.000Z</time>
      </trkpt>
      <trkpt lat="43.25455" lon="-1.61621">
        <ele>389</ele>
        <time>2026-03-09T17:50:41.000Z</time>
      </trkpt>
      <trkpt lat="43.25405" lon="-1.61601">
        <ele>380</ele>
        <time>2026-03-09T17:50:50.000Z</time>
      </trkpt>
      <trkpt lat="43.25385" lon="-1.61595">
        <ele>379</ele>
        <time>2026-03-09T17:50:53.000Z</time>
      </trkpt>
      <trkpt lat="43.25364" lon="-1.61592">
        <ele>377</ele>
        <time>2026-03-09T17:50:57.000Z</time>
      </trkpt>
      <trkpt lat="43.25341" lon="-1.61593">
        <ele>373</ele>
        <time>2026-03-09T17:51:01.000Z</time>
      </trkpt>
      <trkpt lat="43.25325" lon="-1.616">
        <ele>368</ele>
        <time>2026-03-09T17:51:04.000Z</time>
      </trkpt>
      <trkpt lat="43.25307" lon="-1.61612">
        <ele>360</ele>
        <time>2026-03-09T17:51:08.000Z</time>
      </trkpt>
      <trkpt lat="43.25293" lon="-1.61616">
        <ele>356</ele>
        <time>2026-03-09T17:51:10.000Z</time>
      </trkpt>
      <trkpt lat="43.25272" lon="-1.61615">
        <ele>353</ele>
        <time>2026-03-09T17:51:14.000Z</time>
      </trkpt>
      <trkpt lat="43.25266" lon="-1.61612">
        <ele>352</ele>
        <time>2026-03-09T17:51:15.000Z</time>
      </trkpt>
      <trkpt lat="43.2526" lon="-1.61607">
        <ele>352</ele>
        <time>2026-03-09T17:51:17.000Z</time>
      </trkpt>
      <trkpt lat="43.25257" lon="-1.61599">
        <ele>353</ele>
        <time>2026-03-09T17:51:18.000Z</time>
      </trkpt>
      <trkpt lat="43.25256" lon="-1.61589">
        <ele>354</ele>
        <time>2026-03-09T17:51:19.000Z</time>
      </trkpt>
      <trkpt lat="43.25259" lon="-1.61577">
        <ele>355</ele>
        <time>2026-03-09T17:51:21.000Z</time>
      </trkpt>
      <trkpt lat="43.25275" lon="-1.61541">
        <ele>359</ele>
        <time>2026-03-09T17:51:26.000Z</time>
      </trkpt>
      <trkpt lat="43.2528" lon="-1.61498">
        <ele>362</ele>
        <time>2026-03-09T17:51:32.000Z</time>
      </trkpt>
      <trkpt lat="43.25282" lon="-1.61458">
        <ele>365</ele>
        <time>2026-03-09T17:51:37.000Z</time>
      </trkpt>
      <trkpt lat="43.2528" lon="-1.61451">
        <ele>364</ele>
        <time>2026-03-09T17:51:38.000Z</time>
      </trkpt>
      <trkpt lat="43.2525" lon="-1.61417">
        <ele>349</ele>
        <time>2026-03-09T17:51:45.000Z</time>
      </trkpt>
      <trkpt lat="43.25242" lon="-1.61398">
        <ele>347</ele>
        <time>2026-03-09T17:51:48.000Z</time>
      </trkpt>
      <trkpt lat="43.2524" lon="-1.61372">
        <ele>347</ele>
        <time>2026-03-09T17:51:51.000Z</time>
      </trkpt>
      <trkpt lat="43.2525" lon="-1.6131">
        <ele>357</ele>
        <time>2026-03-09T17:51:59.000Z</time>
      </trkpt>
      <trkpt lat="43.2525" lon="-1.61289">
        <ele>358</ele>
        <time>2026-03-09T17:52:02.000Z</time>
      </trkpt>
      <trkpt lat="43.25245" lon="-1.61263">
        <ele>358</ele>
        <time>2026-03-09T17:52:05.000Z</time>
      </trkpt>
      <trkpt lat="43.25219" lon="-1.6121">
        <ele>357</ele>
        <time>2026-03-09T17:52:14.000Z</time>
      </trkpt>
      <trkpt lat="43.25212" lon="-1.61204">
        <ele>356</ele>
        <time>2026-03-09T17:52:15.000Z</time>
      </trkpt>
      <trkpt lat="43.25208" lon="-1.61205">
        <ele>355</ele>
        <time>2026-03-09T17:52:16.000Z</time>
      </trkpt>
      <trkpt lat="43.25205" lon="-1.61208">
        <ele>353</ele>
        <time>2026-03-09T17:52:17.000Z</time>
      </trkpt>
      <trkpt lat="43.25203" lon="-1.61217">
        <ele>350</ele>
        <time>2026-03-09T17:52:18.000Z</time>
      </trkpt>
      <trkpt lat="43.25205" lon="-1.61228">
        <ele>349</ele>
        <time>2026-03-09T17:52:19.000Z</time>
      </trkpt>
      <trkpt lat="43.25223" lon="-1.61245">
        <ele>352</ele>
        <time>2026-03-09T17:52:23.000Z</time>
      </trkpt>
      <trkpt lat="43.25234" lon="-1.61263">
        <ele>354</ele>
        <time>2026-03-09T17:52:26.000Z</time>
      </trkpt>
      <trkpt lat="43.25237" lon="-1.61277">
        <ele>354</ele>
        <time>2026-03-09T17:52:28.000Z</time>
      </trkpt>
      <trkpt lat="43.25239" lon="-1.61292">
        <ele>353</ele>
        <time>2026-03-09T17:52:30.000Z</time>
      </trkpt>
      <trkpt lat="43.25236" lon="-1.61312">
        <ele>350</ele>
        <time>2026-03-09T17:52:33.000Z</time>
      </trkpt>
      <trkpt lat="43.25216" lon="-1.61392">
        <ele>334</ele>
        <time>2026-03-09T17:52:44.000Z</time>
      </trkpt>
      <trkpt lat="43.25216" lon="-1.61403">
        <ele>334</ele>
        <time>2026-03-09T17:52:45.000Z</time>
      </trkpt>
      <trkpt lat="43.2522" lon="-1.61419">
        <ele>335</ele>
        <time>2026-03-09T17:52:47.000Z</time>
      </trkpt>
      <trkpt lat="43.2523" lon="-1.61439">
        <ele>339</ele>
        <time>2026-03-09T17:52:50.000Z</time>
      </trkpt>
      <trkpt lat="43.25239" lon="-1.6145">
        <ele>343</ele>
        <time>2026-03-09T17:52:53.000Z</time>
      </trkpt>
      <trkpt lat="43.25243" lon="-1.61461">
        <ele>344</ele>
        <time>2026-03-09T17:52:54.000Z</time>
      </trkpt>
      <trkpt lat="43.25243" lon="-1.61472">
        <ele>344</ele>
        <time>2026-03-09T17:52:56.000Z</time>
      </trkpt>
      <trkpt lat="43.25221" lon="-1.61513">
        <ele>334</ele>
        <time>2026-03-09T17:53:02.000Z</time>
      </trkpt>
      <trkpt lat="43.25199" lon="-1.61559">
        <ele>328</ele>
        <time>2026-03-09T17:53:09.000Z</time>
      </trkpt>
      <trkpt lat="43.25194" lon="-1.61583">
        <ele>329</ele>
        <time>2026-03-09T17:53:13.000Z</time>
      </trkpt>
      <trkpt lat="43.25182" lon="-1.61664">
        <ele>327</ele>
        <time>2026-03-09T17:53:23.000Z</time>
      </trkpt>
      <trkpt lat="43.25173" lon="-1.61677">
        <ele>325</ele>
        <time>2026-03-09T17:53:26.000Z</time>
      </trkpt>
      <trkpt lat="43.25141" lon="-1.61695">
        <ele>317</ele>
        <time>2026-03-09T17:53:32.000Z</time>
      </trkpt>
      <trkpt lat="43.25131" lon="-1.61701">
        <ele>314</ele>
        <time>2026-03-09T17:53:34.000Z</time>
      </trkpt>
      <trkpt lat="43.25123" lon="-1.61712">
        <ele>313</ele>
        <time>2026-03-09T17:53:36.000Z</time>
      </trkpt>
      <trkpt lat="43.25112" lon="-1.61737">
        <ele>311</ele>
        <time>2026-03-09T17:53:40.000Z</time>
      </trkpt>
      <trkpt lat="43.25107" lon="-1.61742">
        <ele>310</ele>
        <time>2026-03-09T17:53:41.000Z</time>
      </trkpt>
      <trkpt lat="43.25101" lon="-1.61742">
        <ele>309</ele>
        <time>2026-03-09T17:53:42.000Z</time>
      </trkpt>
      <trkpt lat="43.25099" lon="-1.61736">
        <ele>308</ele>
        <time>2026-03-09T17:53:43.000Z</time>
      </trkpt>
      <trkpt lat="43.25099" lon="-1.61729">
        <ele>308</ele>
        <time>2026-03-09T17:53:43.000Z</time>
      </trkpt>
      <trkpt lat="43.25104" lon="-1.61721">
        <ele>309</ele>
        <time>2026-03-09T17:53:45.000Z</time>
      </trkpt>
      <trkpt lat="43.25131" lon="-1.61687">
        <ele>314</ele>
        <time>2026-03-09T17:53:51.000Z</time>
      </trkpt>
      <trkpt lat="43.25162" lon="-1.61663">
        <ele>322</ele>
        <time>2026-03-09T17:53:58.000Z</time>
      </trkpt>
      <trkpt lat="43.25167" lon="-1.61655">
        <ele>323</ele>
        <time>2026-03-09T17:53:59.000Z</time>
      </trkpt>
      <trkpt lat="43.2517" lon="-1.61647">
        <ele>323</ele>
        <time>2026-03-09T17:54:00.000Z</time>
      </trkpt>
      <trkpt lat="43.25172" lon="-1.6163">
        <ele>323</ele>
        <time>2026-03-09T17:54:02.000Z</time>
      </trkpt>
      <trkpt lat="43.2517" lon="-1.6157">
        <ele>317</ele>
        <time>2026-03-09T17:54:10.000Z</time>
      </trkpt>
      <trkpt lat="43.25171" lon="-1.61552">
        <ele>315</ele>
        <time>2026-03-09T17:54:13.000Z</time>
      </trkpt>
      <trkpt lat="43.25173" lon="-1.61539">
        <ele>315</ele>
        <time>2026-03-09T17:54:14.000Z</time>
      </trkpt>
      <trkpt lat="43.25179" lon="-1.61523">
        <ele>315</ele>
        <time>2026-03-09T17:54:17.000Z</time>
      </trkpt>
      <trkpt lat="43.25196" lon="-1.61493">
        <ele>321</ele>
        <time>2026-03-09T17:54:22.000Z</time>
      </trkpt>
      <trkpt lat="43.25199" lon="-1.61477">
        <ele>323</ele>
        <time>2026-03-09T17:54:24.000Z</time>
      </trkpt>
      <trkpt lat="43.25192" lon="-1.61466">
        <ele>320</ele>
        <time>2026-03-09T17:54:26.000Z</time>
      </trkpt>
      <trkpt lat="43.25176" lon="-1.61453">
        <ele>313</ele>
        <time>2026-03-09T17:54:29.000Z</time>
      </trkpt>
      <trkpt lat="43.25169" lon="-1.61417">
        <ele>310</ele>
        <time>2026-03-09T17:54:34.000Z</time>
      </trkpt>
      <trkpt lat="43.25165" lon="-1.61378">
        <ele>311</ele>
        <time>2026-03-09T17:54:39.000Z</time>
      </trkpt>
      <trkpt lat="43.25178" lon="-1.61338">
        <ele>320</ele>
        <time>2026-03-09T17:54:45.000Z</time>
      </trkpt>
      <trkpt lat="43.25178" lon="-1.61323">
        <ele>322</ele>
        <time>2026-03-09T17:54:46.000Z</time>
      </trkpt>
      <trkpt lat="43.25167" lon="-1.61319">
        <ele>318</ele>
        <time>2026-03-09T17:54:48.000Z</time>
      </trkpt>
      <trkpt lat="43.25145" lon="-1.61321">
        <ele>312</ele>
        <time>2026-03-09T17:54:52.000Z</time>
      </trkpt>
      <trkpt lat="43.25131" lon="-1.61313">
        <ele>311</ele>
        <time>2026-03-09T17:54:55.000Z</time>
      </trkpt>
      <trkpt lat="43.2512" lon="-1.61296">
        <ele>312</ele>
        <time>2026-03-09T17:54:58.000Z</time>
      </trkpt>
      <trkpt lat="43.25105" lon="-1.6124">
        <ele>323</ele>
        <time>2026-03-09T17:55:06.000Z</time>
      </trkpt>
      <trkpt lat="43.25098" lon="-1.61233">
        <ele>325</ele>
        <time>2026-03-09T17:55:07.000Z</time>
      </trkpt>
      <trkpt lat="43.25089" lon="-1.61231">
        <ele>324</ele>
        <time>2026-03-09T17:55:09.000Z</time>
      </trkpt>
      <trkpt lat="43.25054" lon="-1.61292">
        <ele>303</ele>
        <time>2026-03-09T17:55:19.000Z</time>
      </trkpt>
      <trkpt lat="43.25034" lon="-1.6137">
        <ele>281</ele>
        <time>2026-03-09T17:55:30.000Z</time>
      </trkpt>
      <trkpt lat="43.25027" lon="-1.61379">
        <ele>278</ele>
        <time>2026-03-09T17:55:31.000Z</time>
      </trkpt>
      <trkpt lat="43.25018" lon="-1.61377">
        <ele>278</ele>
        <time>2026-03-09T17:55:33.000Z</time>
      </trkpt>
      <trkpt lat="43.25011" lon="-1.61366">
        <ele>279</ele>
        <time>2026-03-09T17:55:35.000Z</time>
      </trkpt>
      <trkpt lat="43.25007" lon="-1.61335">
        <ele>286</ele>
        <time>2026-03-09T17:55:39.000Z</time>
      </trkpt>
      <trkpt lat="43.24999" lon="-1.61308">
        <ele>292</ele>
        <time>2026-03-09T17:55:43.000Z</time>
      </trkpt>
      <trkpt lat="43.24983" lon="-1.61263">
        <ele>306</ele>
        <time>2026-03-09T17:55:49.000Z</time>
      </trkpt>
      <trkpt lat="43.24974" lon="-1.61248">
        <ele>312</ele>
        <time>2026-03-09T17:55:52.000Z</time>
      </trkpt>
      <trkpt lat="43.2496" lon="-1.61235">
        <ele>319</ele>
        <time>2026-03-09T17:55:55.000Z</time>
      </trkpt>
      <trkpt lat="43.24945" lon="-1.61243">
        <ele>320</ele>
        <time>2026-03-09T17:55:58.000Z</time>
      </trkpt>
      <trkpt lat="43.2494" lon="-1.61275">
        <ele>311</ele>
        <time>2026-03-09T17:56:02.000Z</time>
      </trkpt>
      <trkpt lat="43.2494" lon="-1.61304">
        <ele>301</ele>
        <time>2026-03-09T17:56:06.000Z</time>
      </trkpt>
      <trkpt lat="43.24932" lon="-1.61341">
        <ele>290</ele>
        <time>2026-03-09T17:56:11.000Z</time>
      </trkpt>
      <trkpt lat="43.24921" lon="-1.61352">
        <ele>288</ele>
        <time>2026-03-09T17:56:13.000Z</time>
      </trkpt>
      <trkpt lat="43.24903" lon="-1.61362">
        <ele>291</ele>
        <time>2026-03-09T17:56:17.000Z</time>
      </trkpt>
      <trkpt lat="43.24899" lon="-1.61369">
        <ele>290</ele>
        <time>2026-03-09T17:56:18.000Z</time>
      </trkpt>
      <trkpt lat="43.24896" lon="-1.61403">
        <ele>280</ele>
        <time>2026-03-09T17:56:22.000Z</time>
      </trkpt>
      <trkpt lat="43.24891" lon="-1.61417">
        <ele>277</ele>
        <time>2026-03-09T17:56:24.000Z</time>
      </trkpt>
      <trkpt lat="43.24863" lon="-1.61456">
        <ele>275</ele>
        <time>2026-03-09T17:56:31.000Z</time>
      </trkpt>
      <trkpt lat="43.24856" lon="-1.61483">
        <ele>271</ele>
        <time>2026-03-09T17:56:35.000Z</time>
      </trkpt>
      <trkpt lat="43.2485" lon="-1.61498">
        <ele>269</ele>
        <time>2026-03-09T17:56:37.000Z</time>
      </trkpt>
      <trkpt lat="43.24829" lon="-1.61516">
        <ele>271</ele>
        <time>2026-03-09T17:56:42.000Z</time>
      </trkpt>
      <trkpt lat="43.24813" lon="-1.61527">
        <ele>275</ele>
        <time>2026-03-09T17:56:45.000Z</time>
      </trkpt>
      <trkpt lat="43.2481" lon="-1.61559">
        <ele>269</ele>
        <time>2026-03-09T17:56:49.000Z</time>
      </trkpt>
      <trkpt lat="43.24799" lon="-1.61591">
        <ele>266</ele>
        <time>2026-03-09T17:56:54.000Z</time>
      </trkpt>
      <trkpt lat="43.24777" lon="-1.61615">
        <ele>271</ele>
        <time>2026-03-09T17:56:59.000Z</time>
      </trkpt>
      <trkpt lat="43.24769" lon="-1.61648">
        <ele>268</ele>
        <time>2026-03-09T17:57:03.000Z</time>
      </trkpt>
      <trkpt lat="43.24764" lon="-1.61688">
        <ele>260</ele>
        <time>2026-03-09T17:57:08.000Z</time>
      </trkpt>
      <trkpt lat="43.2476" lon="-1.61703">
        <ele>257</ele>
        <time>2026-03-09T17:57:10.000Z</time>
      </trkpt>
      <trkpt lat="43.24728" lon="-1.61756">
        <ele>251</ele>
        <time>2026-03-09T17:57:19.000Z</time>
      </trkpt>
      <trkpt lat="43.24715" lon="-1.61773">
        <ele>252</ele>
        <time>2026-03-09T17:57:23.000Z</time>
      </trkpt>
      <trkpt lat="43.24688" lon="-1.61806">
        <ele>256</ele>
        <time>2026-03-09T17:57:29.000Z</time>
      </trkpt>
      <trkpt lat="43.24681" lon="-1.61827">
        <ele>256</ele>
        <time>2026-03-09T17:57:32.000Z</time>
      </trkpt>
      <trkpt lat="43.24673" lon="-1.61846">
        <ele>256</ele>
        <time>2026-03-09T17:57:35.000Z</time>
      </trkpt>
      <trkpt lat="43.24673" lon="-1.61902">
        <ele>243</ele>
        <time>2026-03-09T17:57:42.000Z</time>
      </trkpt>
      <trkpt lat="43.24664" lon="-1.61927">
        <ele>242</ele>
        <time>2026-03-09T17:57:46.000Z</time>
      </trkpt>
      <trkpt lat="43.24659" lon="-1.61937">
        <ele>242</ele>
        <time>2026-03-09T17:57:47.000Z</time>
      </trkpt>
      <trkpt lat="43.24631" lon="-1.61983">
        <ele>245</ele>
        <time>2026-03-09T17:57:55.000Z</time>
      </trkpt>
      <trkpt lat="43.24628" lon="-1.62">
        <ele>244</ele>
        <time>2026-03-09T17:57:57.000Z</time>
      </trkpt>
      <trkpt lat="43.24628" lon="-1.62023">
        <ele>243</ele>
        <time>2026-03-09T17:58:00.000Z</time>
      </trkpt>
      <trkpt lat="43.24639" lon="-1.62074">
        <ele>234</ele>
        <time>2026-03-09T17:58:07.000Z</time>
      </trkpt>
      <trkpt lat="43.24637" lon="-1.62093">
        <ele>232</ele>
        <time>2026-03-09T17:58:10.000Z</time>
      </trkpt>
      <trkpt lat="43.24632" lon="-1.62104">
        <ele>231</ele>
        <time>2026-03-09T17:58:11.000Z</time>
      </trkpt>
      <trkpt lat="43.24619" lon="-1.62126">
        <ele>233</ele>
        <time>2026-03-09T17:58:15.000Z</time>
      </trkpt>
      <trkpt lat="43.24601" lon="-1.62152">
        <ele>236</ele>
        <time>2026-03-09T17:58:20.000Z</time>
      </trkpt>
      <trkpt lat="43.24596" lon="-1.62165">
        <ele>236</ele>
        <time>2026-03-09T17:58:22.000Z</time>
      </trkpt>
      <trkpt lat="43.24597" lon="-1.62171">
        <ele>234</ele>
        <time>2026-03-09T17:58:22.000Z</time>
      </trkpt>
      <trkpt lat="43.24603" lon="-1.62171">
        <ele>231</ele>
        <time>2026-03-09T17:58:23.000Z</time>
      </trkpt>
      <trkpt lat="43.24607" lon="-1.62167">
        <ele>230</ele>
        <time>2026-03-09T17:58:24.000Z</time>
      </trkpt>
      <trkpt lat="43.24618" lon="-1.62152">
        <ele>227</ele>
        <time>2026-03-09T17:58:27.000Z</time>
      </trkpt>
      <trkpt lat="43.24633" lon="-1.62129">
        <ele>225</ele>
        <time>2026-03-09T17:58:31.000Z</time>
      </trkpt>
      <trkpt lat="43.24653" lon="-1.6209">
        <ele>225</ele>
        <time>2026-03-09T17:58:37.000Z</time>
      </trkpt>
      <trkpt lat="43.24658" lon="-1.62063">
        <ele>226</ele>
        <time>2026-03-09T17:58:41.000Z</time>
      </trkpt>
      <trkpt lat="43.24659" lon="-1.62007">
        <ele>231</ele>
        <time>2026-03-09T17:58:48.000Z</time>
      </trkpt>
      <trkpt lat="43.24665" lon="-1.6198">
        <ele>232</ele>
        <time>2026-03-09T17:58:52.000Z</time>
      </trkpt>
      <trkpt lat="43.24691" lon="-1.61938">
        <ele>228</ele>
        <time>2026-03-09T17:58:59.000Z</time>
      </trkpt>
      <trkpt lat="43.24718" lon="-1.61864">
        <ele>229</ele>
        <time>2026-03-09T17:59:10.000Z</time>
      </trkpt>
      <trkpt lat="43.24728" lon="-1.61847">
        <ele>227</ele>
        <time>2026-03-09T17:59:12.000Z</time>
      </trkpt>
      <trkpt lat="43.24743" lon="-1.61831">
        <ele>223</ele>
        <time>2026-03-09T17:59:16.000Z</time>
      </trkpt>
      <trkpt lat="43.2476" lon="-1.61826">
        <ele>220</ele>
        <time>2026-03-09T17:59:19.000Z</time>
      </trkpt>
      <trkpt lat="43.24782" lon="-1.61815">
        <ele>220</ele>
        <time>2026-03-09T17:59:23.000Z</time>
      </trkpt>
      <trkpt lat="43.24805" lon="-1.61796">
        <ele>219</ele>
        <time>2026-03-09T17:59:28.000Z</time>
      </trkpt>
      <trkpt lat="43.24812" lon="-1.61784">
        <ele>219</ele>
        <time>2026-03-09T17:59:30.000Z</time>
      </trkpt>
      <trkpt lat="43.24831" lon="-1.61755">
        <ele>216</ele>
        <time>2026-03-09T17:59:35.000Z</time>
      </trkpt>
      <trkpt lat="43.24836" lon="-1.61723">
        <ele>221</ele>
        <time>2026-03-09T17:59:39.000Z</time>
      </trkpt>
      <trkpt lat="43.24846" lon="-1.61714">
        <ele>224</ele>
        <time>2026-03-09T17:59:41.000Z</time>
      </trkpt>
      <trkpt lat="43.24853" lon="-1.6173">
        <ele>223</ele>
        <time>2026-03-09T17:59:44.000Z</time>
      </trkpt>
      <trkpt lat="43.24851" lon="-1.61759">
        <ele>220</ele>
        <time>2026-03-09T17:59:47.000Z</time>
      </trkpt>
      <trkpt lat="43.24842" lon="-1.61791">
        <ele>217</ele>
        <time>2026-03-09T17:59:52.000Z</time>
      </trkpt>
      <trkpt lat="43.24821" lon="-1.61831">
        <ele>213</ele>
        <time>2026-03-09T17:59:58.000Z</time>
      </trkpt>
      <trkpt lat="43.24778" lon="-1.61868">
        <ele>213</ele>
        <time>2026-03-09T18:00:07.000Z</time>
      </trkpt>
      <trkpt lat="43.24765" lon="-1.61883">
        <ele>210</ele>
        <time>2026-03-09T18:00:10.000Z</time>
      </trkpt>
      <trkpt lat="43.24753" lon="-1.6192">
        <ele>202</ele>
        <time>2026-03-09T18:00:16.000Z</time>
      </trkpt>
      <trkpt lat="43.24746" lon="-1.61977">
        <ele>199</ele>
        <time>2026-03-09T18:00:23.000Z</time>
      </trkpt>
      <trkpt lat="43.24748" lon="-1.62">
        <ele>197</ele>
        <time>2026-03-09T18:00:26.000Z</time>
      </trkpt>
      <trkpt lat="43.24757" lon="-1.62048">
        <ele>190</ele>
        <time>2026-03-09T18:00:33.000Z</time>
      </trkpt>
      <trkpt lat="43.24752" lon="-1.62079">
        <ele>185</ele>
        <time>2026-03-09T18:00:37.000Z</time>
      </trkpt>
      <trkpt lat="43.24752" lon="-1.62097">
        <ele>183</ele>
        <time>2026-03-09T18:00:39.000Z</time>
      </trkpt>
      <trkpt lat="43.24758" lon="-1.62111">
        <ele>184</ele>
        <time>2026-03-09T18:00:41.000Z</time>
      </trkpt>
      <trkpt lat="43.24765" lon="-1.62114">
        <ele>185</ele>
        <time>2026-03-09T18:00:42.000Z</time>
      </trkpt>
      <trkpt lat="43.2477" lon="-1.62113">
        <ele>185</ele>
        <time>2026-03-09T18:00:43.000Z</time>
      </trkpt>
      <trkpt lat="43.24794" lon="-1.62102">
        <ele>189</ele>
        <time>2026-03-09T18:00:48.000Z</time>
      </trkpt>
      <trkpt lat="43.24817" lon="-1.62086">
        <ele>191</ele>
        <time>2026-03-09T18:00:52.000Z</time>
      </trkpt>
      <trkpt lat="43.24823" lon="-1.62086">
        <ele>192</ele>
        <time>2026-03-09T18:00:53.000Z</time>
      </trkpt>
      <trkpt lat="43.24828" lon="-1.62094">
        <ele>193</ele>
        <time>2026-03-09T18:00:55.000Z</time>
      </trkpt>
      <trkpt lat="43.24828" lon="-1.62103">
        <ele>194</ele>
        <time>2026-03-09T18:00:56.000Z</time>
      </trkpt>
      <trkpt lat="43.24824" lon="-1.62111">
        <ele>194</ele>
        <time>2026-03-09T18:00:57.000Z</time>
      </trkpt>
      <trkpt lat="43.24776" lon="-1.62149">
        <ele>186</ele>
        <time>2026-03-09T18:01:07.000Z</time>
      </trkpt>
      <trkpt lat="43.24757" lon="-1.62158">
        <ele>181</ele>
        <time>2026-03-09T18:01:11.000Z</time>
      </trkpt>
      <trkpt lat="43.24732" lon="-1.62176">
        <ele>184</ele>
        <time>2026-03-09T18:01:16.000Z</time>
      </trkpt>
      <trkpt lat="43.24725" lon="-1.62186">
        <ele>187</ele>
        <time>2026-03-09T18:01:17.000Z</time>
      </trkpt>
      <trkpt lat="43.24696" lon="-1.62285">
        <ele>188</ele>
        <time>2026-03-09T18:01:31.000Z</time>
      </trkpt>
      <trkpt lat="43.24684" lon="-1.62313">
        <ele>184</ele>
        <time>2026-03-09T18:01:36.000Z</time>
      </trkpt>
      <trkpt lat="43.24667" lon="-1.62335">
        <ele>178</ele>
        <time>2026-03-09T18:01:40.000Z</time>
      </trkpt>
      <trkpt lat="43.24597" lon="-1.62408">
        <ele>175</ele>
        <time>2026-03-09T18:01:55.000Z</time>
      </trkpt>
      <trkpt lat="43.24583" lon="-1.62427">
        <ele>169</ele>
        <time>2026-03-09T18:01:59.000Z</time>
      </trkpt>
      <trkpt lat="43.24571" lon="-1.6245">
        <ele>170</ele>
        <time>2026-03-09T18:02:02.000Z</time>
      </trkpt>
      <trkpt lat="43.2457" lon="-1.6247">
        <ele>169</ele>
        <time>2026-03-09T18:02:05.000Z</time>
      </trkpt>
      <trkpt lat="43.24574" lon="-1.62487">
        <ele>166</ele>
        <time>2026-03-09T18:02:07.000Z</time>
      </trkpt>
      <trkpt lat="43.24592" lon="-1.62511">
        <ele>166</ele>
        <time>2026-03-09T18:02:12.000Z</time>
      </trkpt>
      <trkpt lat="43.24595" lon="-1.62519">
        <ele>166</ele>
        <time>2026-03-09T18:02:13.000Z</time>
      </trkpt>
      <trkpt lat="43.24599" lon="-1.62534">
        <ele>167</ele>
        <time>2026-03-09T18:02:15.000Z</time>
      </trkpt>
      <trkpt lat="43.24603" lon="-1.62591">
        <ele>164</ele>
        <time>2026-03-09T18:02:23.000Z</time>
      </trkpt>
      <trkpt lat="43.24601" lon="-1.62607">
        <ele>163</ele>
        <time>2026-03-09T18:02:25.000Z</time>
      </trkpt>
      <trkpt lat="43.2459" lon="-1.62635">
        <ele>159</ele>
        <time>2026-03-09T18:02:29.000Z</time>
      </trkpt>
      <trkpt lat="43.24563" lon="-1.62669">
        <ele>156</ele>
        <time>2026-03-09T18:02:35.000Z</time>
      </trkpt>
      <trkpt lat="43.24539" lon="-1.62688">
        <ele>158</ele>
        <time>2026-03-09T18:02:40.000Z</time>
      </trkpt>
      <trkpt lat="43.24529" lon="-1.62693">
        <ele>159</ele>
        <time>2026-03-09T18:02:42.000Z</time>
      </trkpt>
      <trkpt lat="43.2452" lon="-1.62695">
        <ele>158</ele>
        <time>2026-03-09T18:02:44.000Z</time>
      </trkpt>
      <trkpt lat="43.2448" lon="-1.62696">
        <ele>156</ele>
        <time>2026-03-09T18:02:51.000Z</time>
      </trkpt>
      <trkpt lat="43.24439" lon="-1.62692">
        <ele>155</ele>
        <time>2026-03-09T18:02:58.000Z</time>
      </trkpt>
      <trkpt lat="43.24429" lon="-1.62695">
        <ele>154</ele>
        <time>2026-03-09T18:03:00.000Z</time>
      </trkpt>
      <trkpt lat="43.24417" lon="-1.62702">
        <ele>154</ele>
        <time>2026-03-09T18:03:02.000Z</time>
      </trkpt>
      <trkpt lat="43.24401" lon="-1.62717">
        <ele>155</ele>
        <time>2026-03-09T18:03:06.000Z</time>
      </trkpt>
      <trkpt lat="43.24369" lon="-1.62751">
        <ele>153</ele>
        <time>2026-03-09T18:03:13.000Z</time>
      </trkpt>
      <trkpt lat="43.24357" lon="-1.62766">
        <ele>153</ele>
        <time>2026-03-09T18:03:16.000Z</time>
      </trkpt>
      <trkpt lat="43.24343" lon="-1.62789">
        <ele>151</ele>
        <time>2026-03-09T18:03:20.000Z</time>
      </trkpt>
      <trkpt lat="43.2432" lon="-1.6284">
        <ele>149</ele>
        <time>2026-03-09T18:03:27.000Z</time>
      </trkpt>
      <trkpt lat="43.24298" lon="-1.629">
        <ele>151</ele>
        <time>2026-03-09T18:03:36.000Z</time>
      </trkpt>
      <trkpt lat="43.24294" lon="-1.62915">
        <ele>150</ele>
        <time>2026-03-09T18:03:38.000Z</time>
      </trkpt>
      <trkpt lat="43.24288" lon="-1.62926">
        <ele>149</ele>
        <time>2026-03-09T18:03:40.000Z</time>
      </trkpt>
      <trkpt lat="43.24277" lon="-1.62935">
        <ele>147</ele>
        <time>2026-03-09T18:03:42.000Z</time>
      </trkpt>
      <trkpt lat="43.24258" lon="-1.62946">
        <ele>144</ele>
        <time>2026-03-09T18:03:46.000Z</time>
      </trkpt>
      <trkpt lat="43.24251" lon="-1.62954">
        <ele>143</ele>
        <time>2026-03-09T18:03:48.000Z</time>
      </trkpt>
      <trkpt lat="43.24239" lon="-1.62991">
        <ele>141</ele>
        <time>2026-03-09T18:03:53.000Z</time>
      </trkpt>
      <trkpt lat="43.24232" lon="-1.62999">
        <ele>139</ele>
        <time>2026-03-09T18:03:54.000Z</time>
      </trkpt>
      <trkpt lat="43.24221" lon="-1.63005">
        <ele>139</ele>
        <time>2026-03-09T18:03:57.000Z</time>
      </trkpt>
      <trkpt lat="43.24211" lon="-1.63006">
        <ele>139</ele>
        <time>2026-03-09T18:03:58.000Z</time>
      </trkpt>
      <trkpt lat="43.24149" lon="-1.63009">
        <ele>138</ele>
        <time>2026-03-09T18:04:09.000Z</time>
      </trkpt>
      <trkpt lat="43.24051" lon="-1.63022">
        <ele>147</ele>
        <time>2026-03-09T18:04:27.000Z</time>
      </trkpt>
      <trkpt lat="43.24026" lon="-1.63035">
        <ele>148</ele>
        <time>2026-03-09T18:04:32.000Z</time>
      </trkpt>
      <trkpt lat="43.24011" lon="-1.63046">
        <ele>146</ele>
        <time>2026-03-09T18:04:35.000Z</time>
      </trkpt>
      <trkpt lat="43.24004" lon="-1.63057">
        <ele>143</ele>
        <time>2026-03-09T18:04:37.000Z</time>
      </trkpt>
      <trkpt lat="43.23998" lon="-1.63078">
        <ele>136</ele>
        <time>2026-03-09T18:04:40.000Z</time>
      </trkpt>
      <trkpt lat="43.23996" lon="-1.63126">
        <ele>132</ele>
        <time>2026-03-09T18:04:46.000Z</time>
      </trkpt>
      <trkpt lat="43.23987" lon="-1.63141">
        <ele>134</ele>
        <time>2026-03-09T18:04:48.000Z</time>
      </trkpt>
      <trkpt lat="43.2397" lon="-1.63161">
        <ele>137</ele>
        <time>2026-03-09T18:04:52.000Z</time>
      </trkpt>
      <trkpt lat="43.23944" lon="-1.63196">
        <ele>141</ele>
        <time>2026-03-09T18:04:59.000Z</time>
      </trkpt>
      <trkpt lat="43.23944" lon="-1.63204">
        <ele>141</ele>
        <time>2026-03-09T18:05:00.000Z</time>
      </trkpt>
      <trkpt lat="43.23953" lon="-1.63244">
        <ele>137</ele>
        <time>2026-03-09T18:05:05.000Z</time>
      </trkpt>
      <trkpt lat="43.23959" lon="-1.63289">
        <ele>134</ele>
        <time>2026-03-09T18:05:11.000Z</time>
      </trkpt>
      <trkpt lat="43.23955" lon="-1.63312">
        <ele>132</ele>
        <time>2026-03-09T18:05:14.000Z</time>
      </trkpt>
      <trkpt lat="43.23948" lon="-1.6333">
        <ele>129</ele>
        <time>2026-03-09T18:05:17.000Z</time>
      </trkpt>
      <trkpt lat="43.23944" lon="-1.63337">
        <ele>128</ele>
        <time>2026-03-09T18:05:18.000Z</time>
      </trkpt>
      <trkpt lat="43.23936" lon="-1.6334">
        <ele>127</ele>
        <time>2026-03-09T18:05:19.000Z</time>
      </trkpt>
      <trkpt lat="43.23903" lon="-1.63346">
        <ele>124</ele>
        <time>2026-03-09T18:05:25.000Z</time>
      </trkpt>
      <trkpt lat="43.23871" lon="-1.63361">
        <ele>126</ele>
        <time>2026-03-09T18:05:31.000Z</time>
      </trkpt>
      <trkpt lat="43.23862" lon="-1.63362">
        <ele>126</ele>
        <time>2026-03-09T18:05:33.000Z</time>
      </trkpt>
      <trkpt lat="43.23842" lon="-1.63359">
        <ele>128</ele>
        <time>2026-03-09T18:05:37.000Z</time>
      </trkpt>
      <trkpt lat="43.23831" lon="-1.6336">
        <ele>128</ele>
        <time>2026-03-09T18:05:39.000Z</time>
      </trkpt>
      <trkpt lat="43.23817" lon="-1.6337">
        <ele>125</ele>
        <time>2026-03-09T18:05:41.000Z</time>
      </trkpt>
      <trkpt lat="43.23786" lon="-1.63406">
        <ele>114</ele>
        <time>2026-03-09T18:05:49.000Z</time>
      </trkpt>
      <trkpt lat="43.23772" lon="-1.63415">
        <ele>111</ele>
        <time>2026-03-09T18:05:51.000Z</time>
      </trkpt>
      <trkpt lat="43.23736" lon="-1.63427">
        <ele>109</ele>
        <time>2026-03-09T18:05:58.000Z</time>
      </trkpt>
      <trkpt lat="43.23717" lon="-1.6344">
        <ele>108</ele>
        <time>2026-03-09T18:06:02.000Z</time>
      </trkpt>
      <trkpt lat="43.23668" lon="-1.63484">
        <ele>104</ele>
        <time>2026-03-09T18:06:12.000Z</time>
      </trkpt>
      <trkpt lat="43.23662" lon="-1.63491">
        <ele>103</ele>
        <time>2026-03-09T18:06:14.000Z</time>
      </trkpt>
      <trkpt lat="43.23658" lon="-1.635">
        <ele>103</ele>
        <time>2026-03-09T18:06:15.000Z</time>
      </trkpt>
      <trkpt lat="43.23649" lon="-1.63532">
        <ele>106</ele>
        <time>2026-03-09T18:06:19.000Z</time>
      </trkpt>
      <trkpt lat="43.23645" lon="-1.63556">
        <ele>108</ele>
        <time>2026-03-09T18:06:23.000Z</time>
      </trkpt>
      <trkpt lat="43.23638" lon="-1.63571">
        <ele>109</ele>
        <time>2026-03-09T18:06:25.000Z</time>
      </trkpt>
      <trkpt lat="43.23632" lon="-1.63578">
        <ele>109</ele>
        <time>2026-03-09T18:06:26.000Z</time>
      </trkpt>
      <trkpt lat="43.23623" lon="-1.63585">
        <ele>108</ele>
        <time>2026-03-09T18:06:28.000Z</time>
      </trkpt>
      <trkpt lat="43.23611" lon="-1.63586">
        <ele>106</ele>
        <time>2026-03-09T18:06:30.000Z</time>
      </trkpt>
      <trkpt lat="43.23596" lon="-1.63577">
        <ele>103</ele>
        <time>2026-03-09T18:06:33.000Z</time>
      </trkpt>
      <trkpt lat="43.23587" lon="-1.63573">
        <ele>101</ele>
        <time>2026-03-09T18:06:35.000Z</time>
      </trkpt>
      <trkpt lat="43.23557" lon="-1.63592">
        <ele>100</ele>
        <time>2026-03-09T18:06:41.000Z</time>
      </trkpt>
      <trkpt lat="43.2353" lon="-1.63597">
        <ele>99</ele>
        <time>2026-03-09T18:06:46.000Z</time>
      </trkpt>
      <trkpt lat="43.23523" lon="-1.63601">
        <ele>99</ele>
        <time>2026-03-09T18:06:47.000Z</time>
      </trkpt>
      <trkpt lat="43.23474" lon="-1.6363">
        <ele>98</ele>
        <time>2026-03-09T18:06:56.000Z</time>
      </trkpt>
      <trkpt lat="43.23459" lon="-1.63643">
        <ele>98</ele>
        <time>2026-03-09T18:07:00.000Z</time>
      </trkpt>
      <trkpt lat="43.23433" lon="-1.63672">
        <ele>99</ele>
        <time>2026-03-09T18:07:06.000Z</time>
      </trkpt>
      <trkpt lat="43.23402" lon="-1.6369">
        <ele>101</ele>
        <time>2026-03-09T18:07:12.000Z</time>
      </trkpt>
      <trkpt lat="43.23401" lon="-1.63729">
        <ele>101</ele>
        <time>2026-03-09T18:07:17.000Z</time>
      </trkpt>
      <trkpt lat="43.23403" lon="-1.6377">
        <ele>101</ele>
        <time>2026-03-09T18:07:22.000Z</time>
      </trkpt>
      <trkpt lat="43.23412" lon="-1.638">
        <ele>99</ele>
        <time>2026-03-09T18:07:26.000Z</time>
      </trkpt>
      <trkpt lat="43.23415" lon="-1.63818">
        <ele>99</ele>
        <time>2026-03-09T18:07:28.000Z</time>
      </trkpt>
      <trkpt lat="43.23412" lon="-1.63859">
        <ele>98</ele>
        <time>2026-03-09T18:07:34.000Z</time>
      </trkpt>
      <trkpt lat="43.23413" lon="-1.63877">
        <ele>98</ele>
        <time>2026-03-09T18:07:36.000Z</time>
      </trkpt>
      <trkpt lat="43.23424" lon="-1.63886">
        <ele>97</ele>
        <time>2026-03-09T18:07:38.000Z</time>
      </trkpt>
      <trkpt lat="43.23453" lon="-1.63896">
        <ele>98</ele>
        <time>2026-03-09T18:07:44.000Z</time>
      </trkpt>
      <trkpt lat="43.23509" lon="-1.63909">
        <ele>101</ele>
        <time>2026-03-09T18:07:54.000Z</time>
      </trkpt>
      <trkpt lat="43.23526" lon="-1.63916">
        <ele>107</ele>
        <time>2026-03-09T18:07:57.000Z</time>
      </trkpt>
      <trkpt lat="43.23543" lon="-1.63928">
        <ele>112</ele>
        <time>2026-03-09T18:08:00.000Z</time>
      </trkpt>
      <trkpt lat="43.23551" lon="-1.63945">
        <ele>114</ele>
        <time>2026-03-09T18:08:03.000Z</time>
      </trkpt>
      <trkpt lat="43.23563" lon="-1.63982">
        <ele>114</ele>
        <time>2026-03-09T18:08:08.000Z</time>
      </trkpt>
      <trkpt lat="43.23595" lon="-1.64099">
        <ele>107</ele>
        <time>2026-03-09T18:08:25.000Z</time>
      </trkpt>
      <trkpt lat="43.23606" lon="-1.64127">
        <ele>106</ele>
        <time>2026-03-09T18:08:29.000Z</time>
      </trkpt>
      <trkpt lat="43.23618" lon="-1.6415">
        <ele>105</ele>
        <time>2026-03-09T18:08:32.000Z</time>
      </trkpt>
      <trkpt lat="43.23627" lon="-1.64177">
        <ele>105</ele>
        <time>2026-03-09T18:08:36.000Z</time>
      </trkpt>
      <trkpt lat="43.23631" lon="-1.64205">
        <ele>109</ele>
        <time>2026-03-09T18:08:40.000Z</time>
      </trkpt>
      <trkpt lat="43.23633" lon="-1.64252">
        <ele>114</ele>
        <time>2026-03-09T18:08:46.000Z</time>
      </trkpt>
      <trkpt lat="43.23629" lon="-1.64306">
        <ele>115</ele>
        <time>2026-03-09T18:08:53.000Z</time>
      </trkpt>
      <trkpt lat="43.23606" lon="-1.64486">
        <ele>110</ele>
        <time>2026-03-09T18:09:17.000Z</time>
      </trkpt>
      <trkpt lat="43.23587" lon="-1.64562">
        <ele>108</ele>
        <time>2026-03-09T18:09:27.000Z</time>
      </trkpt>
      <trkpt lat="43.2356" lon="-1.64678">
        <ele>111</ele>
        <time>2026-03-09T18:09:43.000Z</time>
      </trkpt>
      <trkpt lat="43.23557" lon="-1.64704">
        <ele>113</ele>
        <time>2026-03-09T18:09:46.000Z</time>
      </trkpt>
      <trkpt lat="43.23555" lon="-1.64735">
        <ele>115</ele>
        <time>2026-03-09T18:09:50.000Z</time>
      </trkpt>
      <trkpt lat="43.23559" lon="-1.64819">
        <ele>121</ele>
        <time>2026-03-09T18:10:01.000Z</time>
      </trkpt>
      <trkpt lat="43.23551" lon="-1.64894">
        <ele>123</ele>
        <time>2026-03-09T18:10:11.000Z</time>
      </trkpt>
      <trkpt lat="43.23537" lon="-1.6498">
        <ele>122</ele>
        <time>2026-03-09T18:10:22.000Z</time>
      </trkpt>
      <trkpt lat="43.23536" lon="-1.6502">
        <ele>122</ele>
        <time>2026-03-09T18:10:28.000Z</time>
      </trkpt>
      <trkpt lat="43.23539" lon="-1.6511">
        <ele>119</ele>
        <time>2026-03-09T18:10:39.000Z</time>
      </trkpt>
      <trkpt lat="43.23548" lon="-1.65136">
        <ele>120</ele>
        <time>2026-03-09T18:10:43.000Z</time>
      </trkpt>
      <trkpt lat="43.23648" lon="-1.65244">
        <ele>135</ele>
        <time>2026-03-09T18:11:06.000Z</time>
      </trkpt>
      <trkpt lat="43.2366" lon="-1.65273">
        <ele>134</ele>
        <time>2026-03-09T18:11:10.000Z</time>
      </trkpt>
      <trkpt lat="43.23676" lon="-1.65389">
        <ele>127</ele>
        <time>2026-03-09T18:11:25.000Z</time>
      </trkpt>
      <trkpt lat="43.23686" lon="-1.6543">
        <ele>129</ele>
        <time>2026-03-09T18:11:31.000Z</time>
      </trkpt>
      <trkpt lat="43.23732" lon="-1.655">
        <ele>142</ele>
        <time>2026-03-09T18:11:43.000Z</time>
      </trkpt>
      <trkpt lat="43.23738" lon="-1.65536">
        <ele>146</ele>
        <time>2026-03-09T18:11:48.000Z</time>
      </trkpt>
      <trkpt lat="43.23732" lon="-1.65567">
        <ele>145</ele>
        <time>2026-03-09T18:11:52.000Z</time>
      </trkpt>
      <trkpt lat="43.23712" lon="-1.65618">
        <ele>141</ele>
        <time>2026-03-09T18:12:00.000Z</time>
      </trkpt>
      <trkpt lat="43.2367" lon="-1.65791">
        <ele>127</ele>
        <time>2026-03-09T18:12:23.000Z</time>
      </trkpt>
      <trkpt lat="43.23661" lon="-1.65813">
        <ele>127</ele>
        <time>2026-03-09T18:12:27.000Z</time>
      </trkpt>
      <trkpt lat="43.23647" lon="-1.65826">
        <ele>126</ele>
        <time>2026-03-09T18:12:30.000Z</time>
      </trkpt>
      <trkpt lat="43.23614" lon="-1.65837">
        <ele>120</ele>
        <time>2026-03-09T18:12:36.000Z</time>
      </trkpt>
      <trkpt lat="43.23603" lon="-1.65847">
        <ele>117</ele>
        <time>2026-03-09T18:12:38.000Z</time>
      </trkpt>
      <trkpt lat="43.23595" lon="-1.65865">
        <ele>114</ele>
        <time>2026-03-09T18:12:41.000Z</time>
      </trkpt>
      <trkpt lat="43.23592" lon="-1.65884">
        <ele>112</ele>
        <time>2026-03-09T18:12:43.000Z</time>
      </trkpt>
      <trkpt lat="43.23597" lon="-1.65905">
        <ele>111</ele>
        <time>2026-03-09T18:12:46.000Z</time>
      </trkpt>
      <trkpt lat="43.23617" lon="-1.65955">
        <ele>110</ele>
        <time>2026-03-09T18:12:53.000Z</time>
      </trkpt>
      <trkpt lat="43.23637" lon="-1.66017">
        <ele>102</ele>
        <time>2026-03-09T18:13:02.000Z</time>
      </trkpt>
      <trkpt lat="43.23645" lon="-1.66034">
        <ele>99</ele>
        <time>2026-03-09T18:13:05.000Z</time>
      </trkpt>
      <trkpt lat="43.23655" lon="-1.66043">
        <ele>98</ele>
        <time>2026-03-09T18:13:07.000Z</time>
      </trkpt>
      <trkpt lat="43.23726" lon="-1.66065">
        <ele>102</ele>
        <time>2026-03-09T18:13:20.000Z</time>
      </trkpt>
      <trkpt lat="43.23773" lon="-1.66088">
        <ele>99</ele>
        <time>2026-03-09T18:13:29.000Z</time>
      </trkpt>
      <trkpt lat="43.23794" lon="-1.66108">
        <ele>96</ele>
        <time>2026-03-09T18:13:33.000Z</time>
      </trkpt>
      <trkpt lat="43.2381" lon="-1.66132">
        <ele>90</ele>
        <time>2026-03-09T18:13:38.000Z</time>
      </trkpt>
      <trkpt lat="43.23827" lon="-1.66149">
        <ele>87</ele>
        <time>2026-03-09T18:13:41.000Z</time>
      </trkpt>
      <trkpt lat="43.23854" lon="-1.66159">
        <ele>87</ele>
        <time>2026-03-09T18:13:46.000Z</time>
      </trkpt>
      <trkpt lat="43.23877" lon="-1.66162">
        <ele>89</ele>
        <time>2026-03-09T18:13:50.000Z</time>
      </trkpt>
      <trkpt lat="43.23895" lon="-1.66157">
        <ele>93</ele>
        <time>2026-03-09T18:13:54.000Z</time>
      </trkpt>
      <trkpt lat="43.23911" lon="-1.66157">
        <ele>95</ele>
        <time>2026-03-09T18:13:57.000Z</time>
      </trkpt>
      <trkpt lat="43.23924" lon="-1.6617">
        <ele>95</ele>
        <time>2026-03-09T18:13:59.000Z</time>
      </trkpt>
      <trkpt lat="43.23933" lon="-1.66183">
        <ele>95</ele>
        <time>2026-03-09T18:14:02.000Z</time>
      </trkpt>
      <trkpt lat="43.23954" lon="-1.66236">
        <ele>90</ele>
        <time>2026-03-09T18:14:10.000Z</time>
      </trkpt>
      <trkpt lat="43.23959" lon="-1.6626">
        <ele>88</ele>
        <time>2026-03-09T18:14:13.000Z</time>
      </trkpt>
      <trkpt lat="43.23963" lon="-1.66291">
        <ele>88</ele>
        <time>2026-03-09T18:14:17.000Z</time>
      </trkpt>
      <trkpt lat="43.23961" lon="-1.66323">
        <ele>86</ele>
        <time>2026-03-09T18:14:21.000Z</time>
      </trkpt>
      <trkpt lat="43.23957" lon="-1.66355">
        <ele>86</ele>
        <time>2026-03-09T18:14:25.000Z</time>
      </trkpt>
      <trkpt lat="43.23944" lon="-1.66408">
        <ele>83</ele>
        <time>2026-03-09T18:14:32.000Z</time>
      </trkpt>
      <trkpt lat="43.23921" lon="-1.66488">
        <ele>78</ele>
        <time>2026-03-09T18:14:44.000Z</time>
      </trkpt>
      <trkpt lat="43.23915" lon="-1.66518">
        <ele>76</ele>
        <time>2026-03-09T18:14:48.000Z</time>
      </trkpt>
      <trkpt lat="43.23923" lon="-1.66543">
        <ele>75</ele>
        <time>2026-03-09T18:14:51.000Z</time>
      </trkpt>
      <trkpt lat="43.23939" lon="-1.66559">
        <ele>75</ele>
        <time>2026-03-09T18:14:55.000Z</time>
      </trkpt>
      <trkpt lat="43.23958" lon="-1.66565">
        <ele>77</ele>
        <time>2026-03-09T18:14:58.000Z</time>
      </trkpt>
      <trkpt lat="43.23992" lon="-1.66563">
        <ele>81</ele>
        <time>2026-03-09T18:15:04.000Z</time>
      </trkpt>
      <trkpt lat="43.24016" lon="-1.66569">
        <ele>82</ele>
        <time>2026-03-09T18:15:09.000Z</time>
      </trkpt>
      <trkpt lat="43.24043" lon="-1.66584">
        <ele>82</ele>
        <time>2026-03-09T18:15:14.000Z</time>
      </trkpt>
      <trkpt lat="43.24071" lon="-1.66595">
        <ele>84</ele>
        <time>2026-03-09T18:15:19.000Z</time>
      </trkpt>
      <trkpt lat="43.24104" lon="-1.66605">
        <ele>91</ele>
        <time>2026-03-09T18:15:25.000Z</time>
      </trkpt>
      <trkpt lat="43.2412" lon="-1.66617">
        <ele>94</ele>
        <time>2026-03-09T18:15:28.000Z</time>
      </trkpt>
      <trkpt lat="43.24128" lon="-1.66635">
        <ele>95</ele>
        <time>2026-03-09T18:15:31.000Z</time>
      </trkpt>
      <trkpt lat="43.24128" lon="-1.66657">
        <ele>92</ele>
        <time>2026-03-09T18:15:34.000Z</time>
      </trkpt>
      <trkpt lat="43.24121" lon="-1.66699">
        <ele>90</ele>
        <time>2026-03-09T18:15:39.000Z</time>
      </trkpt>
      <trkpt lat="43.24107" lon="-1.66735">
        <ele>88</ele>
        <time>2026-03-09T18:15:45.000Z</time>
      </trkpt>
      <trkpt lat="43.24088" lon="-1.6676">
        <ele>84</ele>
        <time>2026-03-09T18:15:49.000Z</time>
      </trkpt>
      <trkpt lat="43.24025" lon="-1.66796">
        <ele>76</ele>
        <time>2026-03-09T18:16:01.000Z</time>
      </trkpt>
      <trkpt lat="43.23982" lon="-1.66838">
        <ele>73</ele>
        <time>2026-03-09T18:16:11.000Z</time>
      </trkpt>
      <trkpt lat="43.23976" lon="-1.66848">
        <ele>73</ele>
        <time>2026-03-09T18:16:13.000Z</time>
      </trkpt>
      <trkpt lat="43.23972" lon="-1.66867">
        <ele>73</ele>
        <time>2026-03-09T18:16:15.000Z</time>
      </trkpt>
      <trkpt lat="43.23976" lon="-1.66889">
        <ele>72</ele>
        <time>2026-03-09T18:16:18.000Z</time>
      </trkpt>
      <trkpt lat="43.23984" lon="-1.66902">
        <ele>71</ele>
        <time>2026-03-09T18:16:20.000Z</time>
      </trkpt>
      <trkpt lat="43.23996" lon="-1.66913">
        <ele>70</ele>
        <time>2026-03-09T18:16:23.000Z</time>
      </trkpt>
      <trkpt lat="43.24103" lon="-1.66947">
        <ele>76</ele>
        <time>2026-03-09T18:16:42.000Z</time>
      </trkpt>
      <trkpt lat="43.24122" lon="-1.66958">
        <ele>75</ele>
        <time>2026-03-09T18:16:46.000Z</time>
      </trkpt>
      <trkpt lat="43.24153" lon="-1.66969">
        <ele>72</ele>
        <time>2026-03-09T18:16:52.000Z</time>
      </trkpt>
      <trkpt lat="43.24232" lon="-1.66972">
        <ele>72</ele>
        <time>2026-03-09T18:17:06.000Z</time>
      </trkpt>
      <trkpt lat="43.24253" lon="-1.66968">
        <ele>74</ele>
        <time>2026-03-09T18:17:10.000Z</time>
      </trkpt>
      <trkpt lat="43.2429" lon="-1.66991">
        <ele>63</ele>
        <time>2026-03-09T18:17:17.000Z</time>
      </trkpt>
      <trkpt lat="43.24295" lon="-1.66992">
        <ele>62</ele>
        <time>2026-03-09T18:17:18.000Z</time>
      </trkpt>
      <trkpt lat="43.24301" lon="-1.66998">
        <ele>59</ele>
        <time>2026-03-09T18:17:19.000Z</time>
      </trkpt>
      <trkpt lat="43.24304" lon="-1.6699">
        <ele>62</ele>
        <time>2026-03-09T18:17:20.000Z</time>
      </trkpt>
      <trkpt lat="43.24457" lon="-1.66916">
        <ele>70</ele>
        <time>2026-03-09T18:17:49.000Z</time>
      </trkpt>
      <trkpt lat="43.24546" lon="-1.66885">
        <ele>76</ele>
        <time>2026-03-09T18:18:05.000Z</time>
      </trkpt>
      <trkpt lat="43.24557" lon="-1.66881">
        <ele>76</ele>
        <time>2026-03-09T18:18:07.000Z</time>
      </trkpt>
      <trkpt lat="43.24583" lon="-1.66878">
        <ele>74</ele>
        <time>2026-03-09T18:18:12.000Z</time>
      </trkpt>
      <trkpt lat="43.24603" lon="-1.6688">
        <ele>75</ele>
        <time>2026-03-09T18:18:16.000Z</time>
      </trkpt>
      <trkpt lat="43.24622" lon="-1.66888">
        <ele>73</ele>
        <time>2026-03-09T18:18:19.000Z</time>
      </trkpt>
      <trkpt lat="43.24694" lon="-1.66944">
        <ele>68</ele>
        <time>2026-03-09T18:18:34.000Z</time>
      </trkpt>
      <trkpt lat="43.24796" lon="-1.67042">
        <ele>60</ele>
        <time>2026-03-09T18:18:56.000Z</time>
      </trkpt>
      <trkpt lat="43.24858" lon="-1.67088">
        <ele>61</ele>
        <time>2026-03-09T18:19:09.000Z</time>
      </trkpt>
      <trkpt lat="43.24929" lon="-1.67157">
        <ele>61</ele>
        <time>2026-03-09T18:19:24.000Z</time>
      </trkpt>
      <trkpt lat="43.25" lon="-1.67219">
        <ele>60</ele>
        <time>2026-03-09T18:19:39.000Z</time>
      </trkpt>
      <trkpt lat="43.25051" lon="-1.67276">
        <ele>65</ele>
        <time>2026-03-09T18:19:51.000Z</time>
      </trkpt>
      <trkpt lat="43.25108" lon="-1.67345">
        <ele>68</ele>
        <time>2026-03-09T18:20:04.000Z</time>
      </trkpt>
      <trkpt lat="43.2513" lon="-1.67381">
        <ele>73</ele>
        <time>2026-03-09T18:20:10.000Z</time>
      </trkpt>
      <trkpt lat="43.25151" lon="-1.67423">
        <ele>71</ele>
        <time>2026-03-09T18:20:17.000Z</time>
      </trkpt>
      <trkpt lat="43.25169" lon="-1.67492">
        <ele>70</ele>
        <time>2026-03-09T18:20:26.000Z</time>
      </trkpt>
      <trkpt lat="43.2517" lon="-1.6752">
        <ele>70</ele>
        <time>2026-03-09T18:20:30.000Z</time>
      </trkpt>
      <trkpt lat="43.25169" lon="-1.67543">
        <ele>70</ele>
        <time>2026-03-09T18:20:33.000Z</time>
      </trkpt>
      <trkpt lat="43.25163" lon="-1.67576">
        <ele>68</ele>
        <time>2026-03-09T18:20:37.000Z</time>
      </trkpt>
      <trkpt lat="43.25161" lon="-1.67611">
        <ele>68</ele>
        <time>2026-03-09T18:20:42.000Z</time>
      </trkpt>
      <trkpt lat="43.25152" lon="-1.67668">
        <ele>68</ele>
        <time>2026-03-09T18:20:50.000Z</time>
      </trkpt>
      <trkpt lat="43.25145" lon="-1.67737">
        <ele>65</ele>
        <time>2026-03-09T18:20:59.000Z</time>
      </trkpt>
      <trkpt lat="43.25143" lon="-1.67777">
        <ele>63</ele>
        <time>2026-03-09T18:21:04.000Z</time>
      </trkpt>
      <trkpt lat="43.25145" lon="-1.67817">
        <ele>61</ele>
        <time>2026-03-09T18:21:09.000Z</time>
      </trkpt>
      <trkpt lat="43.25153" lon="-1.67868">
        <ele>59</ele>
        <time>2026-03-09T18:21:16.000Z</time>
      </trkpt>
      <trkpt lat="43.25159" lon="-1.67889">
        <ele>58</ele>
        <time>2026-03-09T18:21:19.000Z</time>
      </trkpt>
      <trkpt lat="43.25166" lon="-1.67913">
        <ele>56</ele>
        <time>2026-03-09T18:21:22.000Z</time>
      </trkpt>
      <trkpt lat="43.25189" lon="-1.67964">
        <ele>57</ele>
        <time>2026-03-09T18:21:30.000Z</time>
      </trkpt>
      <trkpt lat="43.25217" lon="-1.68007">
        <ele>56</ele>
        <time>2026-03-09T18:21:37.000Z</time>
      </trkpt>
      <trkpt lat="43.25237" lon="-1.68022">
        <ele>58</ele>
        <time>2026-03-09T18:21:41.000Z</time>
      </trkpt>
      <trkpt lat="43.25256" lon="-1.68033">
        <ele>58</ele>
        <time>2026-03-09T18:21:45.000Z</time>
      </trkpt>
      <trkpt lat="43.25301" lon="-1.68041">
        <ele>59</ele>
        <time>2026-03-09T18:21:53.000Z</time>
      </trkpt>
      <trkpt lat="43.25425" lon="-1.68038">
        <ele>63</ele>
        <time>2026-03-09T18:22:15.000Z</time>
      </trkpt>
      <trkpt lat="43.2552" lon="-1.68052">
        <ele>57</ele>
        <time>2026-03-09T18:22:32.000Z</time>
      </trkpt>
      <trkpt lat="43.25544" lon="-1.68051">
        <ele>57</ele>
        <time>2026-03-09T18:22:36.000Z</time>
      </trkpt>
      <trkpt lat="43.25568" lon="-1.68047">
        <ele>58</ele>
        <time>2026-03-09T18:22:41.000Z</time>
      </trkpt>
      <trkpt lat="43.25628" lon="-1.68023">
        <ele>57</ele>
        <time>2026-03-09T18:22:52.000Z</time>
      </trkpt>
      <trkpt lat="43.25661" lon="-1.68003">
        <ele>53</ele>
        <time>2026-03-09T18:22:58.000Z</time>
      </trkpt>
      <trkpt lat="43.25692" lon="-1.67974">
        <ele>53</ele>
        <time>2026-03-09T18:23:05.000Z</time>
      </trkpt>
      <trkpt lat="43.25707" lon="-1.67953">
        <ele>55</ele>
        <time>2026-03-09T18:23:09.000Z</time>
      </trkpt>
      <trkpt lat="43.25727" lon="-1.6793">
        <ele>59</ele>
        <time>2026-03-09T18:23:13.000Z</time>
      </trkpt>
      <trkpt lat="43.25748" lon="-1.67917">
        <ele>61</ele>
        <time>2026-03-09T18:23:17.000Z</time>
      </trkpt>
      <trkpt lat="43.25769" lon="-1.67909">
        <ele>62</ele>
        <time>2026-03-09T18:23:21.000Z</time>
      </trkpt>
      <trkpt lat="43.25808" lon="-1.67892">
        <ele>64</ele>
        <time>2026-03-09T18:23:29.000Z</time>
      </trkpt>
      <trkpt lat="43.25936" lon="-1.67841">
        <ele>70</ele>
        <time>2026-03-09T18:23:52.000Z</time>
      </trkpt>
      <trkpt lat="43.2596" lon="-1.67838">
        <ele>70</ele>
        <time>2026-03-09T18:23:57.000Z</time>
      </trkpt>
      <trkpt lat="43.25985" lon="-1.67843">
        <ele>68</ele>
        <time>2026-03-09T18:24:01.000Z</time>
      </trkpt>
      <trkpt lat="43.26031" lon="-1.67855">
        <ele>68</ele>
        <time>2026-03-09T18:24:09.000Z</time>
      </trkpt>
      <trkpt lat="43.26055" lon="-1.6787">
        <ele>66</ele>
        <time>2026-03-09T18:24:14.000Z</time>
      </trkpt>
      <trkpt lat="43.26064" lon="-1.67875">
        <ele>65</ele>
        <time>2026-03-09T18:24:16.000Z</time>
      </trkpt>
      <trkpt lat="43.26091" lon="-1.67899">
        <ele>63</ele>
        <time>2026-03-09T18:24:22.000Z</time>
      </trkpt>
      <trkpt lat="43.26115" lon="-1.67948">
        <ele>66</ele>
        <time>2026-03-09T18:24:29.000Z</time>
      </trkpt>
      <trkpt lat="43.26122" lon="-1.67972">
        <ele>67</ele>
        <time>2026-03-09T18:24:33.000Z</time>
      </trkpt>
      <trkpt lat="43.26125" lon="-1.68002">
        <ele>67</ele>
        <time>2026-03-09T18:24:37.000Z</time>
      </trkpt>
      <trkpt lat="43.26122" lon="-1.68055">
        <ele>66</ele>
        <time>2026-03-09T18:24:43.000Z</time>
      </trkpt>
      <trkpt lat="43.26099" lon="-1.68237">
        <ele>59</ele>
        <time>2026-03-09T18:25:07.000Z</time>
      </trkpt>
      <trkpt lat="43.26099" lon="-1.68268">
        <ele>59</ele>
        <time>2026-03-09T18:25:11.000Z</time>
      </trkpt>
      <trkpt lat="43.26101" lon="-1.68294">
        <ele>59</ele>
        <time>2026-03-09T18:25:15.000Z</time>
      </trkpt>
      <trkpt lat="43.26116" lon="-1.68361">
        <ele>60</ele>
        <time>2026-03-09T18:25:24.000Z</time>
      </trkpt>
      <trkpt lat="43.26118" lon="-1.68379">
        <ele>59</ele>
        <time>2026-03-09T18:25:26.000Z</time>
      </trkpt>
      <trkpt lat="43.26134" lon="-1.68412">
        <ele>56</ele>
        <time>2026-03-09T18:25:31.000Z</time>
      </trkpt>
      <trkpt lat="43.26162" lon="-1.68454">
        <ele>52</ele>
        <time>2026-03-09T18:25:39.000Z</time>
      </trkpt>
      <trkpt lat="43.26183" lon="-1.68479">
        <ele>51</ele>
        <time>2026-03-09T18:25:44.000Z</time>
      </trkpt>
      <trkpt lat="43.26207" lon="-1.68499">
        <ele>49</ele>
        <time>2026-03-09T18:25:49.000Z</time>
      </trkpt>
      <trkpt lat="43.26225" lon="-1.68512">
        <ele>49</ele>
        <time>2026-03-09T18:25:52.000Z</time>
      </trkpt>
      <trkpt lat="43.26255" lon="-1.68527">
        <ele>47</ele>
        <time>2026-03-09T18:25:58.000Z</time>
      </trkpt>
      <trkpt lat="43.26284" lon="-1.68538">
        <ele>48</ele>
        <time>2026-03-09T18:26:03.000Z</time>
      </trkpt>
      <trkpt lat="43.26309" lon="-1.68542">
        <ele>50</ele>
        <time>2026-03-09T18:26:08.000Z</time>
      </trkpt>
      <trkpt lat="43.26336" lon="-1.68543">
        <ele>53</ele>
        <time>2026-03-09T18:26:13.000Z</time>
      </trkpt>
      <trkpt lat="43.26393" lon="-1.68539">
        <ele>53</ele>
        <time>2026-03-09T18:26:23.000Z</time>
      </trkpt>
      <trkpt lat="43.26425" lon="-1.68532">
        <ele>53</ele>
        <time>2026-03-09T18:26:29.000Z</time>
      </trkpt>
      <trkpt lat="43.26463" lon="-1.6852">
        <ele>53</ele>
        <time>2026-03-09T18:26:35.000Z</time>
      </trkpt>
      <trkpt lat="43.2649" lon="-1.68508">
        <ele>52</ele>
        <time>2026-03-09T18:26:40.000Z</time>
      </trkpt>
      <trkpt lat="43.26531" lon="-1.68485">
        <ele>52</ele>
        <time>2026-03-09T18:26:48.000Z</time>
      </trkpt>
      <trkpt lat="43.26572" lon="-1.68456">
        <ele>53</ele>
        <time>2026-03-09T18:26:57.000Z</time>
      </trkpt>
      <trkpt lat="43.26715" lon="-1.68348">
        <ele>54</ele>
        <time>2026-03-09T18:27:26.000Z</time>
      </trkpt>
      <trkpt lat="43.26744" lon="-1.68328">
        <ele>54</ele>
        <time>2026-03-09T18:27:31.000Z</time>
      </trkpt>
      <trkpt lat="43.2677" lon="-1.68316">
        <ele>57</ele>
        <time>2026-03-09T18:27:36.000Z</time>
      </trkpt>
      <trkpt lat="43.26791" lon="-1.6831">
        <ele>59</ele>
        <time>2026-03-09T18:27:40.000Z</time>
      </trkpt>
      <trkpt lat="43.26814" lon="-1.68307">
        <ele>60</ele>
        <time>2026-03-09T18:27:44.000Z</time>
      </trkpt>
      <trkpt lat="43.26836" lon="-1.68308">
        <ele>60</ele>
        <time>2026-03-09T18:27:48.000Z</time>
      </trkpt>
      <trkpt lat="43.26857" lon="-1.68311">
        <ele>63</ele>
        <time>2026-03-09T18:27:52.000Z</time>
      </trkpt>
      <trkpt lat="43.26883" lon="-1.6832">
        <ele>64</ele>
        <time>2026-03-09T18:27:57.000Z</time>
      </trkpt>
      <trkpt lat="43.26905" lon="-1.68331">
        <ele>63</ele>
        <time>2026-03-09T18:28:01.000Z</time>
      </trkpt>
      <trkpt lat="43.26935" lon="-1.68354">
        <ele>65</ele>
        <time>2026-03-09T18:28:07.000Z</time>
      </trkpt>
      <trkpt lat="43.26953" lon="-1.68373">
        <ele>64</ele>
        <time>2026-03-09T18:28:11.000Z</time>
      </trkpt>
      <trkpt lat="43.2697" lon="-1.68395">
        <ele>61</ele>
        <time>2026-03-09T18:28:15.000Z</time>
      </trkpt>
      <trkpt lat="43.26983" lon="-1.68416">
        <ele>56</ele>
        <time>2026-03-09T18:28:19.000Z</time>
      </trkpt>
      <trkpt lat="43.27003" lon="-1.6846">
        <ele>50</ele>
        <time>2026-03-09T18:28:25.000Z</time>
      </trkpt>
      <trkpt lat="43.27014" lon="-1.685">
        <ele>42</ele>
        <time>2026-03-09T18:28:31.000Z</time>
      </trkpt>
      <trkpt lat="43.27034" lon="-1.68614">
        <ele>40</ele>
        <time>2026-03-09T18:28:46.000Z</time>
      </trkpt>
      <trkpt lat="43.27044" lon="-1.6866">
        <ele>39</ele>
        <time>2026-03-09T18:28:52.000Z</time>
      </trkpt>
      <trkpt lat="43.27055" lon="-1.68698">
        <ele>38</ele>
        <time>2026-03-09T18:28:58.000Z</time>
      </trkpt>
      <trkpt lat="43.27077" lon="-1.68735">
        <ele>35</ele>
        <time>2026-03-09T18:29:04.000Z</time>
      </trkpt>
      <trkpt lat="43.27102" lon="-1.68762">
        <ele>36</ele>
        <time>2026-03-09T18:29:10.000Z</time>
      </trkpt>
      <trkpt lat="43.27119" lon="-1.68774">
        <ele>37</ele>
        <time>2026-03-09T18:29:13.000Z</time>
      </trkpt>
      <trkpt lat="43.27137" lon="-1.68783">
        <ele>37</ele>
        <time>2026-03-09T18:29:16.000Z</time>
      </trkpt>
      <trkpt lat="43.27182" lon="-1.68792">
        <ele>38</ele>
        <time>2026-03-09T18:29:24.000Z</time>
      </trkpt>
      <trkpt lat="43.27527" lon="-1.68832">
        <ele>39</ele>
        <time>2026-03-09T18:30:26.000Z</time>
      </trkpt>
      <trkpt lat="43.2753" lon="-1.68826">
        <ele>39</ele>
        <time>2026-03-09T18:30:27.000Z</time>
      </trkpt>
      <trkpt lat="43.27533" lon="-1.68825">
        <ele>39</ele>
        <time>2026-03-09T18:30:28.000Z</time>
      </trkpt>
      <trkpt lat="43.27537" lon="-1.68826">
        <ele>39</ele>
        <time>2026-03-09T18:30:28.000Z</time>
      </trkpt>
      <trkpt lat="43.27539" lon="-1.6883">
        <ele>39</ele>
        <time>2026-03-09T18:30:29.000Z</time>
      </trkpt>
      <trkpt lat="43.2754" lon="-1.68836">
        <ele>39</ele>
        <time>2026-03-09T18:30:30.000Z</time>
      </trkpt>
      <trkpt lat="43.27613" lon="-1.68845">
        <ele>37</ele>
        <time>2026-03-09T18:30:43.000Z</time>
      </trkpt>
      <trkpt lat="43.27865" lon="-1.68877">
        <ele>36</ele>
        <time>2026-03-09T18:31:28.000Z</time>
      </trkpt>
      <trkpt lat="43.27889" lon="-1.68872">
        <ele>36</ele>
        <time>2026-03-09T18:31:32.000Z</time>
      </trkpt>
      <trkpt lat="43.27991" lon="-1.68811">
        <ele>37</ele>
        <time>2026-03-09T18:31:52.000Z</time>
      </trkpt>
      <trkpt lat="43.27997" lon="-1.68725">
        <ele>40</ele>
        <time>2026-03-09T18:32:03.000Z</time>
      </trkpt>
      <trkpt lat="43.28024" lon="-1.6853">
        <ele>45</ele>
        <time>2026-03-09T18:32:29.000Z</time>
      </trkpt>
      <trkpt lat="43.28031" lon="-1.68459">
        <ele>47</ele>
        <time>2026-03-09T18:32:38.000Z</time>
      </trkpt>
      <trkpt lat="43.28033" lon="-1.68418">
        <ele>48</ele>
        <time>2026-03-09T18:32:43.000Z</time>
      </trkpt>
      <trkpt lat="43.28029" lon="-1.68362">
        <ele>47</ele>
        <time>2026-03-09T18:32:51.000Z</time>
      </trkpt>
      <trkpt lat="43.28034" lon="-1.68331">
        <ele>46</ele>
        <time>2026-03-09T18:32:55.000Z</time>
      </trkpt>
      <trkpt lat="43.28061" lon="-1.68234">
        <ele>43</ele>
        <time>2026-03-09T18:33:08.000Z</time>
      </trkpt>
      <trkpt lat="43.28079" lon="-1.68178">
        <ele>42</ele>
        <time>2026-03-09T18:33:16.000Z</time>
      </trkpt>
      <trkpt lat="43.28082" lon="-1.68168">
        <ele>42</ele>
        <time>2026-03-09T18:33:18.000Z</time>
      </trkpt>
      <trkpt lat="43.28098" lon="-1.68119">
        <ele>42</ele>
        <time>2026-03-09T18:33:24.000Z</time>
      </trkpt>
      <trkpt lat="43.28103" lon="-1.68106">
        <ele>42</ele>
        <time>2026-03-09T18:33:26.000Z</time>
      </trkpt>
      <trkpt lat="43.28113" lon="-1.68096">
        <ele>42</ele>
        <time>2026-03-09T18:33:29.000Z</time>
      </trkpt>
      <trkpt lat="43.28143" lon="-1.68082">
        <ele>41</ele>
        <time>2026-03-09T18:33:34.000Z</time>
      </trkpt>
      <trkpt lat="43.2815" lon="-1.68075">
        <ele>41</ele>
        <time>2026-03-09T18:33:36.000Z</time>
      </trkpt>
      <trkpt lat="43.28155" lon="-1.68066">
        <ele>41</ele>
        <time>2026-03-09T18:33:37.000Z</time>
      </trkpt>
      <trkpt lat="43.28157" lon="-1.68057">
        <ele>42</ele>
        <time>2026-03-09T18:33:38.000Z</time>
      </trkpt>
      <trkpt lat="43.28155" lon="-1.68012">
        <ele>43</ele>
        <time>2026-03-09T18:33:44.000Z</time>
      </trkpt>
      <trkpt lat="43.28158" lon="-1.67999">
        <ele>43</ele>
        <time>2026-03-09T18:33:46.000Z</time>
      </trkpt>
      <trkpt lat="43.28165" lon="-1.67985">
        <ele>43</ele>
        <time>2026-03-09T18:33:48.000Z</time>
      </trkpt>
      <trkpt lat="43.28168" lon="-1.67971">
        <ele>44</ele>
        <time>2026-03-09T18:33:50.000Z</time>
      </trkpt>
      <trkpt lat="43.28171" lon="-1.67955">
        <ele>44</ele>
        <time>2026-03-09T18:33:52.000Z</time>
      </trkpt>
      <trkpt lat="43.28178" lon="-1.67888">
        <ele>45</ele>
        <time>2026-03-09T18:34:01.000Z</time>
      </trkpt>
      <trkpt lat="43.28179" lon="-1.67833">
        <ele>44</ele>
        <time>2026-03-09T18:34:08.000Z</time>
      </trkpt>
      <trkpt lat="43.28169" lon="-1.67753">
        <ele>44</ele>
        <time>2026-03-09T18:34:19.000Z</time>
      </trkpt>
      <trkpt lat="43.28174" lon="-1.67713">
        <ele>46</ele>
        <time>2026-03-09T18:34:24.000Z</time>
      </trkpt>
      <trkpt lat="43.28183" lon="-1.67686">
        <ele>48</ele>
        <time>2026-03-09T18:34:28.000Z</time>
      </trkpt>
      <trkpt lat="43.28186" lon="-1.67667">
        <ele>49</ele>
        <time>2026-03-09T18:34:30.000Z</time>
      </trkpt>
      <trkpt lat="43.28189" lon="-1.67645">
        <ele>50</ele>
        <time>2026-03-09T18:34:33.000Z</time>
      </trkpt>
      <trkpt lat="43.28189" lon="-1.67634">
        <ele>50</ele>
        <time>2026-03-09T18:34:35.000Z</time>
      </trkpt>
      <trkpt lat="43.28181" lon="-1.67596">
        <ele>50</ele>
        <time>2026-03-09T18:34:40.000Z</time>
      </trkpt>
      <trkpt lat="43.28179" lon="-1.67577">
        <ele>49</ele>
        <time>2026-03-09T18:34:42.000Z</time>
      </trkpt>
      <trkpt lat="43.2818" lon="-1.67562">
        <ele>50</ele>
        <time>2026-03-09T18:34:44.000Z</time>
      </trkpt>
      <trkpt lat="43.28206" lon="-1.67536">
        <ele>56</ele>
        <time>2026-03-09T18:34:50.000Z</time>
      </trkpt>
      <trkpt lat="43.28213" lon="-1.67523">
        <ele>57</ele>
        <time>2026-03-09T18:34:52.000Z</time>
      </trkpt>
      <trkpt lat="43.28217" lon="-1.67507">
        <ele>59</ele>
        <time>2026-03-09T18:34:54.000Z</time>
      </trkpt>
      <trkpt lat="43.28218" lon="-1.67476">
        <ele>59</ele>
        <time>2026-03-09T18:34:58.000Z</time>
      </trkpt>
      <trkpt lat="43.28222" lon="-1.67451">
        <ele>59</ele>
        <time>2026-03-09T18:35:02.000Z</time>
      </trkpt>
      <trkpt lat="43.28225" lon="-1.6744">
        <ele>60</ele>
        <time>2026-03-09T18:35:03.000Z</time>
      </trkpt>
      <trkpt lat="43.2825" lon="-1.67399">
        <ele>63</ele>
        <time>2026-03-09T18:35:10.000Z</time>
      </trkpt>
      <trkpt lat="43.28262" lon="-1.6735">
        <ele>65</ele>
        <time>2026-03-09T18:35:17.000Z</time>
      </trkpt>
      <trkpt lat="43.28271" lon="-1.67281">
        <ele>65</ele>
        <time>2026-03-09T18:35:26.000Z</time>
      </trkpt>
      <trkpt lat="43.28274" lon="-1.67214">
        <ele>67</ele>
        <time>2026-03-09T18:35:34.000Z</time>
      </trkpt>
      <trkpt lat="43.28263" lon="-1.67103">
        <ele>67</ele>
        <time>2026-03-09T18:35:49.000Z</time>
      </trkpt>
      <trkpt lat="43.28263" lon="-1.67079">
        <ele>67</ele>
        <time>2026-03-09T18:35:52.000Z</time>
      </trkpt>
      <trkpt lat="43.2827" lon="-1.67021">
        <ele>68</ele>
        <time>2026-03-09T18:36:00.000Z</time>
      </trkpt>
      <trkpt lat="43.28272" lon="-1.66999">
        <ele>69</ele>
        <time>2026-03-09T18:36:03.000Z</time>
      </trkpt>
      <trkpt lat="43.28272" lon="-1.66971">
        <ele>71</ele>
        <time>2026-03-09T18:36:06.000Z</time>
      </trkpt>
      <trkpt lat="43.28268" lon="-1.66933">
        <ele>72</ele>
        <time>2026-03-09T18:36:11.000Z</time>
      </trkpt>
      <trkpt lat="43.28257" lon="-1.66886">
        <ele>72</ele>
        <time>2026-03-09T18:36:18.000Z</time>
      </trkpt>
      <trkpt lat="43.28232" lon="-1.66796">
        <ele>74</ele>
        <time>2026-03-09T18:36:30.000Z</time>
      </trkpt>
      <trkpt lat="43.28221" lon="-1.66745">
        <ele>75</ele>
        <time>2026-03-09T18:36:37.000Z</time>
      </trkpt>
      <trkpt lat="43.28214" lon="-1.66578">
        <ele>83</ele>
        <time>2026-03-09T18:36:59.000Z</time>
      </trkpt>
      <trkpt lat="43.28209" lon="-1.66533">
        <ele>83</ele>
        <time>2026-03-09T18:37:04.000Z</time>
      </trkpt>
      <trkpt lat="43.28207" lon="-1.66499">
        <ele>83</ele>
        <time>2026-03-09T18:37:09.000Z</time>
      </trkpt>
      <trkpt lat="43.28207" lon="-1.66474">
        <ele>84</ele>
        <time>2026-03-09T18:37:12.000Z</time>
      </trkpt>
      <trkpt lat="43.28212" lon="-1.66445">
        <ele>86</ele>
        <time>2026-03-09T18:37:16.000Z</time>
      </trkpt>
      <trkpt lat="43.28239" lon="-1.66345">
        <ele>96</ele>
        <time>2026-03-09T18:37:30.000Z</time>
      </trkpt>
      <trkpt lat="43.28243" lon="-1.66317">
        <ele>96</ele>
        <time>2026-03-09T18:37:34.000Z</time>
      </trkpt>
      <trkpt lat="43.28249" lon="-1.66199">
        <ele>90</ele>
        <time>2026-03-09T18:37:49.000Z</time>
      </trkpt>
      <trkpt lat="43.28252" lon="-1.66178">
        <ele>90</ele>
        <time>2026-03-09T18:37:52.000Z</time>
      </trkpt>
      <trkpt lat="43.28261" lon="-1.66151">
        <ele>91</ele>
        <time>2026-03-09T18:37:55.000Z</time>
      </trkpt>
      <trkpt lat="43.2827" lon="-1.66134">
        <ele>92</ele>
        <time>2026-03-09T18:37:58.000Z</time>
      </trkpt>
      <trkpt lat="43.28275" lon="-1.66116">
        <ele>91</ele>
        <time>2026-03-09T18:38:01.000Z</time>
      </trkpt>
      <trkpt lat="43.28291" lon="-1.66076">
        <ele>90</ele>
        <time>2026-03-09T18:38:07.000Z</time>
      </trkpt>
      <trkpt lat="43.28294" lon="-1.6606">
        <ele>90</ele>
        <time>2026-03-09T18:38:09.000Z</time>
      </trkpt>
      <trkpt lat="43.28294" lon="-1.66045">
        <ele>90</ele>
        <time>2026-03-09T18:38:11.000Z</time>
      </trkpt>
      <trkpt lat="43.2829" lon="-1.66037">
        <ele>90</ele>
        <time>2026-03-09T18:38:12.000Z</time>
      </trkpt>
      <trkpt lat="43.28284" lon="-1.66023">
        <ele>90</ele>
        <time>2026-03-09T18:38:14.000Z</time>
      </trkpt>
      <trkpt lat="43.2828" lon="-1.6602">
        <ele>90</ele>
        <time>2026-03-09T18:38:15.000Z</time>
      </trkpt>
      <trkpt lat="43.2824" lon="-1.66008">
        <ele>87</ele>
        <time>2026-03-09T18:38:22.000Z</time>
      </trkpt>
      <trkpt lat="43.28232" lon="-1.65999">
        <ele>87</ele>
        <time>2026-03-09T18:38:24.000Z</time>
      </trkpt>
      <trkpt lat="43.28226" lon="-1.65984">
        <ele>88</ele>
        <time>2026-03-09T18:38:26.000Z</time>
      </trkpt>
      <trkpt lat="43.28224" lon="-1.65967">
        <ele>89</ele>
        <time>2026-03-09T18:38:28.000Z</time>
      </trkpt>
      <trkpt lat="43.28224" lon="-1.6593">
        <ele>92</ele>
        <time>2026-03-09T18:38:33.000Z</time>
      </trkpt>
      <trkpt lat="43.28231" lon="-1.65878">
        <ele>96</ele>
        <time>2026-03-09T18:38:40.000Z</time>
      </trkpt>
      <trkpt lat="43.28247" lon="-1.65809">
        <ele>97</ele>
        <time>2026-03-09T18:38:49.000Z</time>
      </trkpt>
      <trkpt lat="43.2825" lon="-1.65787">
        <ele>96</ele>
        <time>2026-03-09T18:38:52.000Z</time>
      </trkpt>
      <trkpt lat="43.28253" lon="-1.6574">
        <ele>95</ele>
        <time>2026-03-09T18:38:58.000Z</time>
      </trkpt>
      <trkpt lat="43.28253" lon="-1.65724">
        <ele>96</ele>
        <time>2026-03-09T18:39:01.000Z</time>
      </trkpt>
      <trkpt lat="43.28248" lon="-1.65703">
        <ele>96</ele>
        <time>2026-03-09T18:39:03.000Z</time>
      </trkpt>
      <trkpt lat="43.28217" lon="-1.65618">
        <ele>101</ele>
        <time>2026-03-09T18:39:16.000Z</time>
      </trkpt>
      <trkpt lat="43.28209" lon="-1.65601">
        <ele>101</ele>
        <time>2026-03-09T18:39:18.000Z</time>
      </trkpt>
      <trkpt lat="43.28192" lon="-1.65573">
        <ele>100</ele>
        <time>2026-03-09T18:39:23.000Z</time>
      </trkpt>
      <trkpt lat="43.28175" lon="-1.65541">
        <ele>98</ele>
        <time>2026-03-09T18:39:28.000Z</time>
      </trkpt>
      <trkpt lat="43.28168" lon="-1.65522">
        <ele>97</ele>
        <time>2026-03-09T18:39:31.000Z</time>
      </trkpt>
      <trkpt lat="43.28153" lon="-1.65448">
        <ele>101</ele>
        <time>2026-03-09T18:39:41.000Z</time>
      </trkpt>
      <trkpt lat="43.28148" lon="-1.65412">
        <ele>102</ele>
        <time>2026-03-09T18:39:46.000Z</time>
      </trkpt>
      <trkpt lat="43.28147" lon="-1.65343">
        <ele>102</ele>
        <time>2026-03-09T18:39:55.000Z</time>
      </trkpt>
      <trkpt lat="43.28153" lon="-1.65302">
        <ele>105</ele>
        <time>2026-03-09T18:40:00.000Z</time>
      </trkpt>
      <trkpt lat="43.2816" lon="-1.65278">
        <ele>107</ele>
        <time>2026-03-09T18:40:03.000Z</time>
      </trkpt>
      <trkpt lat="43.28172" lon="-1.65254">
        <ele>110</ele>
        <time>2026-03-09T18:40:07.000Z</time>
      </trkpt>
      <trkpt lat="43.28185" lon="-1.65221">
        <ele>114</ele>
        <time>2026-03-09T18:40:12.000Z</time>
      </trkpt>
      <trkpt lat="43.28214" lon="-1.65131">
        <ele>115</ele>
        <time>2026-03-09T18:40:25.000Z</time>
      </trkpt>
      <trkpt lat="43.28233" lon="-1.65041">
        <ele>114</ele>
        <time>2026-03-09T18:40:37.000Z</time>
      </trkpt>
      <trkpt lat="43.28257" lon="-1.64899">
        <ele>115</ele>
        <time>2026-03-09T18:40:56.000Z</time>
      </trkpt>
      <trkpt lat="43.28262" lon="-1.6488">
        <ele>117</ele>
        <time>2026-03-09T18:40:58.000Z</time>
      </trkpt>
      <trkpt lat="43.28269" lon="-1.64868">
        <ele>119</ele>
        <time>2026-03-09T18:41:00.000Z</time>
      </trkpt>
      <trkpt lat="43.28279" lon="-1.64859">
        <ele>121</ele>
        <time>2026-03-09T18:41:02.000Z</time>
      </trkpt>
      <trkpt lat="43.28289" lon="-1.64853">
        <ele>123</ele>
        <time>2026-03-09T18:41:04.000Z</time>
      </trkpt>
      <trkpt lat="43.28315" lon="-1.64845">
        <ele>128</ele>
        <time>2026-03-09T18:41:09.000Z</time>
      </trkpt>
      <trkpt lat="43.28328" lon="-1.64834">
        <ele>130</ele>
        <time>2026-03-09T18:41:12.000Z</time>
      </trkpt>
      <trkpt lat="43.28343" lon="-1.64815">
        <ele>130</ele>
        <time>2026-03-09T18:41:16.000Z</time>
      </trkpt>
      <trkpt lat="43.2837" lon="-1.64777">
        <ele>128</ele>
        <time>2026-03-09T18:41:22.000Z</time>
      </trkpt>
      <trkpt lat="43.284" lon="-1.6474">
        <ele>128</ele>
        <time>2026-03-09T18:41:30.000Z</time>
      </trkpt>
      <trkpt lat="43.28408" lon="-1.64723">
        <ele>129</ele>
        <time>2026-03-09T18:41:32.000Z</time>
      </trkpt>
      <trkpt lat="43.28412" lon="-1.64709">
        <ele>129</ele>
        <time>2026-03-09T18:41:34.000Z</time>
      </trkpt>
      <trkpt lat="43.28414" lon="-1.64694">
        <ele>128</ele>
        <time>2026-03-09T18:41:36.000Z</time>
      </trkpt>
      <trkpt lat="43.28416" lon="-1.64671">
        <ele>127</ele>
        <time>2026-03-09T18:41:39.000Z</time>
      </trkpt>
      <trkpt lat="43.28423" lon="-1.64654">
        <ele>128</ele>
        <time>2026-03-09T18:41:42.000Z</time>
      </trkpt>
      <trkpt lat="43.28433" lon="-1.64639">
        <ele>129</ele>
        <time>2026-03-09T18:41:44.000Z</time>
      </trkpt>
      <trkpt lat="43.28447" lon="-1.64631">
        <ele>133</ele>
        <time>2026-03-09T18:41:47.000Z</time>
      </trkpt>
      <trkpt lat="43.28499" lon="-1.64591">
        <ele>145</ele>
        <time>2026-03-09T18:41:58.000Z</time>
      </trkpt>
      <trkpt lat="43.28514" lon="-1.6457">
        <ele>148</ele>
        <time>2026-03-09T18:42:01.000Z</time>
      </trkpt>
      <trkpt lat="43.28521" lon="-1.64548">
        <ele>147</ele>
        <time>2026-03-09T18:42:04.000Z</time>
      </trkpt>
      <trkpt lat="43.28525" lon="-1.64526">
        <ele>146</ele>
        <time>2026-03-09T18:42:07.000Z</time>
      </trkpt>
      <trkpt lat="43.28532" lon="-1.64516">
        <ele>147</ele>
        <time>2026-03-09T18:42:09.000Z</time>
      </trkpt>
      <trkpt lat="43.28542" lon="-1.64503">
        <ele>148</ele>
        <time>2026-03-09T18:42:12.000Z</time>
      </trkpt>
      <trkpt lat="43.28554" lon="-1.64497">
        <ele>152</ele>
        <time>2026-03-09T18:42:14.000Z</time>
      </trkpt>
      <trkpt lat="43.2858" lon="-1.64477">
        <ele>157</ele>
        <time>2026-03-09T18:42:19.000Z</time>
      </trkpt>
      <trkpt lat="43.28587" lon="-1.64465">
        <ele>157</ele>
        <time>2026-03-09T18:42:21.000Z</time>
      </trkpt>
      <trkpt lat="43.28636" lon="-1.64343">
        <ele>157</ele>
        <time>2026-03-09T18:42:39.000Z</time>
      </trkpt>
      <trkpt lat="43.28643" lon="-1.64318">
        <ele>156</ele>
        <time>2026-03-09T18:42:43.000Z</time>
      </trkpt>
      <trkpt lat="43.2865" lon="-1.64271">
        <ele>152</ele>
        <time>2026-03-09T18:42:49.000Z</time>
      </trkpt>
      <trkpt lat="43.28653" lon="-1.64247">
        <ele>151</ele>
        <time>2026-03-09T18:42:52.000Z</time>
      </trkpt>
      <trkpt lat="43.28653" lon="-1.64222">
        <ele>154</ele>
        <time>2026-03-09T18:42:55.000Z</time>
      </trkpt>
      <trkpt lat="43.28649" lon="-1.64206">
        <ele>156</ele>
        <time>2026-03-09T18:42:58.000Z</time>
      </trkpt>
      <trkpt lat="43.28644" lon="-1.64192">
        <ele>157</ele>
        <time>2026-03-09T18:43:00.000Z</time>
      </trkpt>
      <trkpt lat="43.28638" lon="-1.64181">
        <ele>158</ele>
        <time>2026-03-09T18:43:01.000Z</time>
      </trkpt>
      <trkpt lat="43.28629" lon="-1.6417">
        <ele>158</ele>
        <time>2026-03-09T18:43:03.000Z</time>
      </trkpt>
      <trkpt lat="43.28615" lon="-1.64161">
        <ele>158</ele>
        <time>2026-03-09T18:43:06.000Z</time>
      </trkpt>
      <trkpt lat="43.28593" lon="-1.64151">
        <ele>158</ele>
        <time>2026-03-09T18:43:10.000Z</time>
      </trkpt>
      <trkpt lat="43.28576" lon="-1.6414">
        <ele>160</ele>
        <time>2026-03-09T18:43:14.000Z</time>
      </trkpt>
      <trkpt lat="43.28562" lon="-1.64127">
        <ele>164</ele>
        <time>2026-03-09T18:43:17.000Z</time>
      </trkpt>
      <trkpt lat="43.28536" lon="-1.64093">
        <ele>169</ele>
        <time>2026-03-09T18:43:23.000Z</time>
      </trkpt>
      <trkpt lat="43.28517" lon="-1.64082">
        <ele>168</ele>
        <time>2026-03-09T18:43:27.000Z</time>
      </trkpt>
      <trkpt lat="43.28475" lon="-1.6408">
        <ele>166</ele>
        <time>2026-03-09T18:43:34.000Z</time>
      </trkpt>
      <trkpt lat="43.28454" lon="-1.64072">
        <ele>169</ele>
        <time>2026-03-09T18:43:38.000Z</time>
      </trkpt>
      <trkpt lat="43.28412" lon="-1.64044">
        <ele>176</ele>
        <time>2026-03-09T18:43:46.000Z</time>
      </trkpt>
      <trkpt lat="43.28373" lon="-1.64025">
        <ele>174</ele>
        <time>2026-03-09T18:43:54.000Z</time>
      </trkpt>
      <trkpt lat="43.28358" lon="-1.64015">
        <ele>173</ele>
        <time>2026-03-09T18:43:57.000Z</time>
      </trkpt>
      <trkpt lat="43.28345" lon="-1.63999">
        <ele>173</ele>
        <time>2026-03-09T18:44:00.000Z</time>
      </trkpt>
      <trkpt lat="43.28337" lon="-1.63982">
        <ele>174</ele>
        <time>2026-03-09T18:44:02.000Z</time>
      </trkpt>
      <trkpt lat="43.28331" lon="-1.63937">
        <ele>181</ele>
        <time>2026-03-09T18:44:08.000Z</time>
      </trkpt>
      <trkpt lat="43.28326" lon="-1.63916">
        <ele>184</ele>
        <time>2026-03-09T18:44:11.000Z</time>
      </trkpt>
      <trkpt lat="43.28313" lon="-1.63889">
        <ele>184</ele>
        <time>2026-03-09T18:44:15.000Z</time>
      </trkpt>
      <trkpt lat="43.28295" lon="-1.63863">
        <ele>182</ele>
        <time>2026-03-09T18:44:20.000Z</time>
      </trkpt>
      <trkpt lat="43.28288" lon="-1.63847">
        <ele>182</ele>
        <time>2026-03-09T18:44:23.000Z</time>
      </trkpt>
      <trkpt lat="43.28286" lon="-1.63828">
        <ele>183</ele>
        <time>2026-03-09T18:44:25.000Z</time>
      </trkpt>
      <trkpt lat="43.28288" lon="-1.63762">
        <ele>188</ele>
        <time>2026-03-09T18:44:34.000Z</time>
      </trkpt>
      <trkpt lat="43.2829" lon="-1.63745">
        <ele>189</ele>
        <time>2026-03-09T18:44:36.000Z</time>
      </trkpt>
      <trkpt lat="43.28295" lon="-1.63726">
        <ele>191</ele>
        <time>2026-03-09T18:44:38.000Z</time>
      </trkpt>
      <trkpt lat="43.28308" lon="-1.637">
        <ele>195</ele>
        <time>2026-03-09T18:44:43.000Z</time>
      </trkpt>
      <trkpt lat="43.28336" lon="-1.63663">
        <ele>204</ele>
        <time>2026-03-09T18:44:49.000Z</time>
      </trkpt>
      <trkpt lat="43.28346" lon="-1.63643">
        <ele>207</ele>
        <time>2026-03-09T18:44:53.000Z</time>
      </trkpt>
      <trkpt lat="43.28349" lon="-1.63628">
        <ele>208</ele>
        <time>2026-03-09T18:44:55.000Z</time>
      </trkpt>
      <trkpt lat="43.28348" lon="-1.63612">
        <ele>207</ele>
        <time>2026-03-09T18:44:57.000Z</time>
      </trkpt>
      <trkpt lat="43.28346" lon="-1.63595">
        <ele>206</ele>
        <time>2026-03-09T18:44:59.000Z</time>
      </trkpt>
      <trkpt lat="43.28336" lon="-1.6357">
        <ele>204</ele>
        <time>2026-03-09T18:45:03.000Z</time>
      </trkpt>
      <trkpt lat="43.28318" lon="-1.6354">
        <ele>201</ele>
        <time>2026-03-09T18:45:08.000Z</time>
      </trkpt>
      <trkpt lat="43.28312" lon="-1.63517">
        <ele>202</ele>
        <time>2026-03-09T18:45:11.000Z</time>
      </trkpt>
      <trkpt lat="43.28311" lon="-1.635">
        <ele>203</ele>
        <time>2026-03-09T18:45:13.000Z</time>
      </trkpt>
      <trkpt lat="43.2831" lon="-1.63374">
        <ele>213</ele>
        <time>2026-03-09T18:45:29.000Z</time>
      </trkpt>
      <trkpt lat="43.28304" lon="-1.63335">
        <ele>216</ele>
        <time>2026-03-09T18:45:34.000Z</time>
      </trkpt>
      <trkpt lat="43.28299" lon="-1.63322">
        <ele>217</ele>
        <time>2026-03-09T18:45:36.000Z</time>
      </trkpt>
      <trkpt lat="43.28253" lon="-1.6324">
        <ele>222</ele>
        <time>2026-03-09T18:45:50.000Z</time>
      </trkpt>
      <trkpt lat="43.28236" lon="-1.63221">
        <ele>221</ele>
        <time>2026-03-09T18:45:54.000Z</time>
      </trkpt>
      <trkpt lat="43.28186" lon="-1.63184">
        <ele>218</ele>
        <time>2026-03-09T18:46:04.000Z</time>
      </trkpt>
      <trkpt lat="43.28141" lon="-1.63139">
        <ele>213</ele>
        <time>2026-03-09T18:46:14.000Z</time>
      </trkpt>
      <trkpt lat="43.28132" lon="-1.63136">
        <ele>212</ele>
        <time>2026-03-09T18:46:15.000Z</time>
      </trkpt>
      <trkpt lat="43.28125" lon="-1.63137">
        <ele>213</ele>
        <time>2026-03-09T18:46:17.000Z</time>
      </trkpt>
      <trkpt lat="43.28099" lon="-1.6315">
        <ele>214</ele>
        <time>2026-03-09T18:46:22.000Z</time>
      </trkpt>
      <trkpt lat="43.28081" lon="-1.63153">
        <ele>215</ele>
        <time>2026-03-09T18:46:25.000Z</time>
      </trkpt>
      <trkpt lat="43.2807" lon="-1.63152">
        <ele>217</ele>
        <time>2026-03-09T18:46:27.000Z</time>
      </trkpt>
      <trkpt lat="43.28059" lon="-1.63148">
        <ele>219</ele>
        <time>2026-03-09T18:46:29.000Z</time>
      </trkpt>
      <trkpt lat="43.28054" lon="-1.63142">
        <ele>220</ele>
        <time>2026-03-09T18:46:30.000Z</time>
      </trkpt>
      <trkpt lat="43.28048" lon="-1.6313">
        <ele>220</ele>
        <time>2026-03-09T18:46:32.000Z</time>
      </trkpt>
      <trkpt lat="43.28042" lon="-1.63106">
        <ele>220</ele>
        <time>2026-03-09T18:46:35.000Z</time>
      </trkpt>
      <trkpt lat="43.28041" lon="-1.63091">
        <ele>219</ele>
        <time>2026-03-09T18:46:37.000Z</time>
      </trkpt>
      <trkpt lat="43.28046" lon="-1.63074">
        <ele>219</ele>
        <time>2026-03-09T18:46:39.000Z</time>
      </trkpt>
      <trkpt lat="43.28063" lon="-1.63057">
        <ele>218</ele>
        <time>2026-03-09T18:46:43.000Z</time>
      </trkpt>
      <trkpt lat="43.28077" lon="-1.63049">
        <ele>216</ele>
        <time>2026-03-09T18:46:46.000Z</time>
      </trkpt>
      <trkpt lat="43.28145" lon="-1.63035">
        <ele>205</ele>
        <time>2026-03-09T18:46:58.000Z</time>
      </trkpt>
      <trkpt lat="43.28166" lon="-1.63025">
        <ele>201</ele>
        <time>2026-03-09T18:47:02.000Z</time>
      </trkpt>
      <trkpt lat="43.2818" lon="-1.63008">
        <ele>200</ele>
        <time>2026-03-09T18:47:05.000Z</time>
      </trkpt>
      <trkpt lat="43.28259" lon="-1.62895">
        <ele>191</ele>
        <time>2026-03-09T18:47:26.000Z</time>
      </trkpt>
      <trkpt lat="43.28281" lon="-1.62862">
        <ele>193</ele>
        <time>2026-03-09T18:47:31.000Z</time>
      </trkpt>
      <trkpt lat="43.28288" lon="-1.62842">
        <ele>192</ele>
        <time>2026-03-09T18:47:34.000Z</time>
      </trkpt>
      <trkpt lat="43.28292" lon="-1.62807">
        <ele>192</ele>
        <time>2026-03-09T18:47:39.000Z</time>
      </trkpt>
      <trkpt lat="43.28296" lon="-1.62786">
        <ele>192</ele>
        <time>2026-03-09T18:47:42.000Z</time>
      </trkpt>
      <trkpt lat="43.28305" lon="-1.62763">
        <ele>191</ele>
        <time>2026-03-09T18:47:45.000Z</time>
      </trkpt>
      <trkpt lat="43.28331" lon="-1.62717">
        <ele>183</ele>
        <time>2026-03-09T18:47:53.000Z</time>
      </trkpt>
      <trkpt lat="43.28372" lon="-1.6266">
        <ele>183</ele>
        <time>2026-03-09T18:48:03.000Z</time>
      </trkpt>
      <trkpt lat="43.28417" lon="-1.62609">
        <ele>180</ele>
        <time>2026-03-09T18:48:13.000Z</time>
      </trkpt>
      <trkpt lat="43.28444" lon="-1.62498">
        <ele>176</ele>
        <time>2026-03-09T18:48:29.000Z</time>
      </trkpt>
      <trkpt lat="43.28451" lon="-1.62457">
        <ele>174</ele>
        <time>2026-03-09T18:48:34.000Z</time>
      </trkpt>
      <trkpt lat="43.28463" lon="-1.62255">
        <ele>159</ele>
        <time>2026-03-09T18:49:00.000Z</time>
      </trkpt>
      <trkpt lat="43.28455" lon="-1.62203">
        <ele>158</ele>
        <time>2026-03-09T18:49:07.000Z</time>
      </trkpt>
      <trkpt lat="43.28456" lon="-1.62168">
        <ele>157</ele>
        <time>2026-03-09T18:49:12.000Z</time>
      </trkpt>
      <trkpt lat="43.28464" lon="-1.62119">
        <ele>155</ele>
        <time>2026-03-09T18:49:18.000Z</time>
      </trkpt>
      <trkpt lat="43.28472" lon="-1.6193">
        <ele>150</ele>
        <time>2026-03-09T18:49:43.000Z</time>
      </trkpt>
      <trkpt lat="43.28471" lon="-1.61898">
        <ele>150</ele>
        <time>2026-03-09T18:49:47.000Z</time>
      </trkpt>
      <trkpt lat="43.2846" lon="-1.61852">
        <ele>152</ele>
        <time>2026-03-09T18:49:53.000Z</time>
      </trkpt>
      <trkpt lat="43.28424" lon="-1.61736">
        <ele>150</ele>
        <time>2026-03-09T18:50:09.000Z</time>
      </trkpt>
      <trkpt lat="43.28385" lon="-1.61649">
        <ele>153</ele>
        <time>2026-03-09T18:50:23.000Z</time>
      </trkpt>
      <trkpt lat="43.28365" lon="-1.61586">
        <ele>150</ele>
        <time>2026-03-09T18:50:32.000Z</time>
      </trkpt>
      <trkpt lat="43.28361" lon="-1.61561">
        <ele>148</ele>
        <time>2026-03-09T18:50:35.000Z</time>
      </trkpt>
      <trkpt lat="43.28362" lon="-1.6154">
        <ele>147</ele>
        <time>2026-03-09T18:50:38.000Z</time>
      </trkpt>
      <trkpt lat="43.28365" lon="-1.61516">
        <ele>146</ele>
        <time>2026-03-09T18:50:41.000Z</time>
      </trkpt>
      <trkpt lat="43.28379" lon="-1.61475">
        <ele>148</ele>
        <time>2026-03-09T18:50:47.000Z</time>
      </trkpt>
      <trkpt lat="43.28386" lon="-1.61451">
        <ele>147</ele>
        <time>2026-03-09T18:50:50.000Z</time>
      </trkpt>
      <trkpt lat="43.28387" lon="-1.61429">
        <ele>147</ele>
        <time>2026-03-09T18:50:53.000Z</time>
      </trkpt>
      <trkpt lat="43.28375" lon="-1.61381">
        <ele>148</ele>
        <time>2026-03-09T18:50:59.000Z</time>
      </trkpt>
      <trkpt lat="43.28375" lon="-1.61343">
        <ele>150</ele>
        <time>2026-03-09T18:51:04.000Z</time>
      </trkpt>
      <trkpt lat="43.28379" lon="-1.61306">
        <ele>149</ele>
        <time>2026-03-09T18:51:09.000Z</time>
      </trkpt>
      <trkpt lat="43.28387" lon="-1.61276">
        <ele>148</ele>
        <time>2026-03-09T18:51:13.000Z</time>
      </trkpt>
      <trkpt lat="43.28399" lon="-1.6124">
        <ele>144</ele>
        <time>2026-03-09T18:51:18.000Z</time>
      </trkpt>
      <trkpt lat="43.28404" lon="-1.61209">
        <ele>142</ele>
        <time>2026-03-09T18:51:23.000Z</time>
      </trkpt>
      <trkpt lat="43.28407" lon="-1.61164">
        <ele>140</ele>
        <time>2026-03-09T18:51:28.000Z</time>
      </trkpt>
      <trkpt lat="43.28421" lon="-1.6106">
        <ele>139</ele>
        <time>2026-03-09T18:51:42.000Z</time>
      </trkpt>
      <trkpt lat="43.2843" lon="-1.61027">
        <ele>139</ele>
        <time>2026-03-09T18:51:47.000Z</time>
      </trkpt>
      <trkpt lat="43.28448" lon="-1.61">
        <ele>138</ele>
        <time>2026-03-09T18:51:51.000Z</time>
      </trkpt>
      <trkpt lat="43.28497" lon="-1.60952">
        <ele>129</ele>
        <time>2026-03-09T18:52:02.000Z</time>
      </trkpt>
      <trkpt lat="43.28508" lon="-1.60928">
        <ele>127</ele>
        <time>2026-03-09T18:52:06.000Z</time>
      </trkpt>
      <trkpt lat="43.28511" lon="-1.60898">
        <ele>126</ele>
        <time>2026-03-09T18:52:10.000Z</time>
      </trkpt>
      <trkpt lat="43.2851" lon="-1.60875">
        <ele>126</ele>
        <time>2026-03-09T18:52:13.000Z</time>
      </trkpt>
      <trkpt lat="43.28505" lon="-1.60851">
        <ele>124</ele>
        <time>2026-03-09T18:52:16.000Z</time>
      </trkpt>
      <trkpt lat="43.28498" lon="-1.60776">
        <ele>124</ele>
        <time>2026-03-09T18:52:26.000Z</time>
      </trkpt>
      <trkpt lat="43.28497" lon="-1.60748">
        <ele>125</ele>
        <time>2026-03-09T18:52:29.000Z</time>
      </trkpt>
      <trkpt lat="43.285" lon="-1.60701">
        <ele>125</ele>
        <time>2026-03-09T18:52:36.000Z</time>
      </trkpt>
      <trkpt lat="43.28511" lon="-1.60675">
        <ele>126</ele>
        <time>2026-03-09T18:52:39.000Z</time>
      </trkpt>
      <trkpt lat="43.28583" lon="-1.60585">
        <ele>121</ele>
        <time>2026-03-09T18:52:57.000Z</time>
      </trkpt>
      <trkpt lat="43.28599" lon="-1.6056">
        <ele>123</ele>
        <time>2026-03-09T18:53:01.000Z</time>
      </trkpt>
      <trkpt lat="43.28607" lon="-1.60534">
        <ele>122</ele>
        <time>2026-03-09T18:53:05.000Z</time>
      </trkpt>
      <trkpt lat="43.28612" lon="-1.60505">
        <ele>120</ele>
        <time>2026-03-09T18:53:09.000Z</time>
      </trkpt>
      <trkpt lat="43.28606" lon="-1.60444">
        <ele>119</ele>
        <time>2026-03-09T18:53:17.000Z</time>
      </trkpt>
      <trkpt lat="43.28609" lon="-1.60412">
        <ele>119</ele>
        <time>2026-03-09T18:53:21.000Z</time>
      </trkpt>
      <trkpt lat="43.28619" lon="-1.60362">
        <ele>119</ele>
        <time>2026-03-09T18:53:27.000Z</time>
      </trkpt>
      <trkpt lat="43.28629" lon="-1.60329">
        <ele>119</ele>
        <time>2026-03-09T18:53:32.000Z</time>
      </trkpt>
      <trkpt lat="43.28659" lon="-1.60278">
        <ele>119</ele>
        <time>2026-03-09T18:53:41.000Z</time>
      </trkpt>
      <trkpt lat="43.28724" lon="-1.60189">
        <ele>129</ele>
        <time>2026-03-09T18:53:57.000Z</time>
      </trkpt>
      <trkpt lat="43.28763" lon="-1.60109">
        <ele>128</ele>
        <time>2026-03-09T18:54:09.000Z</time>
      </trkpt>
      <trkpt lat="43.28781" lon="-1.60064">
        <ele>126</ele>
        <time>2026-03-09T18:54:16.000Z</time>
      </trkpt>
      <trkpt lat="43.28797" lon="-1.60013">
        <ele>126</ele>
        <time>2026-03-09T18:54:23.000Z</time>
      </trkpt>
      <trkpt lat="43.28829" lon="-1.59936">
        <ele>126</ele>
        <time>2026-03-09T18:54:35.000Z</time>
      </trkpt>
      <trkpt lat="43.28847" lon="-1.59898">
        <ele>127</ele>
        <time>2026-03-09T18:54:41.000Z</time>
      </trkpt>
      <trkpt lat="43.28877" lon="-1.59844">
        <ele>129</ele>
        <time>2026-03-09T18:54:49.000Z</time>
      </trkpt>
      <trkpt lat="43.28893" lon="-1.59819">
        <ele>130</ele>
        <time>2026-03-09T18:54:54.000Z</time>
      </trkpt>
      <trkpt lat="43.29" lon="-1.59715">
        <ele>136</ele>
        <time>2026-03-09T18:55:17.000Z</time>
      </trkpt>
      <trkpt lat="43.29008" lon="-1.59701">
        <ele>134</ele>
        <time>2026-03-09T18:55:19.000Z</time>
      </trkpt>
      <trkpt lat="43.29013" lon="-1.59682">
        <ele>131</ele>
        <time>2026-03-09T18:55:22.000Z</time>
      </trkpt>
      <trkpt lat="43.2902" lon="-1.59612">
        <ele>123</ele>
        <time>2026-03-09T18:55:31.000Z</time>
      </trkpt>
      <trkpt lat="43.29026" lon="-1.59586">
        <ele>121</ele>
        <time>2026-03-09T18:55:35.000Z</time>
      </trkpt>
      <trkpt lat="43.29042" lon="-1.59559">
        <ele>119</ele>
        <time>2026-03-09T18:55:39.000Z</time>
      </trkpt>
      <trkpt lat="43.29058" lon="-1.59546">
        <ele>119</ele>
        <time>2026-03-09T18:55:42.000Z</time>
      </trkpt>
      <trkpt lat="43.29077" lon="-1.59537">
        <ele>120</ele>
        <time>2026-03-09T18:55:46.000Z</time>
      </trkpt>
      <trkpt lat="43.29098" lon="-1.5953">
        <ele>124</ele>
        <time>2026-03-09T18:55:50.000Z</time>
      </trkpt>
      <trkpt lat="43.29116" lon="-1.59517">
        <ele>126</ele>
        <time>2026-03-09T18:55:53.000Z</time>
      </trkpt>
      <trkpt lat="43.29129" lon="-1.59502">
        <ele>127</ele>
        <time>2026-03-09T18:55:56.000Z</time>
      </trkpt>
      <trkpt lat="43.29153" lon="-1.59461">
        <ele>122</ele>
        <time>2026-03-09T18:56:03.000Z</time>
      </trkpt>
      <trkpt lat="43.29164" lon="-1.59447">
        <ele>120</ele>
        <time>2026-03-09T18:56:06.000Z</time>
      </trkpt>
      <trkpt lat="43.29184" lon="-1.59428">
        <ele>118</ele>
        <time>2026-03-09T18:56:10.000Z</time>
      </trkpt>
      <trkpt lat="43.29268" lon="-1.59359">
        <ele>109</ele>
        <time>2026-03-09T18:56:28.000Z</time>
      </trkpt>
      <trkpt lat="43.29284" lon="-1.59348">
        <ele>105</ele>
        <time>2026-03-09T18:56:31.000Z</time>
      </trkpt>
      <trkpt lat="43.29323" lon="-1.59336">
        <ele>102</ele>
        <time>2026-03-09T18:56:38.000Z</time>
      </trkpt>
      <trkpt lat="43.29337" lon="-1.59327">
        <ele>101</ele>
        <time>2026-03-09T18:56:41.000Z</time>
      </trkpt>
      <trkpt lat="43.29375" lon="-1.59283">
        <ele>99</ele>
        <time>2026-03-09T18:56:50.000Z</time>
      </trkpt>
      <trkpt lat="43.29407" lon="-1.59267">
        <ele>95</ele>
        <time>2026-03-09T18:56:56.000Z</time>
      </trkpt>
      <trkpt lat="43.29454" lon="-1.59251">
        <ele>90</ele>
        <time>2026-03-09T18:57:04.000Z</time>
      </trkpt>
      <trkpt lat="43.29476" lon="-1.59238">
        <ele>90</ele>
        <time>2026-03-09T18:57:09.000Z</time>
      </trkpt>
      <trkpt lat="43.29497" lon="-1.59219">
        <ele>89</ele>
        <time>2026-03-09T18:57:13.000Z</time>
      </trkpt>
      <trkpt lat="43.29564" lon="-1.59151">
        <ele>86</ele>
        <time>2026-03-09T18:57:28.000Z</time>
      </trkpt>
      <trkpt lat="43.29686" lon="-1.59066">
        <ele>87</ele>
        <time>2026-03-09T18:57:52.000Z</time>
      </trkpt>
      <trkpt lat="43.29732" lon="-1.59033">
        <ele>89</ele>
        <time>2026-03-09T18:58:01.000Z</time>
      </trkpt>
      <trkpt lat="43.29757" lon="-1.58996">
        <ele>89</ele>
        <time>2026-03-09T18:58:08.000Z</time>
      </trkpt>
      <trkpt lat="43.29781" lon="-1.58973">
        <ele>90</ele>
        <time>2026-03-09T18:58:13.000Z</time>
      </trkpt>
      <trkpt lat="43.29805" lon="-1.5896">
        <ele>92</ele>
        <time>2026-03-09T18:58:18.000Z</time>
      </trkpt>
      <trkpt lat="43.2991" lon="-1.58932">
        <ele>98</ele>
        <time>2026-03-09T18:58:37.000Z</time>
      </trkpt>
      <trkpt lat="43.29938" lon="-1.58933">
        <ele>99</ele>
        <time>2026-03-09T18:58:42.000Z</time>
      </trkpt>
      <trkpt lat="43.30031" lon="-1.58968">
        <ele>101</ele>
        <time>2026-03-09T18:58:59.000Z</time>
      </trkpt>
      <trkpt lat="43.30044" lon="-1.58975">
        <ele>101</ele>
        <time>2026-03-09T18:59:01.000Z</time>
      </trkpt>
      <trkpt lat="43.30061" lon="-1.58991">
        <ele>102</ele>
        <time>2026-03-09T18:59:05.000Z</time>
      </trkpt>
      <trkpt lat="43.30111" lon="-1.59052">
        <ele>103</ele>
        <time>2026-03-09T18:59:17.000Z</time>
      </trkpt>
      <trkpt lat="43.30149" lon="-1.59094">
        <ele>103</ele>
        <time>2026-03-09T18:59:26.000Z</time>
      </trkpt>
      <trkpt lat="43.30199" lon="-1.59173">
        <ele>101</ele>
        <time>2026-03-09T18:59:39.000Z</time>
      </trkpt>
      <trkpt lat="43.30234" lon="-1.59236">
        <ele>101</ele>
        <time>2026-03-09T18:59:49.000Z</time>
      </trkpt>
      <trkpt lat="43.30245" lon="-1.59252">
        <ele>101</ele>
        <time>2026-03-09T18:59:52.000Z</time>
      </trkpt>
      <trkpt lat="43.30254" lon="-1.5926">
        <ele>101</ele>
        <time>2026-03-09T18:59:54.000Z</time>
      </trkpt>
      <trkpt lat="43.30269" lon="-1.59269">
        <ele>102</ele>
        <time>2026-03-09T18:59:57.000Z</time>
      </trkpt>
      <trkpt lat="43.30294" lon="-1.59278">
        <ele>102</ele>
        <time>2026-03-09T19:00:02.000Z</time>
      </trkpt>
      <trkpt lat="43.30377" lon="-1.59287">
        <ele>100</ele>
        <time>2026-03-09T19:00:17.000Z</time>
      </trkpt>
      <trkpt lat="43.3039" lon="-1.59285">
        <ele>100</ele>
        <time>2026-03-09T19:00:19.000Z</time>
      </trkpt>
      <trkpt lat="43.3046" lon="-1.59243">
        <ele>97</ele>
        <time>2026-03-09T19:00:32.000Z</time>
      </trkpt>
      <trkpt lat="43.30476" lon="-1.5923">
        <ele>95</ele>
        <time>2026-03-09T19:00:36.000Z</time>
      </trkpt>
      <trkpt lat="43.30494" lon="-1.59208">
        <ele>93</ele>
        <time>2026-03-09T19:00:40.000Z</time>
      </trkpt>
      <trkpt lat="43.3053" lon="-1.5916">
        <ele>90</ele>
        <time>2026-03-09T19:00:49.000Z</time>
      </trkpt>
      <trkpt lat="43.30682" lon="-1.58928">
        <ele>80</ele>
        <time>2026-03-09T19:01:29.000Z</time>
      </trkpt>
      <trkpt lat="43.30697" lon="-1.589">
        <ele>80</ele>
        <time>2026-03-09T19:01:34.000Z</time>
      </trkpt>
      <trkpt lat="43.3071" lon="-1.58871">
        <ele>78</ele>
        <time>2026-03-09T19:01:38.000Z</time>
      </trkpt>
      <trkpt lat="43.30849" lon="-1.58642">
        <ele>68</ele>
        <time>2026-03-09T19:02:17.000Z</time>
      </trkpt>
      <trkpt lat="43.30871" lon="-1.58611">
        <ele>67</ele>
        <time>2026-03-09T19:02:23.000Z</time>
      </trkpt>
      <trkpt lat="43.30885" lon="-1.58596">
        <ele>66</ele>
        <time>2026-03-09T19:02:26.000Z</time>
      </trkpt>
      <trkpt lat="43.30918" lon="-1.58569">
        <ele>65</ele>
        <time>2026-03-09T19:02:32.000Z</time>
      </trkpt>
      <trkpt lat="43.30998" lon="-1.58508">
        <ele>64</ele>
        <time>2026-03-09T19:02:49.000Z</time>
      </trkpt>
      <trkpt lat="43.31111" lon="-1.5843">
        <ele>59</ele>
        <time>2026-03-09T19:03:11.000Z</time>
      </trkpt>
      <trkpt lat="43.31124" lon="-1.58425">
        <ele>60</ele>
        <time>2026-03-09T19:03:14.000Z</time>
      </trkpt>
      <trkpt lat="43.31151" lon="-1.58417">
        <ele>60</ele>
        <time>2026-03-09T19:03:19.000Z</time>
      </trkpt>
      <trkpt lat="43.31177" lon="-1.58415">
        <ele>60</ele>
        <time>2026-03-09T19:03:23.000Z</time>
      </trkpt>
      <trkpt lat="43.31277" lon="-1.58432">
        <ele>61</ele>
        <time>2026-03-09T19:03:41.000Z</time>
      </trkpt>
      <trkpt lat="43.31297" lon="-1.58431">
        <ele>61</ele>
        <time>2026-03-09T19:03:45.000Z</time>
      </trkpt>
      <trkpt lat="43.31319" lon="-1.58425">
        <ele>61</ele>
        <time>2026-03-09T19:03:49.000Z</time>
      </trkpt>
      <trkpt lat="43.31351" lon="-1.58408">
        <ele>61</ele>
        <time>2026-03-09T19:03:55.000Z</time>
      </trkpt>
      <trkpt lat="43.31412" lon="-1.58372">
        <ele>61</ele>
        <time>2026-03-09T19:04:07.000Z</time>
      </trkpt>
      <trkpt lat="43.3142" lon="-1.58364">
        <ele>61</ele>
        <time>2026-03-09T19:04:08.000Z</time>
      </trkpt>
      <trkpt lat="43.31425" lon="-1.58356">
        <ele>61</ele>
        <time>2026-03-09T19:04:10.000Z</time>
      </trkpt>
      <trkpt lat="43.31443" lon="-1.58321">
        <ele>61</ele>
        <time>2026-03-09T19:04:15.000Z</time>
      </trkpt>
      <trkpt lat="43.31448" lon="-1.58301">
        <ele>61</ele>
        <time>2026-03-09T19:04:18.000Z</time>
      </trkpt>
      <trkpt lat="43.31446" lon="-1.5829">
        <ele>61</ele>
        <time>2026-03-09T19:04:19.000Z</time>
      </trkpt>
      <trkpt lat="43.31447" lon="-1.58284">
        <ele>61</ele>
        <time>2026-03-09T19:04:20.000Z</time>
      </trkpt>
      <trkpt lat="43.31452" lon="-1.58275">
        <ele>61</ele>
        <time>2026-03-09T19:04:22.000Z</time>
      </trkpt>
      <trkpt lat="43.31456" lon="-1.58273">
        <ele>61</ele>
        <time>2026-03-09T19:04:23.000Z</time>
      </trkpt>
      <trkpt lat="43.31464" lon="-1.58271">
        <ele>61</ele>
        <time>2026-03-09T19:04:24.000Z</time>
      </trkpt>
      <trkpt lat="43.31472" lon="-1.58277">
        <ele>61</ele>
        <time>2026-03-09T19:04:26.000Z</time>
      </trkpt>
      <trkpt lat="43.31476" lon="-1.58287">
        <ele>61</ele>
        <time>2026-03-09T19:04:27.000Z</time>
      </trkpt>
      <trkpt lat="43.31476" lon="-1.583">
        <ele>62</ele>
        <time>2026-03-09T19:04:29.000Z</time>
      </trkpt>
      <trkpt lat="43.31482" lon="-1.58323">
        <ele>63</ele>
        <time>2026-03-09T19:04:32.000Z</time>
      </trkpt>
      <trkpt lat="43.31542" lon="-1.5839">
        <ele>67</ele>
        <time>2026-03-09T19:04:46.000Z</time>
      </trkpt>
      <trkpt lat="43.31559" lon="-1.58416">
        <ele>69</ele>
        <time>2026-03-09T19:04:50.000Z</time>
      </trkpt>
      <trkpt lat="43.3157" lon="-1.58443">
        <ele>70</ele>
        <time>2026-03-09T19:04:54.000Z</time>
      </trkpt>
      <trkpt lat="43.31582" lon="-1.58483">
        <ele>72</ele>
        <time>2026-03-09T19:05:00.000Z</time>
      </trkpt>
      <trkpt lat="43.31622" lon="-1.58668">
        <ele>85</ele>
        <time>2026-03-09T19:05:25.000Z</time>
      </trkpt>
      <trkpt lat="43.31633" lon="-1.58693">
        <ele>88</ele>
        <time>2026-03-09T19:05:29.000Z</time>
      </trkpt>
      <trkpt lat="43.31648" lon="-1.58716">
        <ele>92</ele>
        <time>2026-03-09T19:05:33.000Z</time>
      </trkpt>
      <trkpt lat="43.31696" lon="-1.58753">
        <ele>100</ele>
        <time>2026-03-09T19:05:42.000Z</time>
      </trkpt>
      <trkpt lat="43.3172" lon="-1.58782">
        <ele>107</ele>
        <time>2026-03-09T19:05:48.000Z</time>
      </trkpt>
      <trkpt lat="43.31721" lon="-1.5879">
        <ele>108</ele>
        <time>2026-03-09T19:05:49.000Z</time>
      </trkpt>
      <trkpt lat="43.31716" lon="-1.58797">
        <ele>109</ele>
        <time>2026-03-09T19:05:50.000Z</time>
      </trkpt>
      <trkpt lat="43.31655" lon="-1.58801">
        <ele>107</ele>
        <time>2026-03-09T19:06:01.000Z</time>
      </trkpt>
      <trkpt lat="43.31617" lon="-1.58807">
        <ele>107</ele>
        <time>2026-03-09T19:06:08.000Z</time>
      </trkpt>
      <trkpt lat="43.31585" lon="-1.58822">
        <ele>111</ele>
        <time>2026-03-09T19:06:14.000Z</time>
      </trkpt>
      <trkpt lat="43.3155" lon="-1.58832">
        <ele>111</ele>
        <time>2026-03-09T19:06:20.000Z</time>
      </trkpt>
      <trkpt lat="43.31501" lon="-1.58834">
        <ele>107</ele>
        <time>2026-03-09T19:06:29.000Z</time>
      </trkpt>
      <trkpt lat="43.31494" lon="-1.58837">
        <ele>107</ele>
        <time>2026-03-09T19:06:30.000Z</time>
      </trkpt>
      <trkpt lat="43.31489" lon="-1.58843">
        <ele>108</ele>
        <time>2026-03-09T19:06:32.000Z</time>
      </trkpt>
      <trkpt lat="43.31489" lon="-1.58852">
        <ele>111</ele>
        <time>2026-03-09T19:06:33.000Z</time>
      </trkpt>
      <trkpt lat="43.31491" lon="-1.58857">
        <ele>112</ele>
        <time>2026-03-09T19:06:34.000Z</time>
      </trkpt>
      <trkpt lat="43.31496" lon="-1.58861">
        <ele>114</ele>
        <time>2026-03-09T19:06:35.000Z</time>
      </trkpt>
      <trkpt lat="43.31503" lon="-1.58861">
        <ele>114</ele>
        <time>2026-03-09T19:06:36.000Z</time>
      </trkpt>
      <trkpt lat="43.31515" lon="-1.58856">
        <ele>114</ele>
        <time>2026-03-09T19:06:38.000Z</time>
      </trkpt>
      <trkpt lat="43.31529" lon="-1.58853">
        <ele>114</ele>
        <time>2026-03-09T19:06:41.000Z</time>
      </trkpt>
      <trkpt lat="43.31553" lon="-1.58858">
        <ele>117</ele>
        <time>2026-03-09T19:06:45.000Z</time>
      </trkpt>
      <trkpt lat="43.31597" lon="-1.58856">
        <ele>119</ele>
        <time>2026-03-09T19:06:53.000Z</time>
      </trkpt>
      <trkpt lat="43.3163" lon="-1.58861">
        <ele>120</ele>
        <time>2026-03-09T19:06:59.000Z</time>
      </trkpt>
      <trkpt lat="43.31651" lon="-1.58868">
        <ele>122</ele>
        <time>2026-03-09T19:07:02.000Z</time>
      </trkpt>
      <trkpt lat="43.31695" lon="-1.58873">
        <ele>123</ele>
        <time>2026-03-09T19:07:10.000Z</time>
      </trkpt>
      <trkpt lat="43.31705" lon="-1.58876">
        <ele>123</ele>
        <time>2026-03-09T19:07:12.000Z</time>
      </trkpt>
      <trkpt lat="43.31748" lon="-1.58922">
        <ele>127</ele>
        <time>2026-03-09T19:07:22.000Z</time>
      </trkpt>
      <trkpt lat="43.31763" lon="-1.5893">
        <ele>128</ele>
        <time>2026-03-09T19:07:25.000Z</time>
      </trkpt>
      <trkpt lat="43.31792" lon="-1.58933">
        <ele>128</ele>
        <time>2026-03-09T19:07:30.000Z</time>
      </trkpt>
      <trkpt lat="43.318" lon="-1.58937">
        <ele>128</ele>
        <time>2026-03-09T19:07:31.000Z</time>
      </trkpt>
      <trkpt lat="43.31806" lon="-1.58942">
        <ele>128</ele>
        <time>2026-03-09T19:07:33.000Z</time>
      </trkpt>
      <trkpt lat="43.31812" lon="-1.58952">
        <ele>128</ele>
        <time>2026-03-09T19:07:34.000Z</time>
      </trkpt>
      <trkpt lat="43.31814" lon="-1.58961">
        <ele>128</ele>
        <time>2026-03-09T19:07:36.000Z</time>
      </trkpt>
      <trkpt lat="43.31814" lon="-1.5897">
        <ele>128</ele>
        <time>2026-03-09T19:07:37.000Z</time>
      </trkpt>
      <trkpt lat="43.31813" lon="-1.58977">
        <ele>128</ele>
        <time>2026-03-09T19:07:38.000Z</time>
      </trkpt>
      <trkpt lat="43.31789" lon="-1.59021">
        <ele>126</ele>
        <time>2026-03-09T19:07:45.000Z</time>
      </trkpt>
      <trkpt lat="43.31781" lon="-1.59031">
        <ele>125</ele>
        <time>2026-03-09T19:07:47.000Z</time>
      </trkpt>
      <trkpt lat="43.31774" lon="-1.59036">
        <ele>125</ele>
        <time>2026-03-09T19:07:48.000Z</time>
      </trkpt>
      <trkpt lat="43.31767" lon="-1.59037">
        <ele>125</ele>
        <time>2026-03-09T19:07:49.000Z</time>
      </trkpt>
      <trkpt lat="43.31737" lon="-1.5903">
        <ele>129</ele>
        <time>2026-03-09T19:07:55.000Z</time>
      </trkpt>
      <trkpt lat="43.31722" lon="-1.5903">
        <ele>131</ele>
        <time>2026-03-09T19:07:57.000Z</time>
      </trkpt>
      <trkpt lat="43.31709" lon="-1.59033">
        <ele>132</ele>
        <time>2026-03-09T19:08:00.000Z</time>
      </trkpt>
      <trkpt lat="43.31698" lon="-1.59039">
        <ele>132</ele>
        <time>2026-03-09T19:08:02.000Z</time>
      </trkpt>
      <trkpt lat="43.31689" lon="-1.59049">
        <ele>132</ele>
        <time>2026-03-09T19:08:04.000Z</time>
      </trkpt>
      <trkpt lat="43.31671" lon="-1.59078">
        <ele>131</ele>
        <time>2026-03-09T19:08:09.000Z</time>
      </trkpt>
      <trkpt lat="43.31654" lon="-1.59094">
        <ele>131</ele>
        <time>2026-03-09T19:08:13.000Z</time>
      </trkpt>
      <trkpt lat="43.31644" lon="-1.59099">
        <ele>132</ele>
        <time>2026-03-09T19:08:14.000Z</time>
      </trkpt>
      <trkpt lat="43.31611" lon="-1.59107">
        <ele>136</ele>
        <time>2026-03-09T19:08:20.000Z</time>
      </trkpt>
      <trkpt lat="43.31602" lon="-1.59114">
        <ele>137</ele>
        <time>2026-03-09T19:08:22.000Z</time>
      </trkpt>
      <trkpt lat="43.31597" lon="-1.59124">
        <ele>137</ele>
        <time>2026-03-09T19:08:24.000Z</time>
      </trkpt>
      <trkpt lat="43.31593" lon="-1.59156">
        <ele>136</ele>
        <time>2026-03-09T19:08:28.000Z</time>
      </trkpt>
      <trkpt lat="43.31586" lon="-1.59178">
        <ele>136</ele>
        <time>2026-03-09T19:08:31.000Z</time>
      </trkpt>
      <trkpt lat="43.3156" lon="-1.59243">
        <ele>142</ele>
        <time>2026-03-09T19:08:41.000Z</time>
      </trkpt>
      <trkpt lat="43.31542" lon="-1.59296">
        <ele>148</ele>
        <time>2026-03-09T19:08:48.000Z</time>
      </trkpt>
      <trkpt lat="43.3153" lon="-1.59315">
        <ele>152</ele>
        <time>2026-03-09T19:08:52.000Z</time>
      </trkpt>
      <trkpt lat="43.31516" lon="-1.59328">
        <ele>156</ele>
        <time>2026-03-09T19:08:55.000Z</time>
      </trkpt>
      <trkpt lat="43.31514" lon="-1.59336">
        <ele>157</ele>
        <time>2026-03-09T19:08:56.000Z</time>
      </trkpt>
      <trkpt lat="43.31514" lon="-1.59346">
        <ele>158</ele>
        <time>2026-03-09T19:08:57.000Z</time>
      </trkpt>
      <trkpt lat="43.31517" lon="-1.59352">
        <ele>158</ele>
        <time>2026-03-09T19:08:58.000Z</time>
      </trkpt>
      <trkpt lat="43.31529" lon="-1.59359">
        <ele>156</ele>
        <time>2026-03-09T19:09:00.000Z</time>
      </trkpt>
      <trkpt lat="43.31537" lon="-1.59366">
        <ele>154</ele>
        <time>2026-03-09T19:09:02.000Z</time>
      </trkpt>
      <trkpt lat="43.31544" lon="-1.59381">
        <ele>155</ele>
        <time>2026-03-09T19:09:04.000Z</time>
      </trkpt>
      <trkpt lat="43.3155" lon="-1.59401">
        <ele>156</ele>
        <time>2026-03-09T19:09:07.000Z</time>
      </trkpt>
      <trkpt lat="43.31554" lon="-1.59408">
        <ele>156</ele>
        <time>2026-03-09T19:09:08.000Z</time>
      </trkpt>
      <trkpt lat="43.31561" lon="-1.59412">
        <ele>155</ele>
        <time>2026-03-09T19:09:09.000Z</time>
      </trkpt>
      <trkpt lat="43.31587" lon="-1.59417">
        <ele>151</ele>
        <time>2026-03-09T19:09:14.000Z</time>
      </trkpt>
      <trkpt lat="43.31594" lon="-1.59422">
        <ele>151</ele>
        <time>2026-03-09T19:09:16.000Z</time>
      </trkpt>
      <trkpt lat="43.316" lon="-1.59428">
        <ele>151</ele>
        <time>2026-03-09T19:09:17.000Z</time>
      </trkpt>
      <trkpt lat="43.31621" lon="-1.59469">
        <ele>157</ele>
        <time>2026-03-09T19:09:23.000Z</time>
      </trkpt>
      <trkpt lat="43.31631" lon="-1.59475">
        <ele>157</ele>
        <time>2026-03-09T19:09:25.000Z</time>
      </trkpt>
      <trkpt lat="43.31651" lon="-1.59482">
        <ele>155</ele>
        <time>2026-03-09T19:09:29.000Z</time>
      </trkpt>
      <trkpt lat="43.31658" lon="-1.59487">
        <ele>155</ele>
        <time>2026-03-09T19:09:30.000Z</time>
      </trkpt>
      <trkpt lat="43.31682" lon="-1.59515">
        <ele>157</ele>
        <time>2026-03-09T19:09:36.000Z</time>
      </trkpt>
      <trkpt lat="43.31705" lon="-1.59529">
        <ele>155</ele>
        <time>2026-03-09T19:09:40.000Z</time>
      </trkpt>
      <trkpt lat="43.31723" lon="-1.59555">
        <ele>155</ele>
        <time>2026-03-09T19:09:45.000Z</time>
      </trkpt>
      <trkpt lat="43.31732" lon="-1.5957">
        <ele>155</ele>
        <time>2026-03-09T19:09:48.000Z</time>
      </trkpt>
      <trkpt lat="43.31737" lon="-1.59582">
        <ele>156</ele>
        <time>2026-03-09T19:09:49.000Z</time>
      </trkpt>
      <trkpt lat="43.31739" lon="-1.59594">
        <ele>156</ele>
        <time>2026-03-09T19:09:51.000Z</time>
      </trkpt>
      <trkpt lat="43.31739" lon="-1.59609">
        <ele>158</ele>
        <time>2026-03-09T19:09:53.000Z</time>
      </trkpt>
      <trkpt lat="43.31737" lon="-1.59623">
        <ele>160</ele>
        <time>2026-03-09T19:09:55.000Z</time>
      </trkpt>
      <trkpt lat="43.31724" lon="-1.59658">
        <ele>168</ele>
        <time>2026-03-09T19:10:00.000Z</time>
      </trkpt>
      <trkpt lat="43.31723" lon="-1.59668">
        <ele>170</ele>
        <time>2026-03-09T19:10:01.000Z</time>
      </trkpt>
      <trkpt lat="43.31725" lon="-1.59675">
        <ele>170</ele>
        <time>2026-03-09T19:10:02.000Z</time>
      </trkpt>
      <trkpt lat="43.31737" lon="-1.59684">
        <ele>168</ele>
        <time>2026-03-09T19:10:05.000Z</time>
      </trkpt>
      <trkpt lat="43.31744" lon="-1.59691">
        <ele>167</ele>
        <time>2026-03-09T19:10:06.000Z</time>
      </trkpt>
      <trkpt lat="43.31758" lon="-1.59719">
        <ele>170</ele>
        <time>2026-03-09T19:10:11.000Z</time>
      </trkpt>
      <trkpt lat="43.31763" lon="-1.59722">
        <ele>170</ele>
        <time>2026-03-09T19:10:11.000Z</time>
      </trkpt>
      <trkpt lat="43.31781" lon="-1.59722">
        <ele>167</ele>
        <time>2026-03-09T19:10:15.000Z</time>
      </trkpt>
      <trkpt lat="43.31793" lon="-1.59726">
        <ele>166</ele>
        <time>2026-03-09T19:10:17.000Z</time>
      </trkpt>
      <trkpt lat="43.31813" lon="-1.59751">
        <ele>167</ele>
        <time>2026-03-09T19:10:22.000Z</time>
      </trkpt>
      <trkpt lat="43.31825" lon="-1.59764">
        <ele>167</ele>
        <time>2026-03-09T19:10:24.000Z</time>
      </trkpt>
      <trkpt lat="43.31864" lon="-1.59784">
        <ele>167</ele>
        <time>2026-03-09T19:10:32.000Z</time>
      </trkpt>
      <trkpt lat="43.31871" lon="-1.59792">
        <ele>168</ele>
        <time>2026-03-09T19:10:33.000Z</time>
      </trkpt>
      <trkpt lat="43.31884" lon="-1.59819">
        <ele>172</ele>
        <time>2026-03-09T19:10:38.000Z</time>
      </trkpt>
      <trkpt lat="43.31893" lon="-1.59824">
        <ele>172</ele>
        <time>2026-03-09T19:10:39.000Z</time>
      </trkpt>
      <trkpt lat="43.3192" lon="-1.59822">
        <ele>170</ele>
        <time>2026-03-09T19:10:44.000Z</time>
      </trkpt>
      <trkpt lat="43.31932" lon="-1.5983">
        <ele>171</ele>
        <time>2026-03-09T19:10:47.000Z</time>
      </trkpt>
      <trkpt lat="43.31957" lon="-1.5985">
        <ele>177</ele>
        <time>2026-03-09T19:10:52.000Z</time>
      </trkpt>
      <trkpt lat="43.3197" lon="-1.59856">
        <ele>178</ele>
        <time>2026-03-09T19:10:54.000Z</time>
      </trkpt>
      <trkpt lat="43.31976" lon="-1.59855">
        <ele>178</ele>
        <time>2026-03-09T19:10:55.000Z</time>
      </trkpt>
      <trkpt lat="43.32" lon="-1.59835">
        <ele>173</ele>
        <time>2026-03-09T19:11:00.000Z</time>
      </trkpt>
      <trkpt lat="43.3202" lon="-1.59824">
        <ele>174</ele>
        <time>2026-03-09T19:11:04.000Z</time>
      </trkpt>
      <trkpt lat="43.32027" lon="-1.59816">
        <ele>173</ele>
        <time>2026-03-09T19:11:06.000Z</time>
      </trkpt>
      <trkpt lat="43.32042" lon="-1.59788">
        <ele>168</ele>
        <time>2026-03-09T19:11:10.000Z</time>
      </trkpt>
      <trkpt lat="43.32052" lon="-1.59779">
        <ele>167</ele>
        <time>2026-03-09T19:11:12.000Z</time>
      </trkpt>
      <trkpt lat="43.3206" lon="-1.59781">
        <ele>169</ele>
        <time>2026-03-09T19:11:14.000Z</time>
      </trkpt>
      <trkpt lat="43.32103" lon="-1.59803">
        <ele>175</ele>
        <time>2026-03-09T19:11:22.000Z</time>
      </trkpt>
      <trkpt lat="43.32138" lon="-1.59812">
        <ele>174</ele>
        <time>2026-03-09T19:11:28.000Z</time>
      </trkpt>
      <trkpt lat="43.32154" lon="-1.5982">
        <ele>175</ele>
        <time>2026-03-09T19:11:31.000Z</time>
      </trkpt>
      <trkpt lat="43.32172" lon="-1.59841">
        <ele>177</ele>
        <time>2026-03-09T19:11:35.000Z</time>
      </trkpt>
      <trkpt lat="43.32184" lon="-1.59866">
        <ele>177</ele>
        <time>2026-03-09T19:11:39.000Z</time>
      </trkpt>
      <trkpt lat="43.32187" lon="-1.59887">
        <ele>178</ele>
        <time>2026-03-09T19:11:42.000Z</time>
      </trkpt>
      <trkpt lat="43.3219" lon="-1.59928">
        <ele>182</ele>
        <time>2026-03-09T19:11:47.000Z</time>
      </trkpt>
      <trkpt lat="43.32189" lon="-1.59943">
        <ele>184</ele>
        <time>2026-03-09T19:11:49.000Z</time>
      </trkpt>
      <trkpt lat="43.32182" lon="-1.59969">
        <ele>189</ele>
        <time>2026-03-09T19:11:53.000Z</time>
      </trkpt>
      <trkpt lat="43.32181" lon="-1.59981">
        <ele>191</ele>
        <time>2026-03-09T19:11:55.000Z</time>
      </trkpt>
      <trkpt lat="43.32183" lon="-1.59986">
        <ele>191</ele>
        <time>2026-03-09T19:11:55.000Z</time>
      </trkpt>
      <trkpt lat="43.32187" lon="-1.5999">
        <ele>192</ele>
        <time>2026-03-09T19:11:56.000Z</time>
      </trkpt>
      <trkpt lat="43.32191" lon="-1.59993">
        <ele>192</ele>
        <time>2026-03-09T19:11:57.000Z</time>
      </trkpt>
      <trkpt lat="43.32203" lon="-1.5999">
        <ele>191</ele>
        <time>2026-03-09T19:11:59.000Z</time>
      </trkpt>
      <trkpt lat="43.3223" lon="-1.59953">
        <ele>183</ele>
        <time>2026-03-09T19:12:06.000Z</time>
      </trkpt>
      <trkpt lat="43.32242" lon="-1.59947">
        <ele>181</ele>
        <time>2026-03-09T19:12:08.000Z</time>
      </trkpt>
      <trkpt lat="43.32252" lon="-1.59949">
        <ele>180</ele>
        <time>2026-03-09T19:12:10.000Z</time>
      </trkpt>
      <trkpt lat="43.32265" lon="-1.59959">
        <ele>181</ele>
        <time>2026-03-09T19:12:13.000Z</time>
      </trkpt>
      <trkpt lat="43.32286" lon="-1.59984">
        <ele>184</ele>
        <time>2026-03-09T19:12:18.000Z</time>
      </trkpt>
      <trkpt lat="43.32306" lon="-1.59999">
        <ele>184</ele>
        <time>2026-03-09T19:12:22.000Z</time>
      </trkpt>
      <trkpt lat="43.32329" lon="-1.60012">
        <ele>184</ele>
        <time>2026-03-09T19:12:26.000Z</time>
      </trkpt>
      <trkpt lat="43.3236" lon="-1.60023">
        <ele>182</ele>
        <time>2026-03-09T19:12:32.000Z</time>
      </trkpt>
      <trkpt lat="43.32373" lon="-1.6003">
        <ele>181</ele>
        <time>2026-03-09T19:12:34.000Z</time>
      </trkpt>
      <trkpt lat="43.32388" lon="-1.60045">
        <ele>180</ele>
        <time>2026-03-09T19:12:38.000Z</time>
      </trkpt>
      <trkpt lat="43.32422" lon="-1.60096">
        <ele>179</ele>
        <time>2026-03-09T19:12:47.000Z</time>
      </trkpt>
      <trkpt lat="43.32428" lon="-1.60101">
        <ele>179</ele>
        <time>2026-03-09T19:12:48.000Z</time>
      </trkpt>
      <trkpt lat="43.32438" lon="-1.60104">
        <ele>179</ele>
        <time>2026-03-09T19:12:50.000Z</time>
      </trkpt>
      <trkpt lat="43.32452" lon="-1.60094">
        <ele>176</ele>
        <time>2026-03-09T19:12:52.000Z</time>
      </trkpt>
      <trkpt lat="43.3249" lon="-1.60061">
        <ele>173</ele>
        <time>2026-03-09T19:13:00.000Z</time>
      </trkpt>
      <trkpt lat="43.32498" lon="-1.60056">
        <ele>173</ele>
        <time>2026-03-09T19:13:02.000Z</time>
      </trkpt>
      <trkpt lat="43.32507" lon="-1.60054">
        <ele>173</ele>
        <time>2026-03-09T19:13:04.000Z</time>
      </trkpt>
      <trkpt lat="43.32517" lon="-1.60054">
        <ele>174</ele>
        <time>2026-03-09T19:13:05.000Z</time>
      </trkpt>
      <trkpt lat="43.32529" lon="-1.60061">
        <ele>173</ele>
        <time>2026-03-09T19:13:08.000Z</time>
      </trkpt>
      <trkpt lat="43.32561" lon="-1.60087">
        <ele>170</ele>
        <time>2026-03-09T19:13:14.000Z</time>
      </trkpt>
      <trkpt lat="43.32578" lon="-1.60097">
        <ele>168</ele>
        <time>2026-03-09T19:13:18.000Z</time>
      </trkpt>
      <trkpt lat="43.32595" lon="-1.60104">
        <ele>168</ele>
        <time>2026-03-09T19:13:21.000Z</time>
      </trkpt>
      <trkpt lat="43.32685" lon="-1.60134">
        <ele>169</ele>
        <time>2026-03-09T19:13:37.000Z</time>
      </trkpt>
      <trkpt lat="43.32714" lon="-1.60151">
        <ele>168</ele>
        <time>2026-03-09T19:13:43.000Z</time>
      </trkpt>
      <trkpt lat="43.32751" lon="-1.60178">
        <ele>166</ele>
        <time>2026-03-09T19:13:50.000Z</time>
      </trkpt>
      <trkpt lat="43.32772" lon="-1.60187">
        <ele>164</ele>
        <time>2026-03-09T19:13:54.000Z</time>
      </trkpt>
      <trkpt lat="43.32792" lon="-1.60191">
        <ele>164</ele>
        <time>2026-03-09T19:13:58.000Z</time>
      </trkpt>
      <trkpt lat="43.32899" lon="-1.60204">
        <ele>162</ele>
        <time>2026-03-09T19:14:17.000Z</time>
      </trkpt>
      <trkpt lat="43.32981" lon="-1.60215">
        <ele>158</ele>
        <time>2026-03-09T19:14:32.000Z</time>
      </trkpt>
      <trkpt lat="43.33019" lon="-1.60227">
        <ele>155</ele>
        <time>2026-03-09T19:14:38.000Z</time>
      </trkpt>
      <trkpt lat="43.33073" lon="-1.60252">
        <ele>152</ele>
        <time>2026-03-09T19:14:49.000Z</time>
      </trkpt>
      <trkpt lat="43.33094" lon="-1.60262">
        <ele>152</ele>
        <time>2026-03-09T19:14:53.000Z</time>
      </trkpt>
      <trkpt lat="43.3311" lon="-1.60273">
        <ele>151</ele>
        <time>2026-03-09T19:14:56.000Z</time>
      </trkpt>
      <trkpt lat="43.33128" lon="-1.60292">
        <ele>150</ele>
        <time>2026-03-09T19:15:00.000Z</time>
      </trkpt>
      <trkpt lat="43.33143" lon="-1.60316">
        <ele>150</ele>
        <time>2026-03-09T19:15:04.000Z</time>
      </trkpt>
      <trkpt lat="43.33156" lon="-1.60359">
        <ele>148</ele>
        <time>2026-03-09T19:15:10.000Z</time>
      </trkpt>
      <trkpt lat="43.33174" lon="-1.60406">
        <ele>145</ele>
        <time>2026-03-09T19:15:17.000Z</time>
      </trkpt>
      <trkpt lat="43.33178" lon="-1.60435">
        <ele>142</ele>
        <time>2026-03-09T19:15:21.000Z</time>
      </trkpt>
      <trkpt lat="43.33185" lon="-1.60466">
        <ele>139</ele>
        <time>2026-03-09T19:15:25.000Z</time>
      </trkpt>
      <trkpt lat="43.33199" lon="-1.60488">
        <ele>139</ele>
        <time>2026-03-09T19:15:29.000Z</time>
      </trkpt>
      <trkpt lat="43.33212" lon="-1.60497">
        <ele>141</ele>
        <time>2026-03-09T19:15:31.000Z</time>
      </trkpt>
      <trkpt lat="43.33234" lon="-1.60504">
        <ele>146</ele>
        <time>2026-03-09T19:15:35.000Z</time>
      </trkpt>
      <trkpt lat="43.33244" lon="-1.60513">
        <ele>148</ele>
        <time>2026-03-09T19:15:37.000Z</time>
      </trkpt>
      <trkpt lat="43.33247" lon="-1.60524">
        <ele>147</ele>
        <time>2026-03-09T19:15:39.000Z</time>
      </trkpt>
      <trkpt lat="43.33243" lon="-1.6057">
        <ele>140</ele>
        <time>2026-03-09T19:15:45.000Z</time>
      </trkpt>
      <trkpt lat="43.33249" lon="-1.60601">
        <ele>136</ele>
        <time>2026-03-09T19:15:49.000Z</time>
      </trkpt>
      <trkpt lat="43.33268" lon="-1.60651">
        <ele>132</ele>
        <time>2026-03-09T19:15:56.000Z</time>
      </trkpt>
      <trkpt lat="43.33317" lon="-1.60728">
        <ele>129</ele>
        <time>2026-03-09T19:16:10.000Z</time>
      </trkpt>
      <trkpt lat="43.33331" lon="-1.60735">
        <ele>131</ele>
        <time>2026-03-09T19:16:12.000Z</time>
      </trkpt>
      <trkpt lat="43.33344" lon="-1.60746">
        <ele>131</ele>
        <time>2026-03-09T19:16:15.000Z</time>
      </trkpt>
      <trkpt lat="43.33353" lon="-1.60767">
        <ele>129</ele>
        <time>2026-03-09T19:16:18.000Z</time>
      </trkpt>
      <trkpt lat="43.33353" lon="-1.60788">
        <ele>125</ele>
        <time>2026-03-09T19:16:21.000Z</time>
      </trkpt>
      <trkpt lat="43.33359" lon="-1.60813">
        <ele>122</ele>
        <time>2026-03-09T19:16:24.000Z</time>
      </trkpt>
      <trkpt lat="43.33373" lon="-1.60836">
        <ele>120</ele>
        <time>2026-03-09T19:16:28.000Z</time>
      </trkpt>
      <trkpt lat="43.3339" lon="-1.60852">
        <ele>119</ele>
        <time>2026-03-09T19:16:32.000Z</time>
      </trkpt>
      <trkpt lat="43.33401" lon="-1.60853">
        <ele>121</ele>
        <time>2026-03-09T19:16:34.000Z</time>
      </trkpt>
      <trkpt lat="43.33424" lon="-1.60845">
        <ele>127</ele>
        <time>2026-03-09T19:16:38.000Z</time>
      </trkpt>
      <trkpt lat="43.33434" lon="-1.60846">
        <ele>130</ele>
        <time>2026-03-09T19:16:40.000Z</time>
      </trkpt>
      <trkpt lat="43.33441" lon="-1.60858">
        <ele>130</ele>
        <time>2026-03-09T19:16:42.000Z</time>
      </trkpt>
      <trkpt lat="43.33442" lon="-1.60876">
        <ele>127</ele>
        <time>2026-03-09T19:16:44.000Z</time>
      </trkpt>
      <trkpt lat="43.33434" lon="-1.60918">
        <ele>117</ele>
        <time>2026-03-09T19:16:50.000Z</time>
      </trkpt>
      <trkpt lat="43.33435" lon="-1.60941">
        <ele>115</ele>
        <time>2026-03-09T19:16:53.000Z</time>
      </trkpt>
      <trkpt lat="43.33441" lon="-1.60956">
        <ele>116</ele>
        <time>2026-03-09T19:16:55.000Z</time>
      </trkpt>
      <trkpt lat="43.33457" lon="-1.60973">
        <ele>121</ele>
        <time>2026-03-09T19:16:58.000Z</time>
      </trkpt>
      <trkpt lat="43.33461" lon="-1.60989">
        <ele>121</ele>
        <time>2026-03-09T19:17:01.000Z</time>
      </trkpt>
      <trkpt lat="43.33458" lon="-1.61001">
        <ele>119</ele>
        <time>2026-03-09T19:17:02.000Z</time>
      </trkpt>
      <trkpt lat="43.33439" lon="-1.61015">
        <ele>112</ele>
        <time>2026-03-09T19:17:06.000Z</time>
      </trkpt>
      <trkpt lat="43.3343" lon="-1.61045">
        <ele>108</ele>
        <time>2026-03-09T19:17:10.000Z</time>
      </trkpt>
      <trkpt lat="43.33429" lon="-1.61078">
        <ele>108</ele>
        <time>2026-03-09T19:17:15.000Z</time>
      </trkpt>
      <trkpt lat="43.33423" lon="-1.61102">
        <ele>103</ele>
        <time>2026-03-09T19:17:18.000Z</time>
      </trkpt>
      <trkpt lat="43.33421" lon="-1.61125">
        <ele>100</ele>
        <time>2026-03-09T19:17:21.000Z</time>
      </trkpt>
      <trkpt lat="43.33423" lon="-1.6117">
        <ele>97</ele>
        <time>2026-03-09T19:17:27.000Z</time>
      </trkpt>
      <trkpt lat="43.33431" lon="-1.612">
        <ele>94</ele>
        <time>2026-03-09T19:17:31.000Z</time>
      </trkpt>
      <trkpt lat="43.3344" lon="-1.61214">
        <ele>94</ele>
        <time>2026-03-09T19:17:33.000Z</time>
      </trkpt>
      <trkpt lat="43.33448" lon="-1.61219">
        <ele>95</ele>
        <time>2026-03-09T19:17:35.000Z</time>
      </trkpt>
      <trkpt lat="43.33457" lon="-1.61218">
        <ele>98</ele>
        <time>2026-03-09T19:17:36.000Z</time>
      </trkpt>
      <trkpt lat="43.33471" lon="-1.61223">
        <ele>101</ele>
        <time>2026-03-09T19:17:39.000Z</time>
      </trkpt>
      <trkpt lat="43.3348" lon="-1.61233">
        <ele>101</ele>
        <time>2026-03-09T19:17:41.000Z</time>
      </trkpt>
      <trkpt lat="43.33501" lon="-1.61281">
        <ele>95</ele>
        <time>2026-03-09T19:17:48.000Z</time>
      </trkpt>
      <trkpt lat="43.33531" lon="-1.61302">
        <ele>97</ele>
        <time>2026-03-09T19:17:54.000Z</time>
      </trkpt>
      <trkpt lat="43.33538" lon="-1.61319">
        <ele>95</ele>
        <time>2026-03-09T19:17:57.000Z</time>
      </trkpt>
      <trkpt lat="43.33539" lon="-1.61369">
        <ele>86</ele>
        <time>2026-03-09T19:18:03.000Z</time>
      </trkpt>
      <trkpt lat="43.33546" lon="-1.61387">
        <ele>84</ele>
        <time>2026-03-09T19:18:06.000Z</time>
      </trkpt>
      <trkpt lat="43.33566" lon="-1.61407">
        <ele>85</ele>
        <time>2026-03-09T19:18:10.000Z</time>
      </trkpt>
      <trkpt lat="43.33576" lon="-1.61419">
        <ele>85</ele>
        <time>2026-03-09T19:18:13.000Z</time>
      </trkpt>
      <trkpt lat="43.3359" lon="-1.6145">
        <ele>81</ele>
        <time>2026-03-09T19:18:17.000Z</time>
      </trkpt>
      <trkpt lat="43.33602" lon="-1.61468">
        <ele>79</ele>
        <time>2026-03-09T19:18:21.000Z</time>
      </trkpt>
      <trkpt lat="43.33615" lon="-1.61479">
        <ele>79</ele>
        <time>2026-03-09T19:18:23.000Z</time>
      </trkpt>
      <trkpt lat="43.33654" lon="-1.61499">
        <ele>80</ele>
        <time>2026-03-09T19:18:31.000Z</time>
      </trkpt>
      <trkpt lat="43.33696" lon="-1.61543">
        <ele>73</ele>
        <time>2026-03-09T19:18:40.000Z</time>
      </trkpt>
      <trkpt lat="43.33788" lon="-1.61574">
        <ele>63</ele>
        <time>2026-03-09T19:18:57.000Z</time>
      </trkpt>
      <trkpt lat="43.33807" lon="-1.61573">
        <ele>62</ele>
        <time>2026-03-09T19:19:00.000Z</time>
      </trkpt>
      <trkpt lat="43.33835" lon="-1.61567">
        <ele>61</ele>
        <time>2026-03-09T19:19:05.000Z</time>
      </trkpt>
      <trkpt lat="43.33868" lon="-1.61571">
        <ele>57</ele>
        <time>2026-03-09T19:19:11.000Z</time>
      </trkpt>
      <trkpt lat="43.33892" lon="-1.61563">
        <ele>58</ele>
        <time>2026-03-09T19:19:16.000Z</time>
      </trkpt>
      <trkpt lat="43.3392" lon="-1.61564">
        <ele>56</ele>
        <time>2026-03-09T19:19:21.000Z</time>
      </trkpt>
      <trkpt lat="43.33942" lon="-1.61559">
        <ele>58</ele>
        <time>2026-03-09T19:19:25.000Z</time>
      </trkpt>
      <trkpt lat="43.33962" lon="-1.61557">
        <ele>59</ele>
        <time>2026-03-09T19:19:28.000Z</time>
      </trkpt>
      <trkpt lat="43.34008" lon="-1.61565">
        <ele>57</ele>
        <time>2026-03-09T19:19:36.000Z</time>
      </trkpt>
      <trkpt lat="43.34025" lon="-1.61572">
        <ele>55</ele>
        <time>2026-03-09T19:19:40.000Z</time>
      </trkpt>
      <trkpt lat="43.3406" lon="-1.61609">
        <ele>48</ele>
        <time>2026-03-09T19:19:47.000Z</time>
      </trkpt>
      <trkpt lat="43.34077" lon="-1.61621">
        <ele>46</ele>
        <time>2026-03-09T19:19:51.000Z</time>
      </trkpt>
      <trkpt lat="43.34092" lon="-1.61623">
        <ele>46</ele>
        <time>2026-03-09T19:19:54.000Z</time>
      </trkpt>
      <trkpt lat="43.34147" lon="-1.61609">
        <ele>45</ele>
        <time>2026-03-09T19:20:03.000Z</time>
      </trkpt>
      <trkpt lat="43.34345" lon="-1.61629">
        <ele>32</ele>
        <time>2026-03-09T19:20:39.000Z</time>
      </trkpt>
      <trkpt lat="43.34356" lon="-1.61637">
        <ele>30</ele>
        <time>2026-03-09T19:20:41.000Z</time>
      </trkpt>
      <trkpt lat="43.34364" lon="-1.61649">
        <ele>29</ele>
        <time>2026-03-09T19:20:43.000Z</time>
      </trkpt>
      <trkpt lat="43.34377" lon="-1.61689">
        <ele>26</ele>
        <time>2026-03-09T19:20:49.000Z</time>
      </trkpt>
      <trkpt lat="43.34378" lon="-1.61699">
        <ele>25</ele>
        <time>2026-03-09T19:20:50.000Z</time>
      </trkpt>
      <trkpt lat="43.34379" lon="-1.61719">
        <ele>24</ele>
        <time>2026-03-09T19:20:53.000Z</time>
      </trkpt>
      <trkpt lat="43.3438" lon="-1.61879">
        <ele>24</ele>
        <time>2026-03-09T19:21:13.000Z</time>
      </trkpt>
      <trkpt lat="43.34381" lon="-1.61901">
        <ele>25</ele>
        <time>2026-03-09T19:21:16.000Z</time>
      </trkpt>
      <trkpt lat="43.34384" lon="-1.61931">
        <ele>26</ele>
        <time>2026-03-09T19:21:20.000Z</time>
      </trkpt>
      <trkpt lat="43.3447" lon="-1.61923">
        <ele>19</ele>
        <time>2026-03-09T19:21:36.000Z</time>
      </trkpt>
      <trkpt lat="43.34483" lon="-1.61925">
        <ele>18</ele>
        <time>2026-03-09T19:21:38.000Z</time>
      </trkpt>
      <trkpt lat="43.34501" lon="-1.6193">
        <ele>17</ele>
        <time>2026-03-09T19:21:41.000Z</time>
      </trkpt>
      <trkpt lat="43.34573" lon="-1.6196">
        <ele>16</ele>
        <time>2026-03-09T19:21:54.000Z</time>
      </trkpt>
      <trkpt lat="43.34576" lon="-1.61968">
        <ele>16</ele>
        <time>2026-03-09T19:21:56.000Z</time>
      </trkpt>
      <trkpt lat="43.3464" lon="-1.62016">
        <ele>13</ele>
        <time>2026-03-09T19:22:09.000Z</time>
      </trkpt>
      <trkpt lat="43.34679" lon="-1.62052">
        <ele>11</ele>
        <time>2026-03-09T19:22:17.000Z</time>
      </trkpt>
      <trkpt lat="43.3478" lon="-1.62127">
        <ele>9</ele>
        <time>2026-03-09T19:22:37.000Z</time>
      </trkpt>
      <trkpt lat="43.34816" lon="-1.62162">
        <ele>9</ele>
        <time>2026-03-09T19:22:45.000Z</time>
      </trkpt>
      <trkpt lat="43.348" lon="-1.62205">
        <ele>9</ele>
        <time>2026-03-09T19:22:52.000Z</time>
      </trkpt>
      <trkpt lat="43.34794" lon="-1.62229">
        <ele>9</ele>
        <time>2026-03-09T19:22:55.000Z</time>
      </trkpt>
      <trkpt lat="43.3481" lon="-1.62304">
        <ele>9</ele>
        <time>2026-03-09T19:23:05.000Z</time>
      </trkpt>
      <trkpt lat="43.34811" lon="-1.62319">
        <ele>9</ele>
        <time>2026-03-09T19:23:07.000Z</time>
      </trkpt>
      <trkpt lat="43.3481" lon="-1.62344">
        <ele>9</ele>
        <time>2026-03-09T19:23:10.000Z</time>
      </trkpt>
      <trkpt lat="43.34814" lon="-1.62357">
        <ele>8</ele>
        <time>2026-03-09T19:23:12.000Z</time>
      </trkpt>
      <trkpt lat="43.3486" lon="-1.62416">
        <ele>7</ele>
        <time>2026-03-09T19:23:23.000Z</time>
      </trkpt>
      <trkpt lat="43.34874" lon="-1.62439">
        <ele>7</ele>
        <time>2026-03-09T19:23:27.000Z</time>
      </trkpt>
      <trkpt lat="43.34909" lon="-1.62517">
        <ele>7</ele>
        <time>2026-03-09T19:23:39.000Z</time>
      </trkpt>
      <trkpt lat="43.34949" lon="-1.62522">
        <ele>7</ele>
        <time>2026-03-09T19:23:46.000Z</time>
      </trkpt>
      <trkpt lat="43.34989" lon="-1.6253">
        <ele>6</ele>
        <time>2026-03-09T19:23:53.000Z</time>
      </trkpt>
      <trkpt lat="43.35009" lon="-1.62533">
        <ele>6</ele>
        <time>2026-03-09T19:23:57.000Z</time>
      </trkpt>
      <trkpt lat="43.35033" lon="-1.62537">
        <ele>6</ele>
        <time>2026-03-09T19:24:01.000Z</time>
      </trkpt>
      <trkpt lat="43.35062" lon="-1.62537">
        <ele>6</ele>
        <time>2026-03-09T19:24:06.000Z</time>
      </trkpt>
      <trkpt lat="43.35099" lon="-1.6253">
        <ele>8</ele>
        <time>2026-03-09T19:24:13.000Z</time>
      </trkpt>
      <trkpt lat="43.35118" lon="-1.62528">
        <ele>12</ele>
        <time>2026-03-09T19:24:16.000Z</time>
      </trkpt>
      <trkpt lat="43.35176" lon="-1.62678">
        <ele>8</ele>
        <time>2026-03-09T19:24:38.000Z</time>
      </trkpt>
      <trkpt lat="43.35207" lon="-1.62759">
        <ele>8</ele>
        <time>2026-03-09T19:24:50.000Z</time>
      </trkpt>
      <trkpt lat="43.35255" lon="-1.629">
        <ele>6</ele>
        <time>2026-03-09T19:25:10.000Z</time>
      </trkpt>
      <trkpt lat="43.35268" lon="-1.62932">
        <ele>6</ele>
        <time>2026-03-09T19:25:15.000Z</time>
      </trkpt>
      <trkpt lat="43.35289" lon="-1.62974">
        <ele>6</ele>
        <time>2026-03-09T19:25:22.000Z</time>
      </trkpt>
      <trkpt lat="43.35306" lon="-1.62998">
        <ele>6</ele>
        <time>2026-03-09T19:25:26.000Z</time>
      </trkpt>
      <trkpt lat="43.3535" lon="-1.63044">
        <ele>7</ele>
        <time>2026-03-09T19:25:36.000Z</time>
      </trkpt>
      <trkpt lat="43.35386" lon="-1.63073">
        <ele>7</ele>
        <time>2026-03-09T19:25:43.000Z</time>
      </trkpt>
      <trkpt lat="43.35403" lon="-1.63082">
        <ele>7</ele>
        <time>2026-03-09T19:25:46.000Z</time>
      </trkpt>
      <trkpt lat="43.3544" lon="-1.63097">
        <ele>6</ele>
        <time>2026-03-09T19:25:53.000Z</time>
      </trkpt>
      <trkpt lat="43.35614" lon="-1.63148">
        <ele>5</ele>
        <time>2026-03-09T19:26:25.000Z</time>
      </trkpt>
      <trkpt lat="43.35639" lon="-1.63145">
        <ele>6</ele>
        <time>2026-03-09T19:26:29.000Z</time>
      </trkpt>
      <trkpt lat="43.35647" lon="-1.63139">
        <ele>6</ele>
        <time>2026-03-09T19:26:31.000Z</time>
      </trkpt>
      <trkpt lat="43.35653" lon="-1.63131">
        <ele>7</ele>
        <time>2026-03-09T19:26:32.000Z</time>
      </trkpt>
      <trkpt lat="43.35657" lon="-1.63129">
        <ele>7</ele>
        <time>2026-03-09T19:26:33.000Z</time>
      </trkpt>
      <trkpt lat="43.35664" lon="-1.63131">
        <ele>7</ele>
        <time>2026-03-09T19:26:35.000Z</time>
      </trkpt>
      <trkpt lat="43.3567" lon="-1.63137">
        <ele>7</ele>
        <time>2026-03-09T19:26:36.000Z</time>
      </trkpt>
      <trkpt lat="43.35673" lon="-1.63149">
        <ele>7</ele>
        <time>2026-03-09T19:26:37.000Z</time>
      </trkpt>
      <trkpt lat="43.35676" lon="-1.63154">
        <ele>7</ele>
        <time>2026-03-09T19:26:38.000Z</time>
      </trkpt>
      <trkpt lat="43.35699" lon="-1.63173">
        <ele>6</ele>
        <time>2026-03-09T19:26:43.000Z</time>
      </trkpt>
      <trkpt lat="43.35728" lon="-1.63183">
        <ele>7</ele>
        <time>2026-03-09T19:26:48.000Z</time>
      </trkpt>
      <trkpt lat="43.3575" lon="-1.63192">
        <ele>7</ele>
        <time>2026-03-09T19:26:53.000Z</time>
      </trkpt>
      <trkpt lat="43.35789" lon="-1.63219">
        <ele>9</ele>
        <time>2026-03-09T19:27:00.000Z</time>
      </trkpt>
      <trkpt lat="43.35859" lon="-1.6328">
        <ele>9</ele>
        <time>2026-03-09T19:27:15.000Z</time>
      </trkpt>
      <trkpt lat="43.35921" lon="-1.63341">
        <ele>8</ele>
        <time>2026-03-09T19:27:29.000Z</time>
      </trkpt>
      <trkpt lat="43.35935" lon="-1.63358">
        <ele>9</ele>
        <time>2026-03-09T19:27:32.000Z</time>
      </trkpt>
      <trkpt lat="43.35984" lon="-1.63434">
        <ele>8</ele>
        <time>2026-03-09T19:27:45.000Z</time>
      </trkpt>
      <trkpt lat="43.35995" lon="-1.63453">
        <ele>8</ele>
        <time>2026-03-09T19:27:48.000Z</time>
      </trkpt>
      <trkpt lat="43.36014" lon="-1.63501">
        <ele>6</ele>
        <time>2026-03-09T19:27:55.000Z</time>
      </trkpt>
      <trkpt lat="43.36029" lon="-1.63531">
        <ele>6</ele>
        <time>2026-03-09T19:28:00.000Z</time>
      </trkpt>
      <trkpt lat="43.36039" lon="-1.63549">
        <ele>6</ele>
        <time>2026-03-09T19:28:03.000Z</time>
      </trkpt>
      <trkpt lat="43.36061" lon="-1.63577">
        <ele>5</ele>
        <time>2026-03-09T19:28:08.000Z</time>
      </trkpt>
      <trkpt lat="43.36075" lon="-1.63589">
        <ele>5</ele>
        <time>2026-03-09T19:28:11.000Z</time>
      </trkpt>
      <trkpt lat="43.36097" lon="-1.63603">
        <ele>5</ele>
        <time>2026-03-09T19:28:15.000Z</time>
      </trkpt>
      <trkpt lat="43.36255" lon="-1.63666">
        <ele>6</ele>
        <time>2026-03-09T19:28:45.000Z</time>
      </trkpt>
      <trkpt lat="43.36277" lon="-1.63671">
        <ele>6</ele>
        <time>2026-03-09T19:28:49.000Z</time>
      </trkpt>
      <trkpt lat="43.36308" lon="-1.63673">
        <ele>7</ele>
        <time>2026-03-09T19:28:54.000Z</time>
      </trkpt>
      <trkpt lat="43.36349" lon="-1.63669">
        <ele>7</ele>
        <time>2026-03-09T19:29:02.000Z</time>
      </trkpt>
      <trkpt lat="43.36595" lon="-1.63589">
        <ele>5</ele>
        <time>2026-03-09T19:29:47.000Z</time>
      </trkpt>
      <trkpt lat="43.36638" lon="-1.63578">
        <ele>7</ele>
        <time>2026-03-09T19:29:54.000Z</time>
      </trkpt>
      <trkpt lat="43.36675" lon="-1.63576">
        <ele>8</ele>
        <time>2026-03-09T19:30:01.000Z</time>
      </trkpt>
      <trkpt lat="43.36709" lon="-1.63582">
        <ele>8</ele>
        <time>2026-03-09T19:30:07.000Z</time>
      </trkpt>
      <trkpt lat="43.36753" lon="-1.63597">
        <ele>7</ele>
        <time>2026-03-09T19:30:15.000Z</time>
      </trkpt>
      <trkpt lat="43.37067" lon="-1.63794">
        <ele>6</ele>
        <time>2026-03-09T19:31:16.000Z</time>
      </trkpt>
      <trkpt lat="43.37085" lon="-1.63801">
        <ele>6</ele>
        <time>2026-03-09T19:31:20.000Z</time>
      </trkpt>
      <trkpt lat="43.37111" lon="-1.63806">
        <ele>5</ele>
        <time>2026-03-09T19:31:24.000Z</time>
      </trkpt>
      <trkpt lat="43.37409" lon="-1.63788">
        <ele>4</ele>
        <time>2026-03-09T19:32:18.000Z</time>
      </trkpt>
      <trkpt lat="43.37444" lon="-1.63779">
        <ele>4</ele>
        <time>2026-03-09T19:32:24.000Z</time>
      </trkpt>
      <trkpt lat="43.37508" lon="-1.63777">
        <ele>4</ele>
        <time>2026-03-09T19:32:35.000Z</time>
      </trkpt>
      <trkpt lat="43.37526" lon="-1.63781">
        <ele>5</ele>
        <time>2026-03-09T19:32:39.000Z</time>
      </trkpt>
      <trkpt lat="43.37541" lon="-1.63773">
        <ele>5</ele>
        <time>2026-03-09T19:32:41.000Z</time>
      </trkpt>
      <trkpt lat="43.37607" lon="-1.63771">
        <ele>6</ele>
        <time>2026-03-09T19:32:53.000Z</time>
      </trkpt>
      <trkpt lat="43.37642" lon="-1.63776">
        <ele>6</ele>
        <time>2026-03-09T19:32:59.000Z</time>
      </trkpt>
      <trkpt lat="43.37738" lon="-1.63772">
        <ele>8</ele>
        <time>2026-03-09T19:33:16.000Z</time>
      </trkpt>
      <trkpt lat="43.37759" lon="-1.63774">
        <ele>8</ele>
        <time>2026-03-09T19:33:20.000Z</time>
      </trkpt>
      <trkpt lat="43.37776" lon="-1.63786">
        <ele>8</ele>
        <time>2026-03-09T19:33:24.000Z</time>
      </trkpt>
      <trkpt lat="43.37906" lon="-1.63917">
        <ele>6</ele>
        <time>2026-03-09T19:33:52.000Z</time>
      </trkpt>
      <trkpt lat="43.38056" lon="-1.64058">
        <ele>9</ele>
        <time>2026-03-09T19:34:25.000Z</time>
      </trkpt>
      <trkpt lat="43.3812" lon="-1.64193">
        <ele>6</ele>
        <time>2026-03-09T19:34:45.000Z</time>
      </trkpt>
      <trkpt lat="43.38155" lon="-1.6423">
        <ele>6</ele>
        <time>2026-03-09T19:34:53.000Z</time>
      </trkpt>
      <trkpt lat="43.38212" lon="-1.64283">
        <ele>5</ele>
        <time>2026-03-09T19:35:06.000Z</time>
      </trkpt>
      <trkpt lat="43.38232" lon="-1.64309">
        <ele>5</ele>
        <time>2026-03-09T19:35:10.000Z</time>
      </trkpt>
      <trkpt lat="43.3825" lon="-1.64341">
        <ele>5</ele>
        <time>2026-03-09T19:35:16.000Z</time>
      </trkpt>
      <trkpt lat="43.38264" lon="-1.64383">
        <ele>7</ele>
        <time>2026-03-09T19:35:22.000Z</time>
      </trkpt>
      <trkpt lat="43.38272" lon="-1.64424">
        <ele>8</ele>
        <time>2026-03-09T19:35:27.000Z</time>
      </trkpt>
      <trkpt lat="43.38277" lon="-1.64488">
        <ele>10</ele>
        <time>2026-03-09T19:35:35.000Z</time>
      </trkpt>
      <trkpt lat="43.3828" lon="-1.64595">
        <ele>8</ele>
        <time>2026-03-09T19:35:49.000Z</time>
      </trkpt>
      <trkpt lat="43.38273" lon="-1.64701">
        <ele>7</ele>
        <time>2026-03-09T19:36:03.000Z</time>
      </trkpt>
      <trkpt lat="43.38255" lon="-1.6488">
        <ele>9</ele>
        <time>2026-03-09T19:36:26.000Z</time>
      </trkpt>
      <trkpt lat="43.38252" lon="-1.64928">
        <ele>8</ele>
        <time>2026-03-09T19:36:33.000Z</time>
      </trkpt>
      <trkpt lat="43.38254" lon="-1.64945">
        <ele>8</ele>
        <time>2026-03-09T19:36:35.000Z</time>
      </trkpt>
      <trkpt lat="43.3826" lon="-1.64971">
        <ele>8</ele>
        <time>2026-03-09T19:36:38.000Z</time>
      </trkpt>
      <trkpt lat="43.38276" lon="-1.65016">
        <ele>9</ele>
        <time>2026-03-09T19:36:45.000Z</time>
      </trkpt>
      <trkpt lat="43.38343" lon="-1.652">
        <ele>12</ele>
        <time>2026-03-09T19:37:12.000Z</time>
      </trkpt>
      <trkpt lat="43.38356" lon="-1.65227">
        <ele>13</ele>
        <time>2026-03-09T19:37:16.000Z</time>
      </trkpt>
      <trkpt lat="43.38363" lon="-1.65232">
        <ele>13</ele>
        <time>2026-03-09T19:37:17.000Z</time>
      </trkpt>
      <trkpt lat="43.38379" lon="-1.65254">
        <ele>14</ele>
        <time>2026-03-09T19:37:21.000Z</time>
      </trkpt>
      <trkpt lat="43.384" lon="-1.6527">
        <ele>14</ele>
        <time>2026-03-09T19:37:25.000Z</time>
      </trkpt>
      <trkpt lat="43.38412" lon="-1.65283">
        <ele>13</ele>
        <time>2026-03-09T19:37:28.000Z</time>
      </trkpt>
      <trkpt lat="43.38412" lon="-1.65303">
        <ele>10</ele>
        <time>2026-03-09T19:37:31.000Z</time>
      </trkpt>
      <trkpt lat="43.38407" lon="-1.65318">
        <ele>8</ele>
        <time>2026-03-09T19:37:33.000Z</time>
      </trkpt>
      <trkpt lat="43.38404" lon="-1.65322">
        <ele>7</ele>
        <time>2026-03-09T19:37:34.000Z</time>
      </trkpt>
      <trkpt lat="43.38343" lon="-1.65446">
        <ele>5</ele>
        <time>2026-03-09T19:37:53.000Z</time>
      </trkpt>
      <trkpt lat="43.38341" lon="-1.65462">
        <ele>4</ele>
        <time>2026-03-09T19:37:55.000Z</time>
      </trkpt>
      <trkpt lat="43.38363" lon="-1.65495">
        <ele>4</ele>
        <time>2026-03-09T19:38:01.000Z</time>
      </trkpt>
      <trkpt lat="43.38364" lon="-1.655">
        <ele>4</ele>
        <time>2026-03-09T19:38:02.000Z</time>
      </trkpt>
      <trkpt lat="43.38362" lon="-1.65506">
        <ele>4</ele>
        <time>2026-03-09T19:38:02.000Z</time>
      </trkpt>
      <trkpt lat="43.3836" lon="-1.65509">
        <ele>4</ele>
        <time>2026-03-09T19:38:03.000Z</time>
      </trkpt>
      <trkpt lat="43.38357" lon="-1.65509">
        <ele>4</ele>
        <time>2026-03-09T19:38:03.000Z</time>
      </trkpt>
      <trkpt lat="43.38351" lon="-1.65522">
        <ele>4</ele>
        <time>2026-03-09T19:38:05.000Z</time>
      </trkpt>
      <trkpt lat="43.38252" lon="-1.65655">
        <ele>4</ele>
        <time>2026-03-09T19:38:30.000Z</time>
      </trkpt>
      <trkpt lat="43.38236" lon="-1.65679">
        <ele>4</ele>
        <time>2026-03-09T19:38:34.000Z</time>
      </trkpt>
      <trkpt lat="43.38233" lon="-1.65687">
        <ele>4</ele>
        <time>2026-03-09T19:38:35.000Z</time>
      </trkpt>
      <trkpt lat="43.38234" lon="-1.65703">
        <ele>4</ele>
        <time>2026-03-09T19:38:37.000Z</time>
      </trkpt>
      <trkpt lat="43.38298" lon="-1.65877">
        <ele>4</ele>
        <time>2026-03-09T19:39:03.000Z</time>
      </trkpt>
      <trkpt lat="43.38309" lon="-1.65902">
        <ele>5</ele>
        <time>2026-03-09T19:39:06.000Z</time>
      </trkpt>
      <trkpt lat="43.38306" lon="-1.65904">
        <ele>4</ele>
        <time>2026-03-09T19:39:07.000Z</time>
      </trkpt>
    </trkseg>
  </trk>
</gpx>